GFSGL_250_rhum_000.txt.gz
RH
35 36 36 37 34 34 32 30 30 36 32 26 26 28 25 22 20 19 19 20 23 26 27 28 32 36 40 36 32 33 34 32 25 27 22 20 18 15 14 12 9 6 4
42 38 38 37 36 34 36 34 39 39 29 27 31 29 24 22 20 21 23 27 28 33 34 34 37 37 32 32 33 33 30 24 18 16 17 13 10 8 7 5 5 4 3
44 48 42 39 36 37 38 41 41 32 29 32 32 26 24 22 22 27 30 34 33 33 35 38 32 34 35 34 31 28 22 18 14 11 10 7 5 5 4 4 3 3 2
52 46 42 39 41 43 44 40 35 31 33 33 28 24 21 24 29 35 38 36 35 36 37 36 33 31 30 30 25 18 14 12 11 7 5 4 4 3 3 3 3 2 2
50 46 44 43 43 42 40 37 33 33 33 28 24 22 27 33 37 40 39 34 42 40 35 32 31 31 27 20 15 13 10 6 5 4 3 3 3 4 3 3 3 3 2
45 44 45 42 40 40 38 33 33 35 28 23 23 34 38 44 41 34 34 44 41 32 30 31 29 23 20 16 12 6 5 4 3 2 3 3 4 3 3 3 3 3 2
44 42 38 37 38 38 33 33 37 26 23 30 38 44 48 38 33 43 47 37 31 31 31 27 24 20 13 7 5 5 4 3 2 2 3 3 3 3 3 3 2 2 2
36 33 35 37 36 32 33 33 25 24 38 44 50 47 37 37 48 46 33 33 34 32 27 23 17 9 6 5 4 4 4 3 3 3 3 3 3 3 3 2 2 2 2
33 34 36 35 31 38 27 24 28 42 46 52 40 36 42 51 38 34 36 36 32 29 25 15 6 6 5 5 4 4 4 3 3 3 3 3 3 2 2 2 2 2 3
36 34 31 39 37 25 24 38 48 49 48 40 37 53 47 36 36 37 36 32 32 24 14 8 6 5 6 4 4 4 3 3 3 3 3 2 2 2 3 3 3 4 4
32 41 41 28 25 30 44 49 48 46 39 49 61 42 39 39 42 37 34 32 22 13 8 7 6 6 5 4 4 3 3 3 3 2 2 2 2 3 3 4 5 5 6
43 29 26 28 39 48 51 45 42 46 64 52 41 49 49 49 39 38 36 21 11 8 7 6 6 5 5 4 4 4 3 2 2 3 3 3 3 4 5 6 6 7 6
26 26 38 46 51 47 44 48 68 65 45 50 53 55 51 44 43 36 20 13 9 9 8 5 5 5 4 4 4 3 3 3 4 4 4 4 5 7 7 7 7 7 6
39 45 51 45 45 44 60 71 58 53 54 53 54 51 47 47 30 19 15 11 10 8 6 5 5 5 4 4 3 3 4 4 4 4 5 7 8 9 9 9 8 9 8
49 45 43 41 57 73 65 58 61 59 57 53 48 47 43 25 20 14 10 9 7 6 6 6 5 5 4 3 4 4 4 4 5 6 8 9 11 12 12 11 9 9 8
39 39 50 75 69 72 72 66 63 56 53 48 50 34 22 18 13 10 9 6 6 6 6 5 5 4 4 4 5 5 5 6 9 10 11 12 14 15 14 13 13 12 14
43 66 74 75 78 70 72 67 63 63 58 54 32 27 22 13 9 8 6 5 6 6 5 5 4 4 5 5 6 7 8 10 12 13 14 15 14 15 14 13 17 18 17
75 78 83 74 76 76 65 61 61 65 48 34 32 21 13 10 8 6 6 6 6 6 6 4 4 5 6 6 8 9 12 13 16 17 16 16 14 14 16 16 17 22 21
86 82 83 76 67 64 63 68 69 50 31 27 17 12 10 8 6 5 7 7 6 6 5 4 5 6 6 8 10 14 16 19 20 22 23 24 22 19 18 18 17 18 21
87 79 68 68 70 70 69 65 45 31 27 18 11 10 9 6 6 7 7 6 6 5 5 6 6 6 8 13 16 17 19 20 20 21 21 23 27 30 28 26 28 20 16
70 69 77 72 73 71 62 45 28 25 16 12 10 9 6 6 7 7 7 6 5 5 6 6 7 9 14 18 19 18 18 18 18 20 23 23 23 22 22 24 26 30 24
78 77 76 79 74 60 37 28 23 18 13 11 9 6 6 7 7 7 6 6 5 6 7 8 10 15 16 15 16 20 20 20 18 17 17 17 18 19 21 24 21 23 30
79 85 83 70 56 33 26 23 19 15 10 9 6 6 7 6 6 6 6 6 7 8 9 11 15 17 17 18 17 15 14 14 13 13 14 12 11 11 13 16 20 19 22
90 80 70 50 36 27 27 26 15 10 8 6 6 7 7 6 6 6 6 7 8 10 11 14 17 19 18 17 15 14 12 10 10 10 10 8 8 8 9 11 12 14 18
79 69 50 34 28 28 27 15 10 8 6 6 7 6 6 5 5 6 6 9 11 12 14 16 18 19 18 16 13 12 11 9 9 8 7 7 7 8 9 10 10 11 13
82 54 33 32 31 28 16 10 7 6 6 7 6 6 5 5 5 6 9 11 13 15 18 18 17 17 16 14 12 11 10 9 9 7 7 7 8 8 9 9 9 9 10

GFSGL_250_rhum_003.txt.gz
RH
37 35 35 36 34 32 40 44 38 36 34 33 33 32 31 32 36 29 27 26 21 21 17 22 28 30 32 34 39 34 29 26 23 24 23 23 19 15 14 14 12 9 6
40 38 35 37 37 35 42 44 39 36 35 35 36 33 34 36 32 28 29 24 21 19 26 29 32 33 38 38 32 27 25 24 20 16 18 16 13 9 6 5 4 4 4
43 41 38 39 41 39 42 45 42 38 39 38 36 37 35 34 30 29 26 21 21 28 26 30 33 38 33 28 26 27 26 21 19 15 7 6 5 4 4 4 3 3 2
48 46 44 45 47 46 52 50 44 41 40 40 38 33 34 32 30 27 21 24 31 26 29 36 36 30 26 27 29 24 19 16 10 5 4 4 4 4 3 2 3 2 2
53 48 51 55 55 58 56 50 43 41 40 35 31 35 32 32 27 22 27 32 28 32 41 35 31 28 32 28 22 16 10 5 4 4 4 4 3 3 3 3 3 3 2
53 53 55 57 57 54 52 44 44 42 35 32 36 33 35 25 23 32 28 30 36 42 34 34 37 35 29 24 14 7 6 4 3 3 3 3 3 3 2 2 2 3 3
54 52 51 50 51 50 46 45 42 36 36 36 33 33 24 27 29 27 30 44 40 37 38 39 37 31 21 9 6 7 6 5 4 3 3 3 2 2 2 2 2 2 2
57 52 50 49 49 47 45 40 38 38 33 36 29 24 30 32 28 36 47 42 42 41 42 39 29 18 7 6 7 7 6 4 4 4 3 2 2 2 2 2 2 2 2
56 54 52 49 45 45 47 44 35 37 36 26 26 33 32 31 46 44 45 44 49 50 45 33 16 7 7 8 7 5 5 4 4 3 3 2 2 2 2 2 2 2 2
57 52 53 56 56 48 38 34 38 29 26 34 34 31 34 48 43 44 50 48 49 48 43 16 8 9 9 7 5 5 5 4 3 3 2 2 3 3 3 2 3 4 4
65 63 58 50 43 38 39 32 27 32 36 35 33 44 48 45 49 47 52 49 49 43 15 10 10 10 7 5 5 5 4 4 3 2 3 3 3 3 4 5 5 6 6
58 50 43 42 43 36 29 31 37 38 34 37 55 54 56 53 50 55 51 52 38 14 11 9 10 7 5 6 5 4 4 3 3 4 4 4 4 4 5 7 8 8 7
43 46 49 35 31 31 36 39 35 32 49 57 60 66 61 60 59 53 57 34 15 12 10 10 6 6 6 5 5 4 4 4 4 4 4 5 6 7 8 10 10 10 9
46 34 32 31 35 38 36 36 48 68 67 66 63 60 65 60 59 56 26 17 11 10 10 6 6 6 6 5 4 4 4 5 5 5 6 8 11 11 12 14 14 11 10
31 32 37 39 35 36 52 68 69 63 65 59 62 62 57 62 46 25 17 10 10 9 5 6 6 6 5 4 4 5 6 6 6 8 10 13 14 14 14 15 14 12 12
45 38 34 38 56 66 70 67 67 64 60 60 55 54 59 35 21 14 9 8 7 5 6 6 6 5 4 4 5 6 6 7 9 12 13 15 16 15 14 14 13 11 13
34 38 64 68 66 71 73 72 70 68 59 53 52 57 34 19 12 8 8 6 5 6 6 6 5 5 4 6 6 6 8 11 14 15 17 18 18 16 15 14 15 14 13
67 70 63 74 75 73 65 66 67 62 55 53 59 36 20 11 9 8 6 5 6 6 6 5 5 5 6 6 6 9 13 16 17 18 19 19 21 22 21 19 18 16 14
64 74 79 74 64 64 67 65 58 51 50 51 29 15 11 10 8 6 5 6 6 6 5 5 5 6 6 7 10 13 14 15 17 18 18 17 16 16 19 24 24 25 17
80 75 67 66 64 64 62 59 55 55 44 27 16 14 11 8 6 5 6 6 6 5 5 5 6 7 8 12 12 12 12 13 14 15 14 14 17 18 15 14 20 24 25
68 65 64 57 60 64 67 60 52 41 31 22 19 12 7 6 5 6 6 6 5 5 5 5 7 9 14 14 14 14 14 12 11 11 11 12 15 16 17 17 16 17 23
63 58 54 58 68 73 56 44 38 34 24 22 14 8 5 5 6 6 6 5 4 5 6 7 9 13 14 14 14 12 10 10 10 9 9 10 11 13 14 15 14 17 19
55 52 53 65 71 55 49 34 35 27 22 15 8 5 5 6 7 6 5 4 5 6 7 9 13 15 15 13 11 11 9 8 8 8 7 7 7 7 8 10 12 14 15
53 52 57 66 58 54 34 36 29 23 16 10 6 5 6 7 6 4 4 5 6 7 9 13 14 15 12 10 10 9 9 9 7 7 7 6 6 6 8 9 10 11 12
53 57 64 61 60 33 36 27 22 16 10 6 5 7 7 6 5 5 6 6 8 8 13 15 16 12 11 10 9 9 10 9 7 7 7 6 7 7 8 9 10 10 11
63 64 68 63 33 33 29 22 15 10 6 5 7 7 7 5 5 6 6 9 9 12 16 18 14 13 12 11 10 11 11 9 9 8 8 8 7 8 8 9 9 10 10

GFSGL_250_rhum_006.txt.gz
RH
39 46 58 65 54 43 39 38 36 36 37 38 37 37 38 37 38 42 38 35 31 28 26 27 28 26 20 23 24 31 35 28 20 23 19 19 16 16 13 7 4 3 3
46 50 53 63 57 47 42 40 37 34 35 36 41 43 40 44 46 43 36 32 29 27 29 31 26 20 26 26 36 36 27 25 20 14 16 16 13 7 5 4 4 3 2
44 45 59 70 59 48 44 42 41 42 42 45 47 46 49 47 45 39 34 30 30 32 31 23 22 26 28 37 32 29 28 24 16 14 11 8 6 5 5 5 3 3 2
43 56 72 74 62 53 48 47 48 49 48 49 51 51 48 47 41 36 31 34 33 29 22 26 26 32 36 30 32 30 21 16 13 8 7 5 5 5 4 3 3 3 2
58 78 80 76 67 60 57 57 56 54 52 51 49 47 44 40 37 37 38 32 28 23 30 27 36 33 35 36 28 21 18 12 8 7 6 5 4 4 3 3 3 3 2
76 90 93 83 74 73 71 67 60 55 51 49 46 45 43 41 43 37 31 25 26 31 28 39 34 42 38 30 23 18 12 8 5 6 5 4 4 4 3 3 3 2 2
98 100 95 86 83 78 74 66 61 54 50 49 47 46 49 44 36 30 24 30 27 34 37 40 45 39 30 24 18 12 9 6 6 5 5 5 4 4 3 3 2 2 2
99 92 88 82 74 71 68 62 54 52 49 46 51 49 40 35 27 28 30 28 38 40 51 44 42 34 26 13 9 11 8 7 6 5 5 4 4 3 2 3 3 2 3
91 87 79 77 71 66 59 54 50 47 54 56 45 41 31 27 30 29 34 44 52 53 47 49 39 26 14 9 10 8 7 5 5 5 5 4 3 3 3 3 3 3 3
87 81 75 70 64 59 53 52 58 62 52 46 34 29 29 33 35 45 49 52 49 49 54 42 22 13 9 10 8 7 5 6 6 4 4 3 4 4 4 4 5 4 5
80 76 70 64 60 60 63 61 58 50 40 32 30 33 34 43 49 52 50 46 51 56 39 22 12 10 10 8 6 5 6 6 5 4 3 4 4 5 5 7 8 8 7
70 69 67 68 70 65 60 56 45 33 30 35 35 46 50 53 53 46 50 54 54 39 20 12 11 10 8 5 5 6 6 5 4 4 5 5 5 7 8 11 11 11 12
69 72 73 68 65 59 47 36 30 36 37 44 54 56 61 52 51 54 56 60 44 22 14 12 8 7 5 5 6 5 5 4 4 5 5 5 7 9 12 14 14 13 14
72 66 67 64 52 38 32 38 38 42 59 56 61 57 51 54 54 55 60 38 22 17 13 8 5 4 6 6 5 5 4 4 5 5 5 8 10 12 13 14 14 14 14
65 63 51 37 34 40 38 45 66 59 61 61 51 51 56 50 51 56 31 18 13 10 7 4 5 6 5 5 5 4 5 6 6 8 10 12 14 17 17 17 14 13 12
40 36 37 40 34 44 68 66 63 64 56 48 49 50 42 42 48 25 15 11 9 6 4 5 6 5 4 4 4 5 6 7 10 12 14 16 17 18 21 22 18 14 14
40 42 35 38 65 74 68 63 62 54 46 46 46 37 42 44 21 14 12 9 5 4 5 6 5 4 4 4 5 6 8 12 12 12 13 14 16 18 16 19 23 20 15
36 41 53 74 74 67 60 61 54 51 49 46 39 41 52 23 13 10 9 5 4 5 6 5 4 4 5 5 6 8 11 12 12 12 12 13 14 14 17 19 22 25 21
57 73 78 71 62 63 58 53 51 47 42 35 36 47 23 13 11 8 5 4 6 6 5 4 4 5 6 7 10 11 11 10 10 11 12 11 11 13 13 19 20 21 24
80 74 66 62 62 53 52 54 49 42 35 34 40 20 14 12 9 5 4 6 6 5 4 4 6 6 8 11 11 11 9 9 9 9 10 10 10 12 13 15 19 20 19
72 65 59 58 51 54 55 49 41 37 32 37 22 14 11 8 5 5 6 7 6 4 5 6 7 10 13 15 12 9 8 7 7 7 7 8 8 8 12 16 16 18 21
60 57 56 54 56 54 50 41 39 34 35 24 15 11 6 4 5 6 7 6 4 5 6 7 10 14 15 11 8 7 7 7 8 6 6 6 6 6 7 9 11 14 19
58 59 60 57 52 53 43 42 34 34 24 16 11 7 5 5 7 7 6 5 5 6 8 12 16 15 10 8 8 7 7 8 7 7 7 6 6 6 6 7 8 10 15
68 62 58 54 57 46 43 36 32 27 16 11 7 5 6 7 7 7 5 5 6 8 11 17 16 10 11 9 9 8 9 8 8 8 7 7 6 6 7 7 8 10 12
62 61 58 60 49 44 41 30 29 18 11 8 6 6 8 7 6 5 6 6 8 10 17 18 14 12 12 10 10 10 9 9 9 8 7 6 6 6 7 7 8 10 11
64 61 60 53 45 43 25 29 20 11 8 5 6 8 7 5 5 6 7 8 10 18 20 17 13 14 12 12 11 11 10 10 9 8 8 7 6 6 7 8 8 9 11

GFSGL_250_rhum_009.txt.gz
RH
53 53 52 49 41 41 36 39 53 68 68 56 49 46 44 42 41 41 42 43 40 40 42 42 36 33 32 30 30 32 22 18 20 36 35 33 23 17 18 17 10 5 4
50 53 58 52 48 42 40 38 43 64 78 68 58 50 46 45 45 46 50 46 43 44 42 37 37 35 35 33 31 20 23 23 30 28 32 22 19 22 15 6 5 4 4
50 50 62 59 54 47 41 40 48 69 73 68 64 58 52 52 56 55 51 49 48 44 40 42 40 37 36 27 24 25 29 37 32 21 19 22 20 11 6 5 5 4 3
52 52 63 61 58 46 46 49 61 70 74 75 70 64 62 63 65 62 57 55 48 45 44 41 36 35 23 27 29 38 42 36 23 18 18 14 8 6 6 5 4 3 3
49 52 56 61 59 51 53 60 64 75 79 76 80 78 74 71 68 64 55 49 46 47 42 38 30 26 29 35 41 41 32 22 16 17 11 7 6 5 4 4 4 4 3
47 53 61 61 52 60 63 77 84 88 86 97 93 80 73 68 62 52 48 48 48 42 38 26 30 32 41 43 39 36 27 17 16 8 6 6 5 4 4 4 4 4 3
46 54 49 60 64 75 86 98 94 93 99 95 83 74 64 57 53 53 51 47 42 29 31 34 42 43 42 41 38 27 19 12 6 5 6 5 4 5 5 4 4 3 3
41 52 64 80 87 90 100 96 99 100 94 83 71 64 58 58 57 51 44 35 29 34 41 47 44 41 45 35 25 17 13 8 7 6 4 4 5 5 4 4 3 3 3
55 75 97 100 100 100 100 100 98 90 80 72 62 64 62 54 47 43 30 33 38 50 50 42 42 44 34 26 18 12 9 7 5 4 5 5 5 4 4 4 4 4 3
74 100 100 100 100 97 98 95 88 80 70 67 68 57 52 52 34 33 35 49 52 50 43 42 40 31 24 16 11 9 8 5 4 5 5 4 4 4 5 6 5 5 5
99 100 100 96 96 95 93 87 78 72 71 66 58 56 40 34 35 43 53 52 48 42 39 38 31 24 13 11 8 6 4 5 5 4 4 4 4 5 5 6 7 9 8
100 96 94 94 93 91 85 76 73 71 62 58 47 36 36 40 51 50 56 48 40 38 38 30 21 12 11 8 6 4 5 5 4 4 4 5 5 5 6 10 11 12 13
96 97 97 89 86 78 74 75 68 60 51 38 38 37 55 52 59 55 49 42 39 41 31 19 13 12 9 5 4 6 4 4 4 4 5 5 7 9 11 14 18 17 17
93 89 86 79 74 73 68 60 52 38 40 36 46 57 57 59 53 50 43 41 45 32 18 15 12 8 4 5 6 4 4 4 4 4 4 8 10 12 15 16 18 20 19
81 73 70 71 68 60 50 37 38 37 37 63 59 62 59 51 49 46 40 38 26 15 15 10 5 4 5 5 4 4 4 5 5 7 10 10 11 11 14 16 17 18 17
60 63 61 55 46 36 38 37 37 58 66 60 61 53 47 45 43 39 34 21 14 14 8 4 5 6 4 3 4 4 5 6 9 10 11 11 11 12 14 16 16 18 19
49 43 36 35 38 37 39 63 72 59 56 55 48 46 45 41 37 30 18 14 14 7 4 5 6 4 4 4 4 4 6 8 9 8 7 8 9 10 11 15 17 20 18
35 35 35 39 55 72 81 71 63 62 58 51 51 47 41 36 28 17 15 14 6 4 6 6 4 4 4 5 5 7 8 8 7 6 7 7 7 7 9 11 16 18 18
38 53 69 81 80 72 64 64 60 55 52 51 47 40 33 27 16 14 13 7 5 6 6 5 5 5 5 6 8 9 8 7 6 5 6 6 6 7 8 10 12 16 15
80 88 80 73 71 68 69 62 57 54 51 45 36 33 26 18 17 13 6 5 6 7 5 5 6 6 7 10 10 9 8 7 7 6 6 6 6 6 8 8 12 14 14
81 66 68 70 71 73 67 61 58 52 42 34 33 23 17 18 12 6 5 6 6 5 6 6 7 8 12 11 9 7 7 7 7 6 5 5 6 6 6 7 10 13 14
71 71 73 78 81 72 61 57 51 38 34 32 23 16 16 10 5 5 6 6 5 6 7 7 9 12 12 10 8 8 9 8 7 6 6 6 6 6 6 6 7 11 14
85 84 90 85 71 62 56 48 37 33 29 22 15 15 8 5 6 7 6 5 6 7 9 11 14 14 11 10 9 9 10 9 7 6 6 6 6 6 6 6 7 9 12
96 91 78 66 60 54 46 37 33 27 20 14 14 8 5 6 7 6 5 6 7 9 13 16 15 13 13 11 11 10 9 9 8 6 6 6 6 6 7 7 7 9 12
81 71 63 58 52 46 36 33 27 19 14 14 7 5 6 7 6 6 7 8 8 14 20 18 15 15 13 13 12 11 10 10 9 7 6 7 7 7 8 8 9 11 12
66 62 59 55 46 39 35 27 19 14 13 8 5 6 8 7 6 8 8 8 13 19 23 17 16 16 15 15 13 13 11 10 10 8 7 8 9 9 9 9 10 11 13

GFSGL_250_rhum_012.txt.gz
RH
87 82 83 72 68 68 64 58 57 56 51 42 32 32 41 48 57 69 75 72 64 60 56 53 54 56 57 57 56 49 47 49 39 37 27 25 26 33 28 21 20 21 20
93 87 91 84 72 64 62 65 67 60 56 42 33 37 38 40 50 53 58 66 66 59 58 61 64 60 63 55 50 51 46 37 30 23 29 43 41 29 25 25 21 15 6
90 80 78 80 78 70 69 70 76 66 51 45 39 36 38 44 48 50 55 62 60 64 72 68 67 62 57 55 52 43 36 27 26 30 42 39 33 28 25 21 9 6 5
98 81 74 68 69 69 65 70 69 65 60 55 43 43 43 46 53 56 61 61 68 76 73 67 64 58 56 51 42 32 27 30 42 40 36 29 27 25 16 8 6 5 3
83 85 74 61 60 62 58 58 65 73 67 54 55 52 48 58 60 66 59 66 80 81 73 66 63 59 52 37 28 30 44 46 40 27 26 25 24 11 8 6 4 3 3
85 93 75 67 63 56 51 46 57 64 71 67 62 62 66 64 72 63 66 86 90 74 72 69 63 57 34 32 41 48 46 36 29 24 25 16 8 7 5 3 3 4 4
100 100 92 79 72 48 44 43 52 70 73 66 73 74 72 76 67 71 93 90 77 76 70 73 53 31 38 51 45 43 40 29 26 19 10 7 6 4 4 4 4 4 3
100 100 98 85 69 43 41 45 55 62 72 82 84 76 77 69 80 89 85 82 80 77 78 37 32 48 46 43 44 36 29 26 18 9 7 5 3 4 5 5 4 4 3
100 100 91 73 54 43 41 49 59 76 99 89 81 74 74 86 83 83 88 79 85 63 35 37 51 49 49 38 34 28 27 16 8 6 4 4 5 5 4 4 4 4 4
95 90 74 54 44 42 51 58 93 100 93 79 74 81 81 80 89 85 86 86 42 38 53 58 51 44 36 32 28 26 14 8 6 3 4 5 5 4 4 4 5 5 6
64 60 56 50 51 57 76 97 99 88 80 78 75 78 90 89 85 88 67 37 41 61 54 49 40 35 31 28 24 11 8 5 4 4 5 4 3 4 4 6 8 10 12
69 62 60 62 71 88 97 91 86 81 79 78 85 88 82 88 79 44 40 53 62 54 44 38 36 30 29 21 11 8 4 4 5 5 3 4 4 5 6 8 11 12 15
70 70 70 80 93 94 91 83 76 77 84 88 80 85 82 48 40 50 67 56 51 42 41 37 31 29 15 11 8 5 5 6 4 3 4 4 6 8 10 10 11 12 13
71 75 84 89 86 75 70 77 82 82 78 77 76 48 42 51 77 61 58 54 48 44 40 32 26 13 12 8 5 6 6 4 4 4 4 6 9 9 10 11 10 11 13
76 72 69 67 68 70 73 75 72 68 67 48 43 54 82 72 64 63 54 46 42 38 31 20 12 12 7 5 6 6 4 4 5 6 9 9 8 7 7 8 8 9 12
65 54 53 55 58 58 57 60 54 43 43 58 82 80 66 63 56 49 45 38 34 27 15 12 11 6 5 6 5 4 4 5 6 8 7 6 6 6 6 7 7 8 10
79 72 64 57 52 46 41 41 41 65 83 84 70 62 54 48 47 41 36 32 23 14 12 10 6 5 6 5 4 4 5 7 7 6 6 5 5 5 5 6 7 8 8
56 50 44 40 42 54 70 83 88 85 77 65 56 54 53 46 40 36 30 19 14 13 10 6 6 6 5 4 5 6 9 8 6 6 6 6 6 5 5 6 6 8 9
54 52 56 63 77 84 88 84 78 79 75 73 71 56 48 39 35 27 17 15 13 9 6 7 6 5 5 6 8 10 8 6 5 5 6 6 5 5 5 6 6 8 9
57 56 61 71 79 91 92 90 86 82 79 66 52 44 38 36 25 16 14 13 8 6 7 5 5 6 7 10 11 8 7 6 5 6 6 6 6 6 6 6 6 7 11
51 52 56 75 96 99 94 91 85 72 57 48 38 37 32 23 16 14 12 6 6 7 5 6 7 8 12 11 10 9 8 7 6 7 6 6 6 6 6 6 6 8 14
63 83 98 100 99 94 84 76 62 51 42 36 35 29 20 16 14 10 6 7 6 6 7 8 9 13 12 10 10 10 9 8 7 7 6 5 5 6 6 6 7 9 16
99 100 99 90 84 75 63 52 44 37 36 35 26 18 16 13 8 6 7 6 7 8 8 10 14 13 10 11 12 11 10 9 7 7 6 7 6 6 7 7 8 11 14
98 90 84 73 66 55 49 43 39 37 32 23 18 15 12 6 6 8 6 8 10 9 11 15 15 12 12 13 14 12 12 10 7 7 7 8 8 8 9 9 10 13 15
86 78 70 61 58 52 43 40 38 31 22 17 13 11 6 6 8 7 8 10 10 14 18 16 13 13 14 17 15 13 13 11 9 9 10 11 11 11 11 11 13 15 18
75 68 62 62 55 45 43 39 31 21 17 13 10 6 6 8 8 8 10 9 13 19 18 16 14 14 16 20 16 14 15 13 11 9 11 12 13 14 14 14 14 16 22

GFSGL_250_rhum_015.txt.gz
RH
95 76 77 78 68 70 74 77 81 84 70 56 55 67 70 66 59 51 50 44 40 36 37 34 36 38 36 41 49 49 49 51 49 62 58 47 35 28 23 24 28 24 21
93 80 80 82 74 75 82 93 96 85 74 64 55 50 54 59 60 60 57 50 43 41 33 31 34 34 38 44 48 48 53 58 59 53 55 42 30 25 31 26 21 20 23
91 81 82 72 69 92 98 100 100 92 86 73 65 56 54 56 60 64 62 58 51 40 38 38 34 37 41 47 48 53 61 63 57 52 42 29 30 35 26 23 22 26 22
92 85 86 65 69 91 95 87 80 79 76 75 67 54 50 51 55 59 60 57 49 45 47 41 43 44 49 49 55 64 66 64 60 46 28 32 33 26 22 24 28 21 8
82 98 82 67 76 84 86 90 91 89 70 65 65 56 49 52 55 56 60 54 54 59 54 48 48 52 54 59 64 66 67 66 44 29 37 31 25 22 26 25 14 6 4
100 94 87 74 74 76 90 85 86 71 69 64 57 50 46 47 51 53 63 66 65 72 56 54 52 55 62 66 70 70 64 34 33 36 28 21 24 26 22 8 5 4 4
100 99 95 90 85 84 87 89 93 100 88 84 57 46 44 45 44 54 61 71 76 65 56 56 58 64 68 69 70 62 34 43 37 25 22 27 26 15 7 4 4 4 4
99 99 99 96 88 95 100 100 100 100 100 89 58 42 39 45 47 54 66 82 70 59 65 65 69 67 70 72 40 37 49 38 31 26 29 21 11 6 4 5 4 3 3
100 100 95 100 100 100 100 100 100 100 78 53 44 39 43 50 54 74 80 66 70 70 67 71 65 74 54 38 47 51 40 30 28 27 18 9 6 4 5 5 3 4 4
100 100 100 100 100 100 100 100 84 62 59 50 45 50 53 69 71 72 70 66 67 74 70 73 64 39 42 58 45 38 29 31 24 16 8 5 4 5 4 4 5 5 5
99 100 100 100 99 93 72 67 72 68 64 61 60 69 71 71 68 67 70 73 67 72 70 46 44 62 55 41 33 30 30 22 12 8 4 5 5 4 4 5 6 9 10
97 90 76 74 78 86 89 83 75 70 68 72 75 76 69 65 73 78 69 70 70 50 46 67 66 47 41 34 32 28 19 10 7 4 5 5 4 4 5 7 9 10 10
91 96 99 97 92 88 82 75 74 78 79 76 71 71 78 74 67 65 62 47 45 70 77 54 49 44 36 32 24 14 10 6 5 5 4 4 4 5 7 8 8 8 8
98 96 92 85 76 71 68 65 63 65 69 71 68 65 62 57 52 45 56 76 83 66 61 54 42 35 31 20 12 9 5 5 5 4 4 5 6 7 7 6 6 6 6
93 94 96 96 96 94 91 87 85 79 74 67 60 53 49 60 80 91 86 74 70 66 53 40 34 27 16 11 8 5 6 5 4 5 6 8 7 6 5 5 4 5 5
100 100 100 100 99 96 93 89 74 60 50 47 55 75 92 95 92 85 77 73 60 46 38 31 23 13 10 7 6 6 5 5 5 8 8 7 6 5 5 5 5 5 5
100 93 84 75 69 63 57 53 51 52 62 81 92 95 96 94 89 81 65 52 44 34 26 16 11 10 6 6 6 6 6 7 9 8 7 6 6 5 5 5 5 5 5
70 68 65 62 59 53 49 50 52 57 76 95 95 96 93 81 66 54 46 38 28 19 11 10 8 6 6 6 6 7 9 10 8 6 6 6 5 5 5 5 5 5 6
63 60 60 57 50 48 54 64 79 94 98 97 88 77 67 54 43 37 32 23 14 11 10 8 6 7 6 7 7 11 10 8 7 7 6 6 5 4 5 5 5 6 7
60 58 61 64 72 88 93 97 97 89 81 73 64 54 45 38 36 28 18 12 11 9 6 6 7 6 7 8 13 11 9 8 7 8 6 6 6 5 5 5 6 6 7
69 80 82 97 100 96 94 87 80 72 62 54 47 40 36 35 26 16 13 11 8 6 7 7 7 7 9 14 12 10 11 9 8 8 7 6 6 5 5 6 6 7 12
87 97 100 98 97 92 84 75 66 58 51 44 38 35 30 21 16 13 10 7 6 7 7 7 7 10 15 14 12 12 11 8 9 8 7 7 6 7 7 7 7 11 16
99 97 97 95 89 79 69 60 55 50 42 34 34 28 19 16 12 9 6 7 8 7 8 7 12 16 14 14 12 13 10 11 11 8 9 10 10 9 9 9 10 14 14
97 95 88 81 72 64 58 55 49 41 33 31 26 20 16 11 8 6 7 8 8 8 8 13 16 16 14 15 15 14 12 13 12 8 8 10 11 11 10 12 15 16 16
83 78 75 70 67 61 58 50 42 32 28 25 21 15 10 7 6 8 8 8 9 10 15 18 16 15 16 15 16 14 14 16 14 10 12 14 14 14 14 15 17 18 22
75 76 72 69 62 58 51 44 34 29 25 20 14 9 6 6 8 9 9 10 10 16 19 18 14 15 15 15 16 15 16 17 14 12 12 14 16 16 17 18 19 22 25

GFSGL_250_rhum_018.txt.gz
RH
88 90 74 66 68 86 88 88 71 59 63 56 53 64 78 82 80 84 90 83 73 67 66 67 67 68 60 51 48 43 38 34 29 31 24 21 30 35 34 32 29 23 20
65 65 62 63 78 100 99 95 81 66 70 58 76 82 91 97 90 90 88 74 64 56 52 55 58 54 51 48 47 46 39 36 28 22 21 32 35 34 32 26 23 19 19
55 56 55 71 100 100 91 96 91 94 78 71 94 100 94 90 84 80 76 73 66 54 49 44 44 46 46 46 45 43 40 37 28 18 28 35 34 32 26 19 20 20 24
49 53 71 95 100 100 99 100 90 97 74 89 95 91 88 80 90 86 72 66 62 55 47 38 35 36 38 41 42 39 35 27 26 30 32 32 30 21 19 20 22 26 30
62 67 91 100 100 97 99 99 99 83 73 89 100 91 87 90 97 92 70 65 55 48 42 36 37 37 38 36 37 34 34 37 38 35 38 30 21 22 20 22 28 32 24
61 72 97 100 100 100 96 94 94 91 100 91 90 93 80 83 85 88 80 71 55 43 39 35 39 37 34 34 32 41 40 36 40 32 23 21 27 19 23 29 31 22 13
75 100 100 100 100 99 94 99 97 99 97 98 95 92 85 68 70 89 94 73 50 41 38 36 38 35 34 39 41 45 46 39 29 19 26 21 20 26 30 29 19 10 6
95 100 100 98 100 100 100 88 86 100 98 91 90 92 92 100 98 86 61 56 49 43 39 38 36 39 41 43 50 52 40 27 29 28 22 22 28 28 20 15 8 6 5
93 100 100 100 100 100 100 100 100 91 79 83 86 94 99 97 75 72 76 67 53 45 35 36 45 46 47 39 40 43 35 32 31 24 26 29 26 17 9 6 5 5 4
100 100 84 99 100 100 99 72 76 86 88 100 100 93 85 95 94 93 76 56 52 50 52 47 43 39 36 35 30 32 40 35 27 32 31 21 13 6 5 4 4 4 4
100 100 100 91 91 84 96 100 100 100 99 93 98 100 100 95 79 69 63 60 53 47 42 39 38 35 31 36 47 40 31 31 35 27 19 9 6 4 4 4 3 4 6
100 100 100 100 100 100 100 100 93 96 100 100 100 91 78 68 61 56 51 50 47 48 45 41 37 44 59 53 40 34 36 32 22 13 8 5 5 4 4 5 5 5 5
100 100 100 97 96 89 90 99 100 100 100 95 81 74 70 65 62 53 45 43 42 48 54 58 59 59 55 42 35 34 24 16 10 7 5 5 5 5 5 6 5 4 4
90 83 80 85 96 100 100 100 99 94 90 85 75 62 53 45 43 45 50 60 69 70 67 66 61 52 39 33 26 20 11 8 6 6 6 5 6 6 5 5 5 4 4
96 99 100 100 100 99 95 94 87 78 69 61 52 45 45 48 55 66 74 81 83 77 67 58 46 33 27 22 14 9 7 6 6 6 5 7 6 7 5 5 5 5 5
100 100 100 98 96 85 79 75 66 56 50 46 45 53 71 87 92 90 84 74 61 51 42 32 25 23 16 11 8 6 7 7 6 7 8 7 7 6 6 5 5 5 5
96 99 100 90 82 73 62 57 58 53 49 65 86 93 92 87 79 70 57 47 41 32 24 22 17 13 10 6 7 8 7 7 9 9 7 7 6 6 5 5 5 5 5
88 84 80 74 63 56 57 59 59 80 99 100 96 90 79 66 54 45 42 38 28 22 18 13 12 8 6 7 8 8 8 11 10 8 7 7 6 5 5 4 4 5 6
73 66 65 65 61 62 71 83 99 100 97 90 80 68 58 48 41 40 37 27 19 14 12 10 7 6 8 9 8 11 14 11 9 8 8 7 6 5 5 5 6 6 7
65 65 69 74 79 84 96 99 98 87 80 72 63 56 47 44 41 33 24 17 13 11 7 6 7 8 9 9 14 15 12 10 9 8 8 7 7 7 7 7 7 7 11
88 85 87 94 100 100 96 85 80 78 69 64 55 47 42 39 30 22 17 13 9 7 6 8 8 9 10 16 16 13 11 10 9 10 8 8 9 8 8 8 10 14 16
100 100 99 94 89 85 79 74 70 66 62 53 46 41 34 25 20 16 12 9 7 6 8 8 9 12 17 16 14 12 10 10 9 11 9 10 11 10 10 11 14 14 14
96 92 90 87 80 70 66 63 61 60 54 47 41 30 23 18 14 12 8 7 7 8 8 8 11 17 18 13 12 10 11 11 11 11 11 13 14 14 15 14 14 15 17
90 86 80 76 70 63 61 57 59 56 48 38 29 23 18 12 10 7 7 8 9 8 9 10 16 18 15 12 10 11 12 13 12 10 10 14 16 16 16 17 16 20 18
79 71 71 68 63 61 56 59 56 48 39 30 22 16 11 8 6 7 8 8 9 9 10 16 18 16 14 10 10 12 13 14 15 12 13 17 18 18 19 19 18 22 21
68 68 65 62 59 55 56 56 50 40 32 24 16 10 7 6 8 8 8 10 10 12 16 18 17 14 12 10 11 13 14 15 15 12 14 17 20 19 18 20 23 23 23

GFSGL_250_rhum_021.txt.gz
RH
44 51 71 82 84 73 76 98 99 93 82 81 86 99 91 83 85 82 66 66 69 68 67 75 73 69 70 71 78 75 56 42 37 38 36 41 43 41 41 39 34 29 26
29 31 46 63 66 75 77 99 95 97 95 85 98 100 93 96 95 86 71 80 77 77 82 83 79 78 65 55 60 58 52 43 33 30 32 31 31 32 28 27 26 24 20
26 35 38 44 57 78 93 94 100 89 77 100 100 100 100 99 97 83 71 70 80 84 87 84 80 75 68 56 51 44 43 42 37 32 31 28 27 27 27 25 22 20 26
20 34 36 44 64 74 74 76 80 93 100 100 100 100 97 96 91 81 75 78 79 70 71 71 70 71 73 70 64 47 35 32 32 30 28 26 24 22 20 24 30 25 24
18 32 46 52 58 65 75 96 99 100 100 100 100 100 100 94 86 88 90 82 79 74 66 70 70 72 61 52 46 43 38 32 29 28 27 25 26 30 29 27 20 20 28
26 39 61 70 81 79 91 100 100 100 100 100 100 99 95 94 84 78 98 86 77 75 79 69 58 56 56 54 49 41 36 29 24 24 29 30 27 19 17 18 26 24 29
44 58 70 81 81 100 100 100 100 100 100 100 98 81 66 74 86 91 80 81 87 80 69 69 78 72 69 63 56 47 40 32 26 23 20 18 16 19 26 27 25 22 17
50 65 80 95 100 100 100 100 100 100 93 85 88 63 63 90 82 88 84 79 74 77 80 83 81 80 68 55 44 38 31 25 22 20 19 22 26 25 21 19 16 13 8
80 91 100 100 100 100 100 100 100 100 100 100 80 75 87 92 82 86 86 83 86 89 86 68 58 53 46 35 29 30 29 28 32 29 26 26 24 19 15 13 8 6 4
100 100 100 100 100 100 100 100 100 97 73 59 68 84 89 94 93 89 99 91 78 74 67 54 44 39 36 34 30 36 44 40 36 34 27 23 18 12 8 5 4 4 4
100 100 100 100 97 100 100 82 58 58 68 77 90 100 100 94 100 92 87 75 65 55 48 44 39 36 38 46 50 46 42 38 33 27 23 16 9 6 4 4 4 4 4
100 100 90 100 99 65 82 96 98 88 93 100 100 100 100 93 86 76 66 55 49 48 48 50 62 66 66 59 48 41 34 30 24 17 11 8 5 4 4 4 4 5 4
98 88 80 78 76 92 98 100 100 100 100 100 100 90 86 78 67 57 52 52 59 71 79 76 71 66 54 42 33 31 25 16 12 9 6 5 5 4 5 6 5 4 4
97 100 100 100 100 100 100 100 100 100 93 85 82 78 71 61 56 57 75 87 84 80 73 66 52 42 34 31 26 16 12 10 7 5 5 5 5 7 6 5 6 5 4
97 94 97 100 100 100 100 95 80 80 78 76 70 64 56 59 80 93 90 83 73 66 57 48 40 33 29 18 13 11 7 6 6 6 5 7 8 6 5 6 6 5 5
100 99 97 90 80 76 77 77 80 78 69 68 64 68 90 100 97 83 70 61 58 49 42 37 31 23 15 13 8 6 6 6 7 6 8 8 7 6 6 6 5 4 4
95 88 82 79 82 82 80 75 70 69 72 76 89 93 89 74 70 66 62 52 42 39 35 25 18 15 12 7 6 7 7 7 7 10 9 8 8 7 6 6 6 6 6
77 75 75 77 78 76 72 74 82 88 87 94 94 77 68 63 56 53 46 40 37 29 20 16 14 10 7 6 8 8 7 9 10 10 9 9 8 7 7 7 7 7 7
91 97 100 100 100 100 100 98 93 93 91 81 72 63 56 50 45 41 37 33 23 16 14 12 8 6 7 9 8 8 11 11 11 10 10 10 8 9 10 9 9 8 13
100 100 100 100 100 99 96 92 86 81 76 66 60 52 47 42 37 32 25 17 14 12 9 7 6 8 9 9 9 13 11 12 11 11 11 10 10 11 10 10 12 15 16
97 94 95 95 91 85 79 77 75 70 61 54 47 44 41 38 30 20 16 13 10 7 6 6 8 9 10 11 12 12 11 10 13 12 11 10 12 12 11 12 15 15 17
93 91 88 83 78 72 70 70 64 58 55 47 42 42 35 24 18 14 11 7 6 6 7 9 9 10 13 15 13 13 11 11 13 13 11 11 13 13 12 14 18 20 19
88 86 85 79 73 71 70 64 60 58 46 44 44 39 25 18 13 10 6 6 7 8 8 10 10 13 15 13 11 11 11 12 13 13 11 11 13 14 15 15 19 21 22
79 76 75 72 71 68 64 58 54 46 45 45 39 24 17 14 9 6 6 8 8 9 10 11 14 16 13 12 12 11 11 12 13 13 11 11 13 15 16 16 22 23 24
82 83 78 74 70 68 57 53 46 46 46 43 28 19 15 10 7 7 9 9 10 10 12 15 17 15 13 12 11 11 12 11 13 14 12 11 13 16 16 19 23 25 23
89 82 75 75 72 60 55 51 50 47 43 33 24 16 12 8 8 10 10 10 12 13 16 17 16 14 12 12 12 12 12 12 14 15 13 12 13 16 17 23 25 26 24

GFSGL_250_rhum_024.txt.gz
RH
32 33 38 40 44 52 56 62 68 99 100 100 96 100 99 99 90 97 86 86 98 90 92 76 72 68 65 58 57 65 65 62 63 61 57 60 65 60 55 50 49 47 40
20 22 21 22 32 43 54 68 84 100 100 100 100 100 98 97 100 98 85 91 99 95 84 76 71 70 71 79 77 66 68 68 66 58 60 64 62 60 52 43 37 34 32
10 13 18 23 26 32 48 56 76 100 100 100 100 100 100 100 94 86 97 100 94 84 82 74 74 74 72 72 76 73 71 72 67 60 53 49 50 48 45 40 35 33 31
6 8 8 13 17 24 35 54 80 94 100 96 91 100 99 100 100 100 100 100 86 87 80 76 83 79 85 92 74 71 64 62 61 64 61 56 51 42 36 31 37 28 25
5 7 11 11 14 22 35 54 75 85 98 100 100 100 100 100 100 100 100 77 84 69 70 80 100 100 90 74 73 72 72 75 69 58 50 42 35 33 28 25 22 23 23
11 12 13 15 20 31 60 76 80 97 91 100 100 100 100 100 100 100 84 73 65 58 67 79 87 83 72 68 69 73 70 61 51 37 34 27 24 23 24 30 34 31 31
17 23 31 35 45 62 70 86 98 100 100 100 100 100 100 100 95 90 77 60 60 66 75 82 93 76 73 78 77 63 52 37 28 25 22 23 31 38 36 34 26 20 17
24 27 39 49 60 79 98 100 100 100 100 88 97 100 98 82 64 42 52 58 73 83 95 99 90 88 83 68 55 43 39 36 39 42 48 48 40 30 21 19 15 12 9
56 52 60 71 92 100 100 100 100 100 100 100 100 97 92 66 72 59 83 99 93 100 100 95 98 84 62 48 46 56 73 69 58 49 38 30 26 20 15 11 8 7 6
100 100 100 100 100 100 100 100 100 100 100 100 82 66 64 71 73 83 90 100 100 100 100 99 75 58 52 60 78 76 66 56 44 35 29 23 18 11 8 7 5 4 4
100 92 96 100 100 90 85 100 100 92 64 61 60 68 70 81 95 100 100 100 100 100 93 64 56 62 82 81 71 56 46 40 34 29 20 13 9 7 5 4 4 4 4
94 84 96 100 100 99 100 79 80 91 82 92 92 98 82 87 100 100 100 100 98 71 60 70 83 87 75 58 46 42 36 31 24 16 12 10 6 4 5 5 4 5 5
95 98 100 100 78 59 56 63 66 84 87 78 82 88 100 100 100 100 100 74 61 76 84 80 68 56 48 42 40 34 28 20 15 12 9 5 5 6 5 7 6 5 4
82 81 79 86 86 76 69 71 79 81 84 98 100 100 100 100 99 78 66 80 85 79 64 54 46 41 40 37 29 23 18 15 12 7 5 6 6 7 9 8 7 6 5
100 98 100 99 100 100 100 100 100 100 100 100 100 100 92 74 73 88 88 81 66 59 51 43 41 39 31 24 20 17 14 10 6 6 7 7 10 10 8 8 7 7 6
96 96 94 90 93 97 99 99 99 98 90 79 73 75 89 96 90 80 70 61 52 45 39 39 37 27 21 19 15 12 8 6 7 7 8 12 10 8 8 8 8 8 7
100 100 100 92 81 73 72 76 82 88 95 97 95 96 87 75 73 60 53 45 40 38 39 33 22 19 16 11 8 6 6 7 7 10 12 10 8 9 9 9 10 9 9
74 69 72 81 92 98 100 98 98 97 91 86 82 75 65 57 52 48 43 41 42 37 24 18 16 11 7 7 6 7 7 8 11 13 9 9 9 10 9 10 11 10 12
76 95 100 95 97 97 90 82 80 78 74 66 60 55 52 50 45 41 45 42 28 18 15 11 8 7 7 8 8 7 8 12 12 10 8 10 11 11 10 13 13 15 14
100 99 98 100 92 86 84 80 76 68 61 58 56 53 49 44 42 44 32 17 14 12 8 6 7 8 8 8 8 9 14 12 10 9 9 13 12 10 12 15 16 14 16
100 100 100 92 84 80 75 67 63 62 60 58 52 48 47 43 43 28 17 14 10 7 6 8 8 9 9 10 12 14 12 11 10 9 11 13 12 11 15 17 15 19 19
87 79 66 62 63 64 63 66 65 61 58 55 48 49 42 47 31 17 13 10 7 7 8 9 9 10 12 14 14 13 11 10 10 12 14 14 12 13 16 18 21 23 20
69 69 74 80 85 85 77 68 62 57 56 50 49 48 50 42 21 14 11 8 8 9 9 10 13 16 15 13 12 11 10 10 11 13 15 14 12 14 18 18 24 23 23
70 65 64 68 73 71 67 61 60 59 54 52 55 55 48 26 15 12 9 8 10 11 11 15 18 18 15 12 11 10 11 11 12 14 16 14 12 16 17 22 26 25 24
70 78 84 80 72 72 72 71 66 60 57 57 62 54 30 17 13 11 9 11 12 13 16 20 20 17 15 13 12 12 12 12 13 14 15 14 13 18 18 26 26 25 27
86 95 98 92 86 81 76 70 64 62 61 61 57 40 20 13 11 10 10 12 13 15 21 22 20 17 17 15 13 13 12 13 13 14 15 15 13 19 21 27 26 28 26

GFSGL_250_rhum_027.txt.gz
RH
31 33 32 34 38 42 48 61 80 90 86 72 68 65 68 93 100 100 100 100 100 100 100 99 94 88 61 75 92 82 86 73 84 93 85 74 74 72 69 65 61 57 56
22 21 24 26 26 29 40 56 61 74 86 80 76 68 81 92 100 100 100 100 100 100 100 100 99 99 100 93 84 78 72 70 72 88 73 74 79 74 67 69 63 57 50
17 19 26 32 31 31 32 36 36 48 73 82 86 78 96 100 100 100 100 100 100 100 100 95 88 100 91 89 69 73 83 69 75 72 71 74 70 63 57 50 45 38 32
11 13 15 18 24 29 32 36 36 39 42 61 66 80 97 100 100 100 100 100 100 100 100 94 90 77 83 80 65 74 74 73 64 60 62 58 53 41 34 31 32 30 33
4 5 6 10 18 23 24 32 43 50 62 52 58 80 99 100 100 100 100 100 100 87 100 100 87 85 63 66 71 78 62 62 61 54 64 48 37 37 33 38 42 43 40
5 5 6 7 8 11 18 25 34 32 38 42 46 71 99 100 100 100 100 100 100 100 100 77 60 56 60 76 66 59 56 65 65 61 52 45 48 48 48 40 34 29 28
8 7 7 10 13 17 21 28 34 40 47 59 93 100 100 100 100 99 99 95 85 95 61 46 53 70 66 74 75 68 72 75 64 57 54 56 49 40 34 30 27 24 20
24 16 19 26 32 38 44 55 66 65 79 95 100 100 100 100 100 100 100 100 82 55 54 65 74 70 74 80 87 82 88 69 66 66 61 49 39 32 26 24 21 17 12
34 30 36 41 56 63 58 99 99 100 100 100 100 100 100 100 100 100 98 94 83 78 65 72 77 84 98 96 96 86 82 76 74 60 48 39 32 26 22 20 14 12 9
57 65 75 83 75 100 100 100 100 100 100 100 88 100 100 100 81 66 75 58 60 54 62 80 89 82 98 100 90 83 83 76 59 47 36 31 28 23 18 14 11 7 5
74 95 99 100 100 89 83 92 100 100 100 95 100 100 99 80 67 62 59 79 72 73 92 90 90 100 99 93 84 86 71 59 48 38 36 32 22 16 12 8 5 6 6
71 72 63 74 90 89 80 68 70 81 77 78 77 70 79 88 80 75 64 64 90 100 95 99 100 96 92 92 80 63 51 42 39 37 31 20 16 11 7 6 6 6 7
81 91 94 92 90 85 91 93 76 78 73 78 81 78 66 69 77 97 96 93 85 98 100 95 100 98 85 71 57 47 40 36 34 25 17 14 8 7 8 7 7 8 7
100 95 97 97 91 91 91 88 87 83 82 78 76 79 88 93 82 77 97 100 100 100 100 97 79 73 60 49 40 36 33 27 20 16 11 7 7 8 7 9 9 8 8
95 100 97 95 100 100 100 94 96 98 95 93 100 100 97 99 100 100 100 100 97 87 79 64 55 48 40 35 30 24 17 16 12 8 8 9 8 8 9 11 9 10 9
98 99 98 100 99 97 94 91 93 96 99 100 100 100 100 100 100 100 92 74 63 56 50 46 42 34 26 20 16 15 11 8 8 8 9 9 9 12 10 9 10 10 9
94 94 87 81 78 76 87 98 99 98 100 100 100 100 97 86 77 67 60 54 50 46 44 38 25 18 14 12 10 7 7 8 8 9 10 12 11 11 9 10 10 9 10
81 71 66 79 89 96 96 97 100 99 94 91 88 83 73 65 63 61 55 45 43 46 33 19 16 12 10 7 7 8 8 9 10 12 14 12 10 8 9 10 9 10 10
70 69 85 100 100 100 100 97 89 82 78 74 68 67 64 62 58 51 44 48 44 25 17 13 11 8 8 8 8 8 9 12 12 14 11 9 9 8 10 10 10 13 13
70 89 100 99 95 85 71 67 68 73 78 80 75 69 59 53 51 49 47 40 24 15 12 10 8 9 9 8 8 12 14 14 13 12 9 9 9 10 10 9 12 13 12
87 80 84 80 74 68 69 74 74 72 69 63 58 54 54 56 52 50 36 22 14 11 9 7 8 9 9 10 14 16 14 13 12 11 10 9 9 11 11 12 14 12 18
100 100 82 77 74 76 80 77 72 66 58 55 54 58 62 56 56 40 23 15 11 10 8 7 10 10 12 15 17 16 14 12 12 11 10 10 11 13 12 13 14 20 23
96 86 83 81 78 77 72 67 62 59 60 58 59 65 63 63 52 27 16 12 10 8 7 9 11 11 16 18 16 15 13 11 11 10 11 10 13 13 13 14 17 22 23
95 93 90 83 80 72 66 64 62 63 63 60 67 67 66 59 38 19 13 10 9 8 8 11 12 14 20 19 16 15 13 11 11 11 11 11 15 14 14 15 23 23 24
100 97 91 83 72 68 66 66 64 64 70 71 70 66 63 51 26 16 11 10 8 7 10 12 14 18 20 19 18 16 12 11 11 12 11 12 15 14 15 19 23 25 21
96 91 84 78 71 68 69 67 72 77 75 68 64 60 51 32 19 13 10 9 7 8 12 13 16 20 19 17 17 14 12 11 11 12 11 13 15 14 16 22 26 22 13

GFSGL_250_rhum_030.txt.gz
RH
25 23 23 25 26 27 29 30 30 35 52 76 81 87 94 100 100 100 99 100 100 100 100 100 100 100 100 100 100 100 97 83 85 85 73 71 84 78 75 75 75 66 62
18 18 19 20 21 20 22 28 36 50 58 76 93 89 96 100 100 100 100 100 100 100 100 100 100 100 100 100 100 100 100 70 65 60 59 66 74 75 90 69 62 50 39
15 13 11 13 15 16 20 26 29 33 38 57 88 100 100 100 100 100 100 100 100 100 100 100 100 100 100 100 100 90 82 71 48 61 72 66 76 81 59 50 49 40 36
6 5 4 5 6 8 14 21 28 32 36 39 46 55 68 92 99 100 100 100 100 100 100 100 100 100 99 100 97 63 68 53 61 60 69 66 66 51 45 44 43 45 49
5 2 2 2 3 5 10 14 21 28 36 43 53 60 66 65 81 92 77 75 92 100 100 100 100 100 100 97 85 76 59 62 67 72 71 65 47 38 43 43 48 51 56
10 5 4 4 4 4 6 12 19 26 35 47 56 64 83 100 100 85 76 87 100 100 100 100 100 100 90 83 74 54 52 54 58 69 74 60 54 58 54 57 53 48 48
16 9 6 6 6 7 9 12 15 23 35 62 80 88 94 85 73 91 100 100 100 100 100 100 100 91 72 53 42 44 48 55 66 69 74 66 61 61 60 56 57 51 48
34 21 13 12 11 10 14 18 25 32 39 49 59 66 78 92 100 100 100 100 100 100 92 63 75 71 66 53 53 59 70 72 72 83 78 63 63 60 53 58 54 53 41
50 52 34 28 40 30 35 48 50 64 94 97 100 100 100 100 100 100 100 100 94 81 93 97 95 67 59 58 54 65 74 81 84 78 63 66 66 61 57 54 49 39 35
60 35 52 48 40 44 55 85 100 100 97 100 100 100 100 100 100 77 61 64 62 73 82 83 68 70 76 87 82 90 91 88 77 68 63 62 60 56 52 42 37 32 19
59 55 43 44 46 49 49 62 92 85 70 71 86 84 83 90 87 80 78 73 76 82 89 87 88 98 100 98 98 90 76 68 65 62 63 57 52 45 39 32 22 14 9
75 74 70 70 72 70 68 68 58 57 59 57 58 58 58 56 60 60 68 84 97 98 100 100 96 96 94 74 65 64 63 66 68 61 52 46 38 35 22 15 10 8 7
93 100 95 86 82 88 91 82 83 81 79 79 84 87 95 98 98 94 91 96 98 99 100 99 80 77 71 64 63 73 68 57 51 43 37 35 25 14 10 8 8 8 7
86 83 96 100 100 100 100 99 100 99 98 97 95 89 94 93 98 100 100 100 98 94 88 77 80 83 78 71 62 56 46 38 35 31 18 14 11 8 8 9 8 8 10
84 94 98 99 100 100 99 100 100 100 100 100 100 100 98 100 100 99 98 92 95 94 92 88 76 65 57 54 46 39 34 28 16 12 9 8 8 9 8 9 11 10 9
92 90 89 82 80 80 85 88 86 89 94 95 98 99 100 100 100 100 100 98 93 80 69 63 58 53 47 42 36 24 16 11 9 8 9 9 9 10 11 11 9 8 8
90 83 76 76 76 81 97 99 98 92 84 83 87 94 97 98 94 86 78 72 74 70 63 57 49 44 36 25 15 12 10 8 9 9 10 12 13 11 10 10 9 9 9
77 79 71 72 77 82 88 89 87 83 78 76 76 77 79 81 81 77 72 71 68 62 56 47 37 28 17 12 9 8 8 10 12 14 15 13 11 10 9 9 9 10 9
85 79 76 73 75 81 80 80 80 82 84 84 78 72 70 69 70 68 69 65 58 49 39 30 20 12 10 9 7 8 11 14 16 16 13 11 10 10 8 9 10 11 10
92 88 88 91 94 95 97 90 81 76 73 66 63 63 61 62 69 61 55 53 44 32 23 15 10 9 9 7 9 11 14 17 17 15 12 10 9 9 9 9 11 9 11
89 93 94 100 100 100 91 89 82 74 68 61 61 58 59 62 57 55 50 36 26 18 12 10 9 8 7 8 11 14 18 19 17 15 13 10 9 9 10 12 11 13 14
96 100 100 100 100 96 92 85 79 73 65 59 58 59 58 56 54 43 31 22 14 10 10 9 8 7 8 10 12 17 19 18 15 13 12 10 9 10 11 12 12 14 23
100 100 99 100 100 92 86 82 79 70 64 59 59 59 58 55 41 28 17 12 10 9 9 8 8 7 9 11 13 18 18 17 13 12 10 10 10 10 12 12 14 23 24
100 100 100 98 94 97 92 82 73 66 60 58 59 62 62 49 33 21 13 10 9 9 9 8 7 9 11 11 16 18 17 15 12 10 10 9 9 11 13 15 21 23 21
100 100 100 98 99 95 84 74 66 61 61 62 67 66 55 42 28 21 11 9 9 9 8 7 8 10 11 14 17 18 16 13 10 9 9 9 10 12 13 17 23 21 14
100 100 100 96 97 92 79 66 62 63 65 72 66 60 48 38 31 19 9 9 9 9 7 8 11 12 14 17 17 15 13 10 9 9 8 9 11 14 14 19 23 14 16

GFSGL_250_rhum_033.txt.gz
RH
31 26 23 20 19 19 19 20 22 22 26 34 44 50 54 57 62 70 93 100 100 100 100 100 100 100 100 100 100 100 100 100 100 100 100 98 98 84 88 56 52 57 66
28 26 25 22 17 16 15 14 15 18 25 27 34 45 59 68 70 75 77 89 100 100 100 100 100 100 100 100 100 100 100 100 100 100 100 96 80 62 64 57 62 55 59
32 32 30 25 24 20 16 9 6 10 14 24 32 38 43 50 82 100 100 100 100 100 100 100 100 100 100 100 100 100 92 100 100 100 100 99 73 58 60 50 51 56 59
28 18 13 11 9 7 6 4 3 4 6 16 32 44 49 53 53 60 92 100 100 100 100 100 100 100 100 100 94 87 100 100 100 100 96 73 77 67 46 50 56 59 63
36 22 16 13 8 6 4 3 2 3 4 8 20 39 45 57 64 62 62 65 78 88 100 97 100 95 81 94 89 100 100 100 99 94 72 60 52 53 54 54 60 59 54
42 31 19 13 8 6 6 4 4 4 4 8 16 31 51 64 74 77 74 82 76 92 100 90 77 85 96 98 100 100 100 100 74 64 65 54 50 61 61 51 53 52 56
54 44 34 22 15 10 6 5 5 6 8 12 19 26 48 71 85 91 96 100 99 84 94 100 100 100 100 100 100 100 95 80 75 63 57 61 66 66 57 61 57 53 58
67 58 44 37 28 18 16 12 10 12 15 18 26 33 45 67 89 88 76 81 95 100 100 100 100 100 100 100 93 88 75 70 59 66 72 82 69 59 59 57 62 60 52
70 74 65 53 42 34 33 28 24 20 22 40 43 69 90 98 98 95 99 100 100 100 100 100 100 100 97 83 74 53 63 69 83 88 74 58 54 56 62 66 59 54 51
83 80 75 69 62 52 55 47 55 54 44 42 44 52 71 78 92 97 92 86 66 61 77 77 87 91 85 63 70 98 98 94 78 61 56 64 67 70 64 54 47 42 39
89 85 81 85 77 69 64 60 71 65 63 60 62 58 59 65 67 61 64 61 66 74 87 89 87 67 73 75 74 76 80 81 73 69 69 67 63 52 44 43 41 37 30
97 100 92 79 75 87 90 84 83 85 87 88 73 82 90 87 88 87 88 90 93 100 91 82 84 85 87 89 87 81 75 68 65 67 57 45 42 41 41 37 26 12 9
88 87 91 95 93 95 96 98 98 92 93 92 92 90 94 98 100 100 100 100 100 100 99 97 91 91 89 84 83 87 81 60 46 42 43 40 39 37 22 12 9 8 8
77 79 80 81 81 93 96 96 97 98 95 93 97 100 100 100 100 98 100 100 100 98 96 97 100 100 99 84 75 58 49 47 42 39 37 34 20 11 9 8 8 8 9
84 87 83 87 83 79 74 73 85 96 100 100 100 98 98 99 98 98 99 99 97 94 87 84 84 88 81 71 58 47 39 39 37 31 20 12 10 8 8 10 12 12 11
90 90 88 80 73 69 66 71 77 81 82 86 91 88 78 75 76 77 80 81 79 77 75 74 70 65 58 49 42 40 35 29 21 12 10 8 7 9 10 13 11 10 10
94 86 80 76 67 68 68 71 76 80 80 77 75 75 77 79 75 73 71 67 63 61 62 58 53 48 44 39 33 28 21 13 10 8 7 7 9 12 13 12 9 9 8
93 86 84 82 84 89 86 82 78 75 80 86 85 80 78 78 71 63 58 57 60 59 54 48 42 38 32 23 16 12 10 9 8 6 8 10 13 14 13 12 10 10 9
97 90 91 93 94 90 93 96 89 87 91 83 79 77 76 74 65 57 59 59 55 48 42 36 29 21 13 10 10 9 8 7 7 9 11 16 18 16 14 12 10 10 11
98 99 100 96 99 100 100 100 92 86 84 80 73 71 67 62 58 60 59 56 46 38 32 22 15 11 9 8 8 8 7 7 10 11 16 19 18 14 11 10 10 10 12
100 100 100 100 100 100 98 94 92 87 77 70 70 70 62 60 62 62 62 48 37 33 24 15 10 8 8 8 7 6 8 10 10 14 17 17 16 11 10 10 10 12 12
100 100 100 100 98 95 95 93 91 82 78 75 71 70 63 64 64 63 52 42 40 33 17 10 8 8 8 7 6 8 11 11 15 16 15 14 12 10 10 10 11 13 15
100 100 99 99 100 94 88 92 91 84 80 77 74 67 67 67 64 58 46 41 34 19 12 8 8 8 7 7 9 10 11 14 16 15 12 10 10 9 10 10 13 14 20
100 100 96 100 97 90 90 95 90 90 86 78 72 68 71 69 62 51 41 39 23 15 9 8 8 7 8 10 11 12 15 16 15 12 9 8 8 10 10 12 14 20 22
100 94 98 100 96 92 95 94 91 87 80 78 74 74 69 66 54 45 44 27 18 11 8 8 8 9 11 12 14 16 16 15 13 11 8 7 10 10 11 14 18 23 15
97 97 96 95 95 99 99 96 92 82 82 81 77 70 65 60 46 48 36 23 15 9 8 8 9 11 13 16 17 16 15 13 11 8 7 9 11 10 12 16 22 14 17

GFSGL_250_rhum_036.txt.gz
RH
54 47 39 38 33 24 21 20 20 20 20 22 26 31 40 52 60 69 80 82 97 100 100 100 100 100 100 100 100 100 100 100 100 94 100 100 100 100 83 65 71 66 59
40 37 28 28 27 26 23 22 21 23 20 17 20 26 31 34 35 39 49 70 91 95 98 100 100 100 100 100 100 100 100 100 100 96 100 100 100 100 100 100 100 93 82
34 33 32 33 36 32 27 26 21 16 12 12 12 13 16 24 34 44 45 46 50 62 73 80 100 100 100 100 100 100 100 100 100 100 100 92 85 92 98 97 100 75 61
34 43 54 44 29 25 24 19 11 8 8 8 8 10 12 14 18 37 56 61 55 54 54 70 97 100 100 100 100 100 100 100 100 100 100 100 98 91 98 93 91 77 61
48 56 52 37 41 37 27 16 8 7 6 5 6 7 8 10 14 23 34 52 66 69 64 64 72 80 99 100 100 100 100 100 100 88 86 80 99 86 100 92 83 64 66
62 51 66 69 55 56 35 18 10 7 5 5 4 4 4 6 8 15 31 52 68 88 87 81 79 82 88 83 92 86 81 82 86 85 91 100 88 78 83 66 54 59 61
66 68 98 85 69 59 47 29 26 15 10 8 7 6 6 8 11 23 39 58 88 100 100 98 100 91 89 96 88 93 99 95 83 83 97 81 71 63 67 56 55 60 60
88 83 86 87 81 67 54 42 32 32 26 28 19 18 19 20 21 32 59 98 100 100 99 98 86 84 83 97 99 92 80 70 76 73 64 65 68 71 70 71 69 70 63
73 93 91 86 72 70 64 56 53 46 41 36 35 36 38 40 47 63 66 71 72 83 92 98 100 90 82 89 74 74 68 66 69 69 75 76 80 76 68 62 63 54 52
75 96 82 79 80 70 67 66 72 69 61 60 57 61 60 56 55 57 62 67 76 78 77 77 76 78 78 74 79 76 82 82 81 80 81 81 74 67 56 47 43 47 49
80 82 84 74 74 69 69 77 82 80 87 83 81 83 87 85 81 87 88 87 83 83 84 83 82 77 76 81 89 97 97 93 90 91 85 72 63 51 44 44 42 38 35
76 73 72 69 71 73 75 72 71 73 75 75 78 80 82 86 94 96 93 93 96 98 100 100 100 100 100 100 100 100 100 100 95 77 58 45 40 39 37 34 33 32 28
71 75 71 70 68 81 79 67 65 66 74 81 87 91 97 98 99 100 100 100 100 100 100 100 100 100 100 97 97 85 74 61 50 45 41 38 37 36 35 30 25 16 10
76 71 72 72 76 75 70 71 69 72 81 91 92 94 92 86 86 86 87 89 90 84 78 80 81 79 75 69 64 58 52 48 43 37 36 34 29 23 15 11 10 9 8
70 74 75 79 81 74 67 64 66 69 69 68 70 74 78 82 85 84 81 78 79 79 77 72 67 62 59 54 50 45 42 37 32 24 16 14 10 10 10 9 8 7 8
78 81 83 85 78 75 68 74 76 75 78 76 75 80 84 83 81 82 81 81 80 76 68 62 57 53 51 46 41 34 26 20 16 12 10 9 8 8 8 7 8 10 13
88 91 91 86 78 80 83 90 86 86 88 88 87 88 87 86 80 74 72 76 73 64 62 58 54 47 42 35 30 25 21 14 9 8 8 8 8 6 7 9 13 16 15
94 94 92 92 92 87 94 96 94 92 91 96 92 87 81 78 74 74 77 78 71 64 63 55 47 39 37 31 25 17 11 8 7 8 8 7 6 8 10 14 15 14 14
100 100 100 99 100 100 100 100 99 94 96 97 90 84 77 73 75 83 84 73 68 65 58 48 38 40 37 26 15 10 7 7 7 6 7 9 10 10 15 16 14 14 14
97 100 100 100 100 100 100 100 98 98 100 96 86 78 75 78 83 89 82 75 68 62 51 40 44 40 23 13 9 8 7 7 6 8 10 10 12 16 16 14 12 13 12
99 100 100 100 100 100 100 100 100 99 95 87 86 81 81 79 88 87 80 72 65 56 44 45 44 24 14 9 8 7 7 8 10 11 11 14 16 16 14 12 11 12 11
99 99 98 96 99 100 100 100 100 97 88 92 92 87 83 88 89 84 79 69 63 47 48 49 29 16 10 8 8 7 9 12 14 15 15 15 15 14 12 10 11 11 12
99 100 100 100 99 100 100 100 97 89 94 96 90 86 87 91 87 84 76 67 55 44 51 33 17 11 9 8 9 11 12 15 17 17 16 13 11 11 10 10 10 11 13
98 100 100 100 100 100 100 99 94 96 96 97 90 86 89 91 85 82 73 65 45 53 42 22 12 9 9 12 14 15 16 16 15 14 13 11 9 9 10 10 11 13 15
94 93 93 91 90 94 97 98 99 100 100 94 88 90 92 86 86 77 73 51 52 50 29 16 10 9 13 15 15 15 15 14 12 11 10 9 8 10 10 11 13 15 20
96 95 95 93 95 100 100 100 100 98 92 91 94 94 89 84 80 75 63 50 51 40 22 13 9 14 14 12 11 11 10 9 9 9 8 8 9 10 12 13 14 20 13

GFSGL_250_rhum_039.txt.gz
RH
76 88 87 82 73 65 58 45 38 30 28 32 33 31 32 35 36 42 46 44 45 47 52 63 69 85 100 100 100 100 100 100 100 100 96 100 100 100 100 100 100 100 100
96 79 58 54 50 43 37 28 27 26 34 38 34 27 25 26 25 23 24 29 36 46 52 62 57 58 73 99 100 100 100 100 100 100 100 100 100 100 100 100 100 100 100
67 55 47 42 38 32 30 28 37 48 50 44 32 21 14 15 13 14 16 19 26 34 43 58 65 65 57 59 70 100 100 100 100 100 100 100 100 100 96 90 91 88 84
48 38 39 34 35 34 38 47 50 48 37 30 19 12 9 8 9 8 11 16 21 28 32 39 59 72 85 75 65 64 79 97 100 99 100 100 100 100 100 100 93 83 83
41 39 47 36 39 54 52 53 49 42 37 29 20 10 6 5 5 5 7 10 13 19 26 33 44 64 92 97 96 88 72 73 81 86 86 98 94 76 65 69 69 70 80
43 38 36 46 53 66 57 55 51 51 43 31 22 13 7 5 5 5 5 7 9 15 23 32 42 60 100 100 100 100 94 76 70 77 91 82 80 100 81 84 74 72 65
44 48 56 66 71 62 56 59 55 52 41 32 32 26 20 15 15 13 12 14 15 18 24 34 48 75 100 100 100 100 100 88 82 78 76 75 77 86 76 72 76 71 67
54 59 60 71 71 79 68 62 56 49 44 46 42 33 37 29 22 27 36 39 39 42 61 77 90 98 97 97 100 98 91 97 95 88 89 87 77 82 82 84 83 76 65
60 62 68 75 72 73 65 58 50 48 52 57 57 55 46 42 46 51 58 64 80 83 93 96 98 97 91 88 84 91 92 86 79 86 84 83 81 84 87 76 63 57 49
66 69 71 71 72 73 67 57 55 59 63 64 62 64 59 59 56 55 62 66 63 67 70 71 73 74 78 85 86 86 84 92 98 95 97 96 86 81 73 57 49 47 46
69 70 65 68 70 70 69 67 63 66 62 58 65 68 65 62 64 66 70 74 82 92 93 91 92 95 96 99 100 100 100 100 97 94 83 69 60 53 49 45 42 38 35
68 75 73 70 68 72 70 68 66 65 57 54 55 57 59 62 65 68 72 73 72 75 80 85 91 92 90 87 85 87 90 87 76 66 61 55 50 48 43 37 35 32 25
70 71 70 68 66 68 69 66 66 57 57 59 59 62 63 62 63 66 72 79 87 91 90 90 92 92 90 88 82 77 66 58 56 53 51 47 41 34 27 24 19 14 9
63 59 56 61 62 68 70 68 62 62 67 65 66 67 67 71 78 85 88 88 86 84 83 82 80 77 74 71 63 57 56 54 48 40 32 23 19 19 16 11 8 8 7
60 60 63 66 69 72 74 73 68 68 69 74 76 82 86 92 93 91 90 88 85 84 83 84 85 82 75 65 60 57 50 38 32 29 26 20 13 9 7 7 7 8 7
62 63 66 70 74 77 79 79 79 81 83 86 80 79 86 90 89 86 86 86 86 88 89 88 82 77 70 62 54 46 40 40 36 24 13 10 7 7 7 7 7 7 7
61 72 72 78 80 86 90 88 92 92 88 88 79 80 92 95 90 91 89 85 84 87 90 86 81 75 63 58 50 47 45 34 19 12 8 7 7 6 6 6 7 10 10
64 76 86 93 93 96 100 100 100 96 90 90 88 89 94 91 89 87 86 89 92 89 90 86 76 66 61 53 51 48 34 16 11 8 8 7 6 7 8 10 10 12 16
70 78 90 100 100 100 100 100 100 100 99 100 97 93 90 90 91 93 90 93 95 92 93 81 70 61 58 52 50 35 16 11 9 8 7 8 9 10 10 12 14 16 16
76 83 93 96 99 99 99 98 100 100 100 99 96 94 92 92 98 97 94 95 89 92 89 75 64 59 55 52 40 17 11 9 8 9 10 12 12 13 15 14 14 13 11
66 79 89 96 96 96 96 99 100 100 100 100 99 94 93 99 100 93 92 85 91 91 81 68 59 60 55 49 21 12 9 11 12 13 14 14 15 15 16 14 12 10 8
73 69 76 88 94 94 98 100 99 100 98 94 94 98 100 99 94 87 85 89 92 83 75 63 59 56 57 32 13 10 11 12 12 13 14 14 14 15 14 12 10 8 8
80 76 74 74 80 85 87 88 92 98 97 96 100 100 96 93 88 88 92 90 84 78 70 61 54 57 48 18 10 13 12 10 10 11 12 12 12 12 10 8 7 8 10
94 86 77 78 81 82 85 96 100 97 98 99 94 93 95 95 95 92 90 82 79 78 69 58 51 55 26 12 12 14 11 10 9 9 9 8 8 8 7 7 10 11 11
100 98 94 92 95 91 86 89 91 98 96 93 95 100 97 90 90 87 82 77 84 80 64 50 55 37 16 10 14 11 10 9 9 8 6 6 6 7 9 10 11 12 16
100 100 100 100 94 90 92 90 89 93 95 93 95 92 91 91 90 83 76 86 87 73 48 56 50 23 12 12 13 11 10 9 8 8 7 7 9 10 11 12 14 15 14

GFSGL_250_rhum_042.txt.gz
RH
73 67 56 57 72 71 75 78 91 100 85 68 44 41 33 30 34 32 33 23 26 26 29 29 33 38 40 48 62 61 66 67 72 100 100 100 100 100 100 100 100 100 100
66 66 78 86 83 92 83 83 82 65 46 38 32 31 31 34 37 41 28 22 17 16 15 18 26 32 37 41 47 68 78 90 73 92 100 100 100 100 100 100 100 100 100
94 100 99 89 78 76 80 69 46 39 33 30 32 36 40 43 39 29 18 11 9 7 6 7 12 18 29 35 44 56 74 81 92 79 98 100 100 100 100 100 100 100 100
100 100 91 79 74 68 49 35 34 31 32 34 44 47 47 41 32 24 16 11 7 5 5 6 10 16 24 33 52 71 83 91 92 99 93 79 79 99 100 100 100 100 100
93 81 72 68 45 37 37 32 33 35 46 49 55 51 42 40 34 25 19 11 8 6 5 6 10 13 18 25 43 76 94 100 98 95 100 100 100 98 99 100 99 84 86
67 57 41 40 41 36 33 39 48 50 54 56 51 53 50 39 33 36 32 24 17 13 10 11 12 14 20 28 43 63 96 93 98 96 100 100 100 100 99 100 100 96 80
52 44 43 35 34 32 41 56 56 57 55 48 54 52 48 44 42 41 37 36 36 34 33 33 31 24 31 40 54 72 83 86 83 92 92 96 98 100 95 97 91 92 87
53 47 41 36 36 50 54 56 62 61 50 61 57 48 43 43 51 49 43 40 37 38 43 43 55 66 70 75 75 79 84 90 100 100 100 100 100 96 91 83 74 66 57
61 49 42 46 48 55 54 59 56 52 60 68 62 53 47 48 50 48 50 53 54 55 57 57 58 62 66 68 77 90 98 96 94 90 86 80 70 64 62 58 54 53 50
54 46 52 47 53 57 53 52 58 62 67 68 63 53 49 49 52 55 55 58 60 62 64 66 71 74 77 79 84 86 86 87 86 83 78 72 70 73 72 68 61 57 56
50 49 51 47 57 61 55 56 58 63 62 64 56 52 50 52 57 57 58 59 64 67 70 72 77 79 81 81 82 82 79 77 78 78 77 75 75 72 69 65 64 59 51
49 50 47 51 55 59 59 59 60 66 68 67 56 59 60 63 67 68 70 73 75 78 79 82 82 82 87 90 89 90 93 92 87 82 78 75 70 64 57 49 40 32 28
49 48 46 52 52 51 56 60 61 68 70 72 62 64 69 74 74 72 76 79 81 83 87 91 93 94 93 92 89 84 80 75 74 72 64 57 47 39 37 34 30 24 14
52 52 48 47 54 57 61 63 66 72 75 75 66 71 74 75 73 76 80 83 86 87 93 91 88 85 83 79 73 74 73 70 68 60 49 44 43 39 28 16 11 10 8
55 55 49 45 59 63 71 73 73 78 81 80 75 81 81 79 81 87 92 91 89 87 87 88 88 86 82 74 67 68 66 65 58 49 43 41 32 14 10 8 8 7 6
67 58 54 50 62 75 77 86 92 90 90 90 88 89 88 86 87 91 91 90 88 90 90 91 90 83 73 66 65 64 62 58 51 44 39 24 12 9 8 8 8 8 7
69 64 64 59 64 84 88 91 98 99 99 100 99 96 94 98 98 95 92 87 87 89 86 90 85 76 71 65 65 63 58 51 46 39 26 12 9 8 8 9 10 10 10
76 70 62 68 68 68 81 93 100 100 100 99 99 100 100 100 97 94 91 90 96 93 94 92 81 76 69 62 60 56 58 50 44 30 13 9 10 11 11 13 13 12 13
81 80 72 65 68 74 76 87 92 95 96 97 100 100 100 96 97 95 92 97 96 95 95 87 79 72 65 59 53 56 55 47 34 14 10 10 12 12 11 12 14 14 14
81 80 78 74 67 64 67 73 81 92 98 100 98 95 98 97 94 92 94 95 95 91 87 79 72 70 63 54 52 57 49 37 16 10 10 11 9 9 11 12 13 13 11
82 82 80 78 76 71 69 68 72 79 88 91 91 91 90 88 89 89 91 91 92 88 79 78 76 69 56 52 57 56 44 20 11 11 12 9 9 9 10 10 10 10 10
83 84 86 83 75 76 78 73 74 80 84 85 86 85 83 81 82 84 88 92 90 85 84 81 74 61 51 55 56 52 25 11 12 12 9 8 8 8 7 7 8 8 7
91 94 93 94 92 90 89 87 83 82 81 81 83 83 79 77 81 87 92 91 88 89 83 74 62 54 52 54 60 36 13 11 13 10 9 8 7 6 6 6 6 6 7
74 74 75 79 88 97 90 87 90 93 88 90 88 82 78 84 86 89 91 91 95 87 76 64 56 51 47 59 48 17 12 15 11 10 9 9 8 7 7 8 9 10 11
78 84 90 90 85 89 94 96 93 93 96 95 88 85 83 88 92 97 96 93 83 77 70 60 49 43 58 56 27 13 15 13 12 11 10 9 9 10 11 12 12 13 14
95 100 100 100 99 95 94 92 89 91 92 87 86 85 86 93 98 96 93 84 79 74 63 51 44 55 57 38 15 16 15 13 13 12 12 11 12 13 14 14 15 17 23

GFSGL_250_rhum_045.txt.gz
RH
100 100 100 98 86 79 81 75 68 57 55 51 58 83 94 90 72 46 38 32 33 41 32 25 23 19 16 15 17 26 31 39 43 47 54 62 74 100 100 100 100 100 100
100 99 86 82 85 79 73 59 69 71 55 82 93 96 74 56 41 32 35 40 46 36 26 16 14 11 8 7 10 12 20 31 38 54 67 74 81 100 98 96 100 90 100
97 90 90 78 74 67 71 78 72 66 73 84 78 55 44 34 33 40 47 43 40 34 25 16 14 10 7 5 4 7 14 25 32 60 79 88 99 100 92 100 100 98 100
89 74 72 66 80 90 86 91 68 72 73 64 40 37 32 36 47 53 52 42 39 33 32 25 16 12 7 5 4 7 12 20 39 71 98 96 92 100 100 100 100 100 100
76 90 98 100 100 99 92 66 73 70 47 35 31 32 38 48 53 56 53 43 40 38 38 32 26 22 17 10 8 10 15 20 28 51 88 100 100 100 100 100 100 100 100
100 100 100 100 99 81 74 58 49 44 33 31 35 43 49 55 54 54 48 43 39 39 36 33 35 31 33 33 23 27 35 37 47 60 72 87 96 93 92 90 94 97 95
100 100 100 87 81 70 54 47 42 32 33 41 48 52 54 56 56 51 46 44 44 46 43 44 40 39 42 38 41 46 52 60 68 74 84 92 94 96 97 99 91 94 89
100 94 92 77 68 57 53 38 33 40 44 49 52 55 59 59 53 48 45 46 52 52 52 52 50 50 48 42 44 48 51 55 59 61 64 68 71 74 79 76 71 69 67
87 94 78 68 64 49 43 37 38 47 50 54 53 65 61 54 52 50 50 57 60 60 57 54 56 60 61 60 64 68 72 77 80 81 84 87 87 84 86 82 83 81 79
89 89 89 69 47 47 42 43 46 49 54 54 56 61 60 62 55 57 61 65 64 58 59 61 64 68 74 77 77 76 79 83 89 91 91 94 94 91 89 87 86 86 84
100 93 70 60 49 41 44 47 47 48 52 56 57 59 63 62 56 59 65 67 65 64 69 73 76 78 77 78 82 84 83 85 84 85 85 86 83 85 88 84 77 70 63
90 81 68 51 44 43 42 45 44 44 49 56 59 58 60 62 60 60 67 71 73 72 68 70 73 75 79 80 81 82 85 81 79 73 68 69 70 72 66 60 55 46 40
90 76 57 47 44 43 42 43 47 50 50 54 55 61 65 74 74 71 77 83 80 79 81 82 87 87 83 76 72 72 75 72 67 65 68 66 63 58 51 42 40 41 34
83 67 52 51 53 45 45 44 53 57 56 58 63 69 77 82 82 84 86 93 95 90 87 92 91 87 81 77 75 78 76 73 66 62 64 62 54 46 37 39 36 23 12
80 63 61 64 60 54 51 48 55 65 68 69 75 80 85 94 97 99 100 100 100 98 92 97 96 92 85 81 78 77 72 64 61 60 57 53 43 38 40 31 14 9 8
78 61 70 72 68 57 57 57 56 62 76 82 87 91 93 96 100 100 100 100 98 94 99 98 92 86 83 76 75 69 64 58 59 57 51 41 38 36 23 11 9 11 12
80 71 83 75 77 71 62 60 67 69 70 78 84 88 93 100 100 100 100 100 99 95 94 86 85 79 74 75 70 64 57 59 57 51 43 40 33 18 10 9 11 11 10
85 87 88 79 80 79 73 66 63 64 69 75 82 90 96 95 97 100 100 94 87 79 79 76 72 71 71 70 66 58 57 57 51 42 40 31 17 10 10 11 10 9 10
96 95 87 80 82 88 80 72 71 70 67 66 67 70 72 77 82 83 78 76 73 74 71 71 71 72 71 69 62 61 59 50 43 42 34 18 10 11 11 9 9 9 9
100 99 88 85 79 87 85 74 72 74 73 72 70 70 71 74 76 75 76 76 76 76 77 76 75 76 71 64 60 62 47 44 45 37 22 11 12 12 10 9 8 7 6
100 95 94 91 79 78 84 83 80 82 82 85 89 90 89 89 90 88 88 88 88 89 81 78 84 74 62 62 61 49 47 49 42 24 12 12 12 11 10 10 8 7 7
97 97 96 89 81 80 84 85 84 79 74 77 85 87 90 94 97 99 95 91 88 86 84 88 77 68 64 66 56 51 53 48 29 14 13 12 13 11 10 9 8 8 8
96 97 93 85 79 73 74 80 84 90 90 84 83 93 96 93 90 87 95 94 90 90 93 79 65 59 64 60 50 56 54 40 18 16 14 15 14 12 10 10 10 10 11
94 100 97 88 82 79 84 94 100 91 82 82 83 84 87 87 89 94 100 96 93 94 86 67 61 60 63 49 50 55 48 27 19 16 18 17 15 13 13 13 13 13 14
98 98 98 92 90 96 100 100 97 81 81 84 86 90 91 91 98 99 96 94 96 88 70 66 64 66 55 48 53 51 35 20 19 19 19 17 17 16 16 16 18 22 27
100 100 98 97 100 100 100 96 85 82 81 87 98 99 94 100 99 97 97 96 84 72 68 71 69 54 46 48 50 41 22 19 18 20 19 17 18 19 22 27 33 36 40

GFSGL_250_rhum_048.txt.gz
RH
100 100 100 100 100 100 100 100 100 100 100 98 89 70 65 48 30 51 67 80 67 47 36 34 45 48 45 37 25 16 14 12 8 8 12 20 34 57 60 67 70 79 82
100 100 100 100 100 100 100 100 100 100 91 76 71 59 34 30 54 70 65 63 43 32 35 46 45 43 38 32 28 20 16 9 7 5 8 10 14 57 99 100 100 96 98
100 100 100 100 100 100 100 98 93 82 78 60 46 33 43 68 74 56 57 42 34 40 48 45 47 39 37 35 33 26 17 12 6 5 7 12 20 49 100 100 100 100 100
100 100 100 100 100 92 93 88 79 65 48 43 42 60 77 63 50 48 34 34 45 50 46 50 40 38 38 40 37 35 29 22 13 11 15 24 34 51 100 100 100 100 100
91 82 78 82 83 82 76 64 52 63 63 67 78 78 52 50 42 33 39 50 48 49 53 46 41 42 44 45 43 38 36 36 34 29 33 30 42 55 77 87 99 100 100
51 66 83 79 71 60 61 94 100 93 84 83 59 55 46 37 35 44 52 49 48 53 49 46 48 49 54 48 43 42 48 46 43 43 50 55 58 67 74 92 90 88 87
88 86 81 80 100 100 100 98 80 79 59 71 44 43 37 35 44 51 52 51 56 54 50 49 53 53 57 54 51 48 45 48 52 58 58 57 56 62 71 75 72 71 76
100 100 100 100 100 100 82 87 86 64 50 46 40 38 39 41 50 55 52 55 60 51 49 54 57 61 60 62 65 66 63 61 62 61 64 65 65 66 68 71 74 78 82
100 100 100 100 100 90 96 78 56 55 49 39 38 40 41 47 55 57 53 58 55 52 55 62 66 66 68 65 66 69 70 70 70 68 67 74 83 91 97 95 93 92 92
100 100 100 100 100 100 92 77 58 47 39 38 38 39 44 51 54 57 54 60 60 55 59 62 65 69 76 81 79 78 74 69 65 62 63 68 72 74 75 76 75 75 72
93 95 100 100 100 98 86 63 47 45 40 42 40 41 44 45 52 55 58 63 65 63 66 68 76 88 96 93 85 78 76 71 67 65 66 70 70 67 66 63 62 63 59
100 100 100 100 96 88 75 54 54 44 42 41 41 42 46 47 54 57 61 64 68 77 81 83 91 95 95 93 86 84 83 76 71 70 71 68 68 65 64 64 59 54 46
98 100 100 98 90 84 68 62 49 45 43 43 44 51 56 57 59 62 68 74 80 86 93 99 100 100 94 87 86 86 78 74 72 67 64 64 63 63 62 54 46 40 38
100 100 97 100 89 77 73 54 53 54 49 52 51 58 63 70 74 79 82 85 94 100 100 100 97 87 89 92 87 76 74 67 65 63 60 60 60 57 48 41 37 38 40
100 100 100 100 80 76 68 56 65 64 59 54 58 60 70 80 85 88 93 98 100 100 100 90 87 92 90 85 80 72 70 70 70 64 60 56 54 43 37 38 40 36 22
100 100 100 92 79 74 71 70 74 76 72 65 61 65 68 71 78 87 89 89 89 86 84 86 86 82 82 80 77 77 77 75 66 56 56 59 45 41 41 39 29 14 10
100 100 100 89 77 77 78 78 81 77 76 74 70 67 64 63 64 64 66 69 72 74 77 78 79 82 90 89 88 88 82 72 58 56 62 50 48 46 40 22 11 12 11
98 98 94 81 78 80 85 85 86 84 78 71 70 67 64 65 67 68 70 76 83 87 93 96 98 98 95 90 91 82 73 64 54 60 57 49 47 41 20 12 12 10 11
82 90 94 88 86 83 84 92 89 89 81 77 73 75 76 74 73 78 87 90 95 98 98 96 91 88 87 94 86 76 74 57 60 60 52 48 41 26 14 13 12 12 12
88 89 93 99 93 91 93 94 92 93 84 79 83 86 80 73 75 79 82 89 91 91 97 94 87 86 96 92 83 83 62 59 64 60 51 43 34 18 16 15 14 12 10
94 96 100 96 93 94 92 94 96 96 91 90 82 77 78 78 78 77 82 84 79 82 88 87 93 100 96 90 88 71 58 65 58 54 46 38 23 19 19 18 16 14 14
100 100 100 93 91 89 90 96 98 98 97 92 86 83 82 78 74 73 78 81 83 89 97 96 100 97 95 88 75 61 64 58 52 48 43 31 18 20 21 18 18 17 17
100 100 100 96 88 85 91 97 97 100 100 97 94 91 83 79 79 79 81 85 90 100 98 100 95 92 86 73 64 66 55 48 46 42 40 20 16 21 21 19 19 21 24
97 98 98 90 85 88 91 89 93 100 100 100 91 83 82 87 88 89 87 90 100 100 100 96 90 80 68 62 56 46 44 45 44 41 26 18 17 20 20 18 22 33 45
96 95 95 93 90 81 78 86 100 100 100 91 86 89 93 100 100 92 93 96 96 96 86 80 72 65 59 49 43 42 43 41 36 25 17 16 16 18 18 22 35 49 58
94 95 96 99 100 96 91 99 100 100 94 89 91 98 100 96 97 98 94 97 94 81 67 59 58 50 42 43 45 40 40 35 24 16 16 16 16 15 18 34 51 60 55

GFSGL_250_rhum_051.txt.gz
RH
96 99 100 100 100 98 100 100 100 100 100 100 100 100 98 96 97 90 89 70 48 35 46 55 60 42 33 30 43 46 42 37 36 37 34 25 18 9 5 6 13 26 38
80 92 100 100 100 100 100 100 96 100 100 94 100 100 100 96 91 71 50 41 36 60 66 62 44 36 36 42 45 45 41 43 41 42 40 32 22 14 8 10 12 21 51
72 85 85 97 100 98 98 100 97 100 100 99 99 94 92 80 49 36 38 38 72 74 59 47 38 40 44 44 48 42 46 43 42 43 43 39 30 25 24 23 29 58 72
39 55 61 85 94 98 99 99 94 97 97 100 90 76 52 42 38 45 60 72 69 56 45 36 41 44 47 52 46 44 47 45 45 46 44 42 47 50 45 42 44 58 73
45 72 86 98 82 78 86 81 90 98 89 68 44 48 40 48 74 69 61 56 48 42 37 40 45 49 55 52 46 47 49 49 50 45 43 44 44 45 51 58 58 54 59
52 69 70 74 67 74 68 82 80 75 55 55 53 58 74 66 68 40 54 41 36 39 41 49 51 52 58 49 49 54 53 50 51 54 53 53 53 46 42 43 54 67 73
44 42 45 46 50 79 78 70 68 74 76 67 79 86 65 57 42 53 37 36 38 42 48 53 51 54 55 54 57 56 56 58 61 66 69 63 58 52 57 56 57 59 64
33 39 46 56 74 79 79 80 81 93 100 99 96 76 58 47 51 38 37 35 38 45 54 54 54 58 61 59 56 59 64 71 75 72 71 64 59 57 60 63 70 76 78
39 47 82 76 80 85 81 98 100 100 100 100 86 62 55 53 42 38 37 39 42 47 56 56 57 61 63 60 60 69 75 79 83 79 69 65 60 56 57 57 59 62 65
85 100 99 86 83 100 100 100 100 100 100 82 75 67 53 44 39 36 39 40 42 46 53 55 57 62 69 72 79 84 89 91 86 76 73 63 59 59 61 63 63 63 62
98 96 93 100 100 100 100 100 98 94 100 90 61 58 46 40 37 39 42 46 50 52 55 57 65 74 81 86 92 94 93 92 85 82 67 64 63 64 66 67 64 56 52
92 100 100 100 100 100 100 96 96 100 88 79 57 55 44 41 43 45 49 56 61 62 68 75 83 86 93 97 93 93 96 93 86 70 68 68 70 70 72 71 55 49 49
86 100 100 100 100 100 100 100 94 94 99 70 58 52 51 50 52 55 55 62 69 78 85 90 96 98 93 89 95 95 90 77 73 75 78 78 74 73 77 61 51 53 45
100 100 100 100 100 100 100 96 100 98 86 70 59 56 70 66 60 59 61 64 69 77 83 86 87 87 84 80 76 75 78 79 82 86 82 79 77 77 67 51 51 49 40
100 100 100 100 100 100 100 99 100 90 77 71 58 69 79 79 73 70 68 66 64 65 68 72 74 75 77 80 82 87 84 83 82 84 86 79 78 72 55 53 51 42 39
100 100 100 100 100 100 100 100 97 93 75 72 69 78 80 81 74 74 70 70 71 74 74 75 76 79 81 85 89 87 89 87 90 89 82 82 73 64 56 56 47 42 34
99 98 100 100 100 100 100 100 100 80 77 76 77 82 87 88 82 76 77 78 80 75 71 73 74 72 74 77 80 85 93 99 92 86 81 73 72 61 63 47 44 37 24
100 100 99 100 100 98 96 91 80 84 83 84 81 81 91 98 91 82 84 85 77 75 79 78 76 78 82 84 93 95 88 90 86 81 73 70 65 64 47 45 41 34 20
100 100 100 100 100 99 100 100 91 97 94 89 89 87 95 99 97 87 88 82 79 82 85 81 78 78 85 95 93 85 90 87 86 75 66 63 58 46 43 43 41 23 22
100 99 97 95 97 95 94 100 94 90 95 89 88 89 93 97 96 90 87 79 79 82 80 79 88 95 99 92 87 95 91 81 71 62 57 47 43 42 40 41 33 20 22
100 97 98 97 91 92 96 100 100 100 100 95 90 90 96 99 92 92 88 84 79 80 78 85 100 100 96 93 99 93 84 66 55 51 44 41 41 36 36 34 23 21 23
99 99 100 98 99 100 100 100 100 98 93 85 76 82 95 96 88 84 82 82 86 83 83 94 100 98 95 97 93 79 59 51 48 46 46 42 33 31 29 21 19 19 19
100 100 100 100 99 98 100 98 94 91 89 82 81 92 98 94 85 83 84 87 86 87 90 97 98 93 93 80 61 52 49 48 48 48 43 32 28 24 18 16 14 16 16
100 100 100 100 100 100 99 92 93 92 84 88 95 95 93 87 86 83 85 90 93 90 96 97 93 86 67 49 48 49 46 42 43 37 32 30 25 16 14 14 14 14 20
100 99 98 98 100 100 100 99 98 88 85 97 99 98 94 87 80 86 88 84 88 93 93 88 74 61 49 49 47 36 31 28 27 28 29 26 16 14 15 15 14 22 34
94 98 100 100 99 99 98 96 93 88 95 99 99 90 80 83 85 79 85 90 96 92 77 64 51 49 44 31 24 24 25 24 24 26 26 16 15 16 16 20 33 38 37

GFSGL_250_rhum_054.txt.gz
RH
57 65 74 80 88 98 100 100 100 100 100 100 100 100 100 100 98 94 93 84 86 77 69 59 45 34 49 48 38 33 34 34 40 44 48 43 44 42 42 36 32 26 24
37 43 51 62 74 90 98 99 100 100 100 100 99 96 95 91 94 89 79 71 60 55 43 41 41 58 66 39 33 34 35 45 45 47 48 44 50 48 44 40 34 33 32
35 37 39 41 45 53 58 61 62 65 69 75 77 75 90 79 80 62 60 48 52 44 41 55 60 65 40 34 37 37 45 48 46 54 47 46 50 49 48 49 45 38 34
18 20 20 20 20 21 20 21 26 38 44 53 57 55 84 71 59 57 48 49 54 42 62 76 64 44 38 36 38 46 49 49 55 55 47 52 51 51 50 46 43 47 52
16 16 17 19 19 20 22 27 40 49 58 60 76 82 74 61 59 56 54 54 53 63 74 64 41 41 36 37 41 50 52 54 61 55 53 54 55 58 58 53 51 53 50
19 17 19 19 20 28 45 62 80 96 71 81 81 83 69 66 59 56 64 68 70 76 55 39 38 34 37 40 46 51 58 60 63 60 59 61 65 74 68 60 63 58 59
17 17 18 20 20 22 47 81 90 98 65 94 76 87 72 71 73 80 68 72 57 48 42 35 35 38 42 45 46 56 60 60 63 70 70 74 82 81 69 66 64 60 63
19 19 18 18 21 38 55 69 72 79 69 68 100 100 79 85 100 81 71 59 52 43 36 37 37 40 43 47 52 62 66 68 69 72 78 90 89 80 79 70 63 62 63
21 21 21 20 24 39 51 69 66 68 99 100 84 85 98 100 91 66 49 58 46 41 39 38 40 46 49 55 60 65 67 70 77 88 90 87 86 86 76 67 68 67 63
27 26 25 26 42 100 93 77 100 100 100 93 100 100 100 94 84 57 59 51 46 41 41 44 49 53 59 63 70 77 82 89 92 89 87 88 77 71 70 72 75 68 64
32 34 51 69 80 82 86 100 100 100 100 100 100 100 94 88 80 66 58 56 50 44 47 51 53 56 64 71 77 84 88 81 80 78 72 74 78 78 79 77 72 68 67
41 56 65 72 93 100 100 100 100 100 99 100 100 100 89 100 77 60 64 63 58 56 56 59 62 69 71 76 79 72 67 66 66 73 80 84 83 80 75 71 70 72 69
61 74 70 98 100 100 100 96 98 96 100 100 100 100 92 92 77 70 65 71 72 69 70 67 65 65 67 69 69 70 72 76 80 82 82 76 74 72 73 76 78 75 66
81 82 99 100 100 100 94 100 100 100 100 100 100 100 97 91 76 78 68 69 80 80 78 73 72 76 74 69 69 72 75 76 78 77 74 75 72 73 76 76 70 69 64
87 90 89 94 100 100 100 100 100 100 100 100 100 100 97 97 79 81 79 74 77 86 89 82 80 79 74 69 77 80 79 78 81 86 80 79 85 82 78 69 65 64 57
75 78 88 96 99 100 100 100 100 100 92 100 100 100 95 83 78 83 84 85 83 84 91 87 82 79 70 75 85 86 81 84 92 82 83 91 87 81 75 66 56 55 48
96 99 94 96 100 100 100 100 99 100 100 100 100 100 99 86 88 94 91 79 86 88 86 89 86 78 73 76 85 85 84 89 92 91 96 92 88 83 72 51 46 43 42
100 100 100 100 100 100 100 100 100 100 100 98 98 85 96 97 98 99 96 87 83 82 80 79 77 78 85 85 86 94 93 91 93 98 98 92 83 71 50 44 40 42 43
100 100 100 100 100 99 99 100 100 100 100 97 97 95 90 91 100 100 98 93 85 76 75 74 72 77 87 91 98 91 86 89 95 100 91 77 63 48 43 42 41 40 38
96 97 97 99 100 100 100 100 100 100 100 96 92 95 86 91 95 94 94 90 78 67 70 71 75 82 90 99 86 85 89 90 96 86 73 54 44 39 37 33 33 30 28
100 100 100 100 100 100 100 100 100 100 100 98 96 96 94 90 96 99 100 91 71 65 70 70 78 92 92 84 88 87 86 86 75 57 45 41 32 28 27 26 26 27 20
95 94 95 95 95 92 88 91 95 97 100 100 96 96 95 95 99 100 95 83 70 68 68 82 93 83 84 86 83 84 81 59 43 42 38 28 24 24 24 24 26 18 14
96 96 100 100 100 100 98 94 93 98 100 94 93 92 92 99 100 94 80 71 71 75 91 93 82 82 84 82 84 71 50 43 41 33 26 24 22 22 23 25 18 15 16
100 97 95 96 100 100 100 100 99 99 97 94 93 92 96 100 98 88 79 77 84 98 90 79 82 85 85 80 61 50 45 41 29 24 22 22 21 22 24 20 16 17 18
92 95 100 99 97 98 100 100 100 100 100 100 96 97 100 100 94 85 88 99 99 88 83 85 86 83 72 51 47 42 35 25 22 19 19 21 22 24 21 16 20 22 41
42 58 81 92 96 100 100 100 100 100 99 96 95 99 100 98 96 100 100 94 89 89 87 81 72 55 47 45 42 30 23 20 18 18 20 22 25 21 17 18 23 41 50

GFSGL_250_rhum_057.txt.gz
RH
67 68 69 70 78 84 88 97 100 100 100 100 100 100 100 100 100 100 100 100 100 96 86 79 61 50 37 28 26 33 33 42 50 35 36 38 42 50 50 53 48 48 46
34 44 60 68 74 78 82 88 89 84 86 85 84 87 86 82 81 78 77 76 64 57 44 46 41 36 32 29 31 34 38 45 36 35 36 38 50 53 54 55 52 54 51
17 20 26 36 44 48 51 48 52 56 60 58 64 58 52 49 46 42 38 35 32 34 38 38 38 38 33 34 38 44 43 31 33 35 40 43 56 54 60 59 59 59 62
18 17 19 22 25 30 36 42 43 59 65 52 35 26 26 23 24 28 34 47 58 50 52 43 46 42 45 41 47 41 31 33 34 39 44 53 54 56 62 67 68 68 74
34 38 31 31 29 27 31 42 39 33 24 22 22 20 33 42 45 52 80 81 68 73 47 60 56 52 47 51 34 32 32 34 37 44 52 56 60 60 64 67 72 76 75
18 16 17 18 18 18 18 18 17 19 22 27 28 83 66 60 38 100 100 90 86 79 76 67 70 58 56 35 32 30 33 37 43 48 52 58 59 64 66 78 81 79 79
18 17 18 16 16 16 17 18 20 31 62 76 32 57 48 91 100 89 79 86 98 97 81 77 75 51 35 34 32 36 41 45 48 52 53 55 64 78 84 87 88 79 72
19 19 20 19 20 21 21 21 21 24 28 27 35 58 87 98 94 70 90 100 98 88 80 81 60 44 42 37 40 46 52 49 56 61 66 79 88 91 93 86 75 70 70
20 21 22 21 22 23 23 24 24 24 30 40 65 94 71 60 64 100 100 90 100 98 87 59 55 52 47 44 48 51 56 59 63 70 76 80 80 74 69 70 72 76 75
22 23 23 24 26 27 28 26 27 35 59 62 70 70 71 100 100 100 91 99 100 90 73 67 61 62 62 54 54 57 62 63 62 62 63 66 69 72 74 70 70 72 71
22 23 24 26 27 29 30 32 43 45 54 97 96 84 100 100 100 100 94 100 100 93 81 69 66 69 71 69 64 65 66 66 65 65 66 69 72 73 75 78 76 74 76
23 24 27 29 32 41 51 68 72 88 100 91 98 100 100 100 100 91 100 100 100 99 75 77 69 75 82 76 70 72 70 67 68 67 71 73 73 75 76 76 74 74 72
28 31 36 35 41 52 66 75 80 92 95 99 100 100 100 100 90 100 100 100 100 79 82 81 83 73 77 85 83 80 77 73 70 70 73 76 80 79 74 77 78 78 72
52 49 44 51 60 69 87 84 84 97 100 100 100 100 89 100 100 100 100 99 92 85 82 76 80 82 73 79 80 81 83 81 80 78 76 79 84 82 82 81 76 76 76
69 57 57 69 92 100 94 99 98 100 100 100 99 97 100 100 100 100 92 97 90 92 78 86 93 84 79 72 74 76 76 79 86 91 91 89 84 86 83 77 77 75 72
83 87 90 89 83 82 82 90 100 100 100 100 100 100 100 100 100 100 98 100 100 86 86 96 94 95 85 78 73 72 78 82 84 82 84 78 83 84 79 77 78 74 57
100 100 100 100 100 100 100 98 95 96 97 100 100 100 100 100 99 96 82 82 84 95 98 89 79 84 86 79 67 71 80 85 81 79 71 77 82 77 77 75 72 53 42
90 93 98 100 100 100 99 100 100 100 100 100 100 100 100 100 96 88 100 98 99 95 88 90 85 83 82 75 70 71 80 80 74 70 74 79 77 79 77 68 46 39 30
88 91 100 99 100 100 100 100 100 100 100 100 100 98 92 94 93 90 86 88 90 95 97 90 85 84 82 81 78 84 79 73 71 81 82 77 81 79 63 41 36 24 22
89 89 96 100 100 100 100 100 99 100 100 100 97 98 98 96 92 95 98 95 91 94 93 90 86 85 88 89 84 81 73 75 86 80 76 79 71 48 38 33 22 21 21
100 98 98 97 98 99 100 100 100 100 100 98 97 96 96 96 92 92 89 89 95 96 95 94 87 86 92 90 89 80 83 95 86 80 80 63 41 36 31 22 20 19 20
99 96 97 96 95 96 97 98 96 96 97 97 98 97 97 93 88 87 91 97 99 98 99 94 88 92 97 93 88 92 98 88 83 75 53 40 34 27 22 19 18 19 22
100 100 98 97 96 95 96 99 100 99 99 100 100 97 95 97 98 96 96 99 100 99 97 98 99 95 97 93 98 98 90 86 62 44 40 35 26 21 19 18 19 21 23
100 100 100 100 96 92 91 96 99 100 98 97 95 96 97 96 95 99 100 100 98 99 100 97 95 98 98 94 96 93 77 51 42 40 35 25 22 18 18 20 20 21 16
81 77 74 78 85 92 95 93 92 92 96 99 99 99 100 100 100 100 100 99 100 100 98 100 100 100 100 97 88 60 42 41 38 30 24 22 18 18 20 20 22 17 16
69 66 69 66 56 50 48 49 58 76 93 100 100 100 100 100 100 100 100 100 100 100 99 100 100 99 90 67 48 41 40 31 24 23 20 18 20 20 19 21 14 13 18

GFSGL_250_rhum_060.txt.gz
RH
76 90 93 97 96 96 100 100 100 100 100 100 100 100 100 100 100 100 100 100 100 96 87 79 71 55 48 39 46 49 44 41 37 32 36 37 38 32 36 36 41 44 54
25 39 56 73 88 99 100 98 95 98 100 100 100 100 100 100 100 100 100 92 89 83 78 62 41 31 38 40 56 54 43 44 36 29 30 34 29 33 36 38 44 50 58
24 19 21 31 43 62 84 94 97 98 99 96 95 89 90 85 82 82 79 80 77 67 55 39 32 41 76 58 61 53 58 45 37 28 34 29 30 33 38 40 46 53 60
30 20 20 20 20 29 36 40 40 46 53 55 63 63 56 53 52 55 56 59 56 46 36 40 57 80 80 69 68 55 65 44 34 35 29 30 33 38 41 45 50 58 62
28 26 28 25 18 17 17 21 31 34 35 33 40 44 42 44 42 40 60 48 37 40 46 54 77 64 77 68 56 61 53 40 35 31 31 34 39 45 45 53 61 67 76
23 23 26 33 46 35 24 26 25 19 23 31 19 23 26 26 32 33 32 25 70 54 58 91 93 75 85 63 72 64 54 39 35 34 36 43 50 53 60 68 77 78 88
24 23 23 22 22 22 24 23 22 23 23 25 23 21 22 28 23 26 33 43 78 58 90 77 81 81 72 76 94 75 49 43 41 40 44 53 63 68 69 70 73 71 68
22 22 23 24 24 24 23 22 22 21 22 22 23 21 21 25 25 26 28 45 65 69 81 80 74 96 95 82 75 63 56 58 62 54 56 62 63 61 61 63 64 64 67
19 20 22 24 25 26 27 27 26 24 26 26 26 24 24 25 27 28 47 53 70 82 67 94 100 100 78 95 94 73 63 62 75 69 63 61 62 63 63 62 66 69 71
18 19 22 23 24 25 26 26 26 28 26 27 25 26 26 29 42 53 70 82 78 82 100 98 100 98 94 93 81 79 68 68 74 78 73 68 68 72 70 69 72 76 82
20 20 20 22 23 23 24 25 27 26 26 26 28 32 35 50 55 72 100 80 95 100 100 96 95 93 100 100 88 70 77 71 72 78 84 81 79 80 81 78 76 74 72
22 22 22 22 22 23 24 25 26 26 29 31 32 39 58 74 76 92 95 100 100 100 100 98 98 100 99 89 75 67 80 78 75 72 74 82 86 85 82 83 81 79 75
25 24 24 24 24 25 25 26 27 32 38 46 54 77 86 89 88 100 100 100 100 100 98 100 100 100 94 81 70 73 83 76 72 77 76 74 75 78 78 74 71 68 72
40 34 31 32 36 38 42 45 46 49 70 81 88 93 90 90 100 100 100 100 100 100 93 100 100 100 100 86 68 72 72 80 72 72 77 74 69 71 70 70 71 70 76
61 56 45 42 42 43 51 63 72 76 80 93 96 88 91 98 100 100 100 100 99 95 100 100 100 99 88 82 73 77 77 80 78 73 84 82 76 67 70 71 72 84 77
81 85 82 81 79 82 80 79 73 80 83 95 100 98 98 100 100 100 100 100 92 100 100 100 86 83 84 74 75 76 80 83 80 82 87 82 71 68 73 74 88 84 76
87 90 91 94 94 92 90 92 96 100 99 96 98 99 100 100 100 100 96 96 100 100 98 97 88 77 78 75 77 75 79 83 84 86 89 86 76 75 76 88 84 82 81
99 100 97 89 100 96 98 98 100 100 100 99 100 100 100 100 100 100 100 100 100 96 77 74 81 85 80 77 78 76 77 84 88 90 87 82 82 77 79 80 80 83 72
96 100 100 95 91 100 100 98 95 91 89 93 97 94 93 96 96 92 81 76 78 88 87 88 87 86 81 76 80 83 87 92 92 89 87 88 85 81 81 83 87 63 38
99 98 97 96 94 93 98 100 100 97 95 90 92 94 91 91 92 96 96 97 98 92 90 96 93 88 83 84 91 97 98 98 94 93 88 85 84 81 85 86 54 37 34
99 100 100 100 99 95 93 96 100 100 100 100 99 98 99 100 100 100 100 100 98 93 88 89 89 89 91 100 100 98 95 92 92 88 84 84 80 87 78 42 36 32 25
100 100 100 100 100 100 100 100 100 100 99 98 96 96 96 100 99 97 95 93 92 91 94 97 97 96 94 100 96 96 97 93 90 88 84 86 81 54 37 35 31 23 21
100 100 100 99 100 100 100 100 100 100 99 100 98 97 97 100 99 99 100 100 99 100 99 99 99 98 100 96 100 100 97 93 91 89 86 63 41 36 35 27 22 19 18
91 94 96 100 100 97 95 93 87 86 88 88 85 84 89 93 97 100 100 100 100 100 100 98 99 100 95 100 100 100 94 91 87 69 46 41 37 31 23 21 18 17 18
86 83 83 86 86 91 93 87 78 70 65 61 60 68 78 88 93 97 100 100 100 100 98 100 99 97 100 100 100 95 90 77 53 43 42 36 27 21 19 17 18 18 18
85 89 92 90 88 87 82 75 68 65 58 50 45 46 46 45 46 49 60 76 87 89 90 84 77 88 98 97 88 72 59 46 44 42 32 24 20 17 17 18 17 18 20

GFSGL_250_rhum_063.txt.gz
RH
27 33 42 60 72 74 73 77 83 92 98 100 100 100 100 100 100 100 100 100 100 100 100 100 100 100 100 95 89 80 70 59 48 43 46 47 43 32 26 24 26 26 30
22 22 23 24 28 30 38 57 78 88 96 96 99 100 100 100 100 100 100 100 100 100 100 100 100 99 87 77 64 63 50 43 45 44 48 56 45 33 30 27 26 29 34
22 21 20 20 22 24 26 27 32 38 60 78 94 100 100 100 100 100 100 100 100 100 99 89 84 81 63 52 50 43 45 49 43 66 56 63 45 34 30 27 31 35 44
26 24 23 23 22 20 19 20 28 32 35 42 52 66 68 72 79 81 83 79 76 69 67 58 58 48 42 44 35 47 64 46 66 80 65 57 43 37 31 34 36 46 51
28 28 28 26 23 24 25 25 26 30 30 32 28 30 35 40 39 43 54 55 55 44 46 42 36 36 37 47 58 63 52 66 77 68 67 63 44 37 39 40 46 53 60
25 25 26 28 29 31 31 34 23 22 21 22 19 22 19 24 28 30 33 34 26 28 33 33 26 42 73 43 58 63 68 71 82 69 85 63 58 47 53 57 57 59 62
18 19 21 22 24 26 29 29 28 31 39 62 66 40 41 53 50 45 44 31 27 33 58 38 31 58 46 62 61 69 91 90 90 94 83 72 57 53 63 74 69 65 61
17 18 19 20 22 23 25 27 27 26 26 27 26 27 27 28 33 36 30 31 29 24 26 30 31 33 65 71 85 93 96 100 99 89 75 80 56 58 62 70 81 82 74
18 18 19 19 20 20 21 23 24 25 25 26 26 26 27 28 28 28 46 33 28 25 28 31 38 61 71 97 100 98 100 100 88 87 92 73 64 63 66 67 71 79 85
21 19 18 20 21 21 22 23 24 24 25 27 28 28 28 28 29 32 33 34 32 30 35 47 63 76 100 100 100 100 100 90 95 94 90 69 64 72 71 70 72 71 72
22 21 20 20 20 20 21 22 23 25 28 29 31 30 31 33 34 34 36 35 33 43 68 89 93 100 100 100 100 100 100 97 97 100 82 68 62 64 75 79 79 79 78
28 26 22 22 21 20 20 19 20 21 24 26 28 29 30 31 34 36 35 38 54 76 84 92 92 100 100 100 100 100 96 100 100 99 81 74 68 70 75 80 78 76 83
49 37 28 26 25 23 24 24 24 24 25 25 27 29 31 31 32 37 41 55 71 85 86 99 100 100 100 100 100 99 90 94 100 84 81 73 69 74 76 75 79 81 86
63 56 46 44 37 32 28 28 27 30 31 31 34 36 37 40 53 68 73 89 100 100 100 100 100 100 100 100 100 92 93 100 95 91 71 69 76 74 66 75 80 84 85
75 68 66 60 48 45 48 40 39 40 47 52 60 72 79 84 97 99 98 99 100 100 100 100 100 100 100 100 100 99 90 88 81 71 73 80 78 70 72 80 88 90 89
68 76 79 83 81 78 74 70 72 73 74 83 88 91 88 88 96 100 100 100 100 100 100 100 99 100 100 99 92 90 87 77 74 77 80 83 78 82 90 93 93 91 87
85 79 85 92 91 91 92 91 91 83 83 90 97 98 99 99 97 98 100 100 100 100 100 100 100 97 91 86 89 74 75 82 86 80 87 87 90 97 98 96 96 90 83
87 92 94 99 99 97 98 100 99 98 96 91 90 92 96 99 97 97 100 97 99 100 100 93 93 95 88 84 82 89 87 88 89 89 91 94 97 97 98 93 89 84 82
95 96 97 97 98 98 96 95 98 100 100 100 100 100 100 99 99 100 100 99 95 93 90 90 91 90 91 88 89 90 91 89 87 90 93 94 98 97 95 91 86 84 82
90 96 100 100 98 98 98 96 96 100 100 100 100 99 100 100 98 94 94 94 92 89 88 90 91 94 98 98 93 93 94 94 95 94 95 100 98 95 89 87 82 77 71
94 91 96 100 98 100 100 100 100 100 100 100 100 100 100 98 98 96 93 94 93 91 89 93 94 95 99 100 100 100 98 94 94 98 98 94 96 91 93 86 75 65 42
86 97 100 99 100 100 99 100 100 100 100 98 98 99 97 98 100 99 94 92 92 95 98 96 98 100 98 96 97 92 92 93 91 97 98 95 91 91 83 70 53 40 38
82 88 94 100 100 100 100 100 96 96 100 100 98 95 94 93 89 90 92 95 98 99 99 100 100 100 100 100 95 94 93 93 100 97 93 89 87 75 58 44 40 39 26
86 85 89 94 93 95 98 95 97 98 90 90 91 89 84 79 82 80 76 70 72 79 88 92 95 100 100 100 100 100 100 98 92 73 61 62 55 43 39 41 33 22 19
88 91 92 91 89 87 84 90 91 86 81 86 85 83 76 66 62 50 41 43 47 50 49 49 51 54 60 65 68 66 59 54 52 49 48 45 39 38 37 24 20 19 18
90 90 88 86 87 90 94 90 86 89 87 81 78 78 75 68 54 43 35 38 39 39 40 41 43 46 48 51 53 53 51 48 46 45 43 39 39 28 21 19 18 17 18

GFSGL_250_rhum_066.txt.gz
RH
25 26 27 40 67 75 68 64 60 68 73 72 75 77 84 92 89 95 100 100 100 100 100 100 100 100 100 100 100 100 100 100 97 83 76 64 49 38 38 33 49 43 31
28 24 26 25 26 29 36 52 62 55 57 54 59 68 68 68 67 63 70 84 85 91 96 100 100 100 100 100 100 100 90 84 75 66 55 45 42 39 42 63 49 40 39
27 27 26 24 25 26 26 25 25 26 26 34 35 34 32 33 35 36 35 41 47 60 73 80 86 89 96 88 80 75 69 63 57 50 40 45 43 52 64 69 61 46 43
30 28 28 25 25 25 24 23 24 23 21 21 22 22 22 22 22 24 26 31 39 43 50 67 63 68 78 68 62 71 63 46 50 43 44 60 60 75 77 75 60 60 47
31 30 29 29 28 27 25 23 23 23 21 21 21 22 23 23 24 24 26 28 46 39 57 50 67 55 49 58 74 48 51 46 42 42 50 58 80 86 90 78 77 64 59
28 28 28 28 30 30 29 28 26 24 24 24 25 26 27 28 30 30 32 31 34 35 46 49 58 68 57 58 56 88 59 39 39 35 81 90 90 92 81 94 73 66 58
18 18 19 19 21 23 24 26 26 28 27 26 26 27 26 25 26 31 28 29 29 29 46 75 58 43 68 64 55 55 63 36 40 64 80 100 100 89 97 86 72 77 68
18 19 19 19 19 19 20 20 22 22 22 24 24 25 25 27 29 32 34 37 35 32 32 32 30 32 32 32 37 32 33 52 77 84 100 100 96 100 100 87 81 84 64
20 20 20 19 19 19 19 19 19 20 20 20 21 23 23 24 25 28 31 33 32 32 33 33 32 32 32 31 33 35 71 78 78 100 100 100 100 100 98 85 85 82 67
27 27 27 24 23 22 21 19 20 19 19 18 19 20 22 24 25 25 28 27 28 28 31 33 35 34 35 36 44 65 99 92 100 100 100 100 100 89 90 89 90 90 71
33 31 28 26 26 25 24 22 22 22 22 21 20 20 21 22 24 27 28 30 34 37 36 35 35 35 45 64 80 100 100 100 100 100 100 91 100 96 92 79 85 80 77
32 31 28 28 26 22 22 24 24 23 23 23 23 23 22 24 27 29 32 35 35 36 37 36 42 63 86 100 100 100 100 99 100 100 100 100 100 99 84 85 87 89 74
42 38 35 39 38 30 33 33 28 25 25 25 26 26 26 27 28 29 31 34 36 38 46 58 72 83 95 100 100 100 100 100 98 100 100 97 100 97 84 82 89 77 76
67 62 56 50 49 46 54 46 38 30 32 32 28 28 30 33 36 41 41 42 47 56 65 76 86 90 95 100 100 100 100 100 100 100 98 86 83 84 82 90 80 80 82
70 71 73 76 62 63 72 53 58 62 57 55 55 54 50 49 52 53 59 67 79 85 89 92 99 100 100 100 100 100 100 100 93 88 91 93 99 88 85 80 84 90 87
67 72 77 81 82 80 82 80 76 76 72 72 76 75 77 77 78 82 89 91 86 93 100 100 100 100 100 100 96 91 87 86 86 90 90 95 97 89 86 84 88 88 92
72 84 80 78 86 91 94 93 92 89 90 92 90 84 83 86 86 93 99 100 99 100 100 100 100 100 100 100 100 98 97 92 88 100 93 96 90 86 88 88 87 94 96
69 84 90 87 92 93 96 100 99 100 100 97 96 98 99 97 94 95 98 98 96 98 98 98 97 95 94 93 89 95 96 96 96 99 99 91 91 89 90 91 96 97 97
64 77 86 92 96 97 99 98 99 100 100 99 100 99 99 100 100 100 100 100 100 100 100 100 99 100 100 100 100 100 100 100 96 93 92 92 92 92 98 99 97 93 92
71 72 83 89 89 95 100 100 97 95 96 100 100 100 100 100 100 100 100 100 98 99 100 100 99 97 94 94 92 90 93 94 92 96 97 98 96 96 96 96 89 91 88
88 75 80 87 92 93 96 99 100 100 98 94 94 97 98 100 100 100 100 100 100 99 98 96 93 92 94 93 92 92 96 98 100 96 91 92 92 91 96 91 90 81 65
76 89 85 87 89 96 99 99 98 99 99 97 95 93 93 94 95 97 98 96 96 93 92 94 95 94 92 91 92 96 100 99 93 89 87 86 92 97 90 82 63 49 45
60 67 87 90 87 90 95 99 100 100 100 100 97 94 98 100 97 94 94 94 93 91 84 75 69 63 60 58 60 62 60 61 68 68 64 68 65 57 54 50 48 45 40
49 68 75 86 92 93 92 95 98 99 100 100 100 100 100 97 97 97 96 94 84 70 59 49 45 47 46 46 45 44 44 46 47 45 46 49 49 51 50 49 44 42 40
36 50 67 82 91 94 95 94 95 95 95 93 89 91 92 96 97 96 89 78 72 61 45 36 34 33 32 32 33 36 36 36 38 43 45 48 47 46 46 44 42 43 30
33 42 60 78 80 87 94 97 98 96 95 96 97 98 96 96 99 96 83 76 66 46 40 35 31 30 32 32 32 33 34 37 40 42 44 44 44 44 43 44 37 23 19

GFSGL_250_rhum_069.txt.gz
RH
32 30 24 22 23 25 28 28 29 28 26 26 26 26 30 45 48 48 62 72 76 80 82 93 96 97 99 100 100 98 98 74 54 64 74 72 72 82 72 68 52 44 39
30 30 30 33 44 27 22 23 27 27 28 28 28 26 24 24 26 34 44 46 42 40 47 60 76 78 73 72 55 50 55 54 61 76 71 73 69 78 73 64 54 42 46
31 32 32 30 31 29 29 28 27 24 23 25 28 28 29 29 25 25 25 25 23 26 30 32 34 34 32 31 42 44 49 59 70 89 71 77 74 60 73 58 54 48 59
28 28 31 32 31 30 31 30 29 27 28 27 25 27 29 29 27 25 26 26 26 26 27 27 29 35 39 34 37 54 57 77 64 88 71 86 66 82 72 72 46 77 73
30 31 32 31 31 31 31 30 29 28 28 27 26 26 26 26 26 25 25 25 25 25 26 26 27 30 33 33 39 38 41 42 57 43 63 52 37 54 52 44 92 92 98
30 32 35 36 36 35 34 34 34 34 33 33 32 31 29 27 26 26 25 27 28 28 28 30 33 34 35 35 37 33 34 39 37 37 35 32 41 49 44 60 96 100 100
20 21 23 25 26 28 28 28 28 29 29 30 30 29 29 28 26 25 24 23 23 25 28 30 30 28 28 29 35 44 38 39 35 34 34 34 45 42 64 100 100 100 100
19 18 18 17 18 19 20 21 20 20 20 19 19 18 17 17 18 19 20 23 24 25 24 24 26 26 25 28 35 37 37 40 36 35 37 36 44 86 100 100 100 100 97
22 21 19 18 18 17 16 17 17 17 17 18 19 19 19 20 20 19 19 20 19 20 21 22 24 27 30 32 34 38 38 38 34 38 42 58 93 100 100 100 100 100 100
30 30 30 31 30 26 23 22 22 21 20 20 19 19 19 19 19 20 20 21 21 22 24 26 28 30 31 33 40 38 38 39 42 50 62 80 100 100 100 100 100 100 99
32 32 33 35 34 31 31 29 28 27 26 27 26 25 23 22 22 22 23 22 23 24 26 26 29 34 38 39 39 42 43 52 69 80 91 100 100 100 100 100 100 100 99
35 33 34 35 33 30 31 30 30 28 27 27 27 26 25 25 24 24 25 26 26 25 27 30 37 38 42 44 45 49 58 73 91 100 100 100 100 100 100 100 100 95 92
77 68 63 59 52 44 43 39 38 32 32 33 32 35 34 27 27 28 29 29 30 31 33 34 36 37 48 55 55 62 90 100 100 100 100 100 100 100 100 97 86 84 94
64 58 54 49 55 59 61 60 61 56 53 42 50 55 47 38 38 40 38 38 40 45 45 47 52 55 59 70 75 84 93 99 100 100 100 100 100 99 88 79 79 94 92
41 39 40 43 47 59 64 67 69 74 78 67 70 75 70 60 59 60 60 59 58 60 62 69 73 76 79 83 91 95 94 96 94 92 90 83 86 90 88 93 96 96 96
40 40 40 42 52 62 64 70 81 84 82 83 83 86 89 85 86 80 79 79 81 82 83 90 91 92 95 95 96 100 100 100 100 100 100 100 98 87 96 97 94 95 96
48 44 40 41 54 66 65 74 80 81 82 80 86 90 99 97 97 98 99 93 94 98 95 89 94 97 94 95 96 96 96 94 93 92 96 100 100 98 98 95 95 96 99
61 52 48 45 54 70 71 81 86 87 92 91 93 97 92 90 95 100 100 100 100 100 100 100 100 100 100 99 99 100 100 100 99 94 90 90 92 93 98 99 99 95 96
70 71 68 60 59 65 76 81 93 96 96 96 96 97 99 100 100 100 100 100 100 99 98 99 98 96 97 100 100 100 100 99 96 99 100 100 99 98 97 95 95 93 98
63 67 78 79 72 73 74 86 92 98 99 99 100 99 100 100 100 100 99 99 100 98 94 98 100 100 98 98 98 97 96 99 100 100 100 100 100 99 94 92 91 92 96
65 66 69 84 84 82 82 82 90 97 100 100 100 96 97 100 100 100 100 100 100 100 100 100 95 97 100 100 99 98 95 95 93 90 91 87 86 88 87 83 79 74 72
50 56 62 73 79 88 85 88 89 91 95 99 99 97 96 100 100 100 100 100 100 97 91 95 96 96 94 88 82 75 69 67 65 63 62 56 50 52 54 53 53 54 50
34 39 52 64 72 77 90 89 90 91 93 95 100 100 100 100 100 99 100 100 98 97 96 89 88 84 79 79 70 60 57 49 43 40 36 38 42 44 45 48 45 42 42
19 26 31 44 60 68 72 85 93 93 93 94 95 99 100 100 100 100 98 98 96 92 93 97 96 96 83 68 57 51 46 38 35 33 34 36 38 39 38 39 41 42 42
16 19 24 32 38 52 62 78 86 93 95 95 94 95 96 97 98 97 96 98 98 100 100 99 93 85 77 60 50 45 40 32 31 33 34 34 33 35 38 42 42 40 38
13 13 17 27 34 42 51 70 84 90 94 94 96 99 98 96 97 98 99 98 98 98 98 94 88 78 63 51 47 38 30 25 23 23 25 29 32 34 36 36 34 36 39

GFSGL_250_rhum_072.txt.gz
RH
88 100 98 78 45 36 39 39 41 36 41 49 47 48 51 57 51 48 55 57 45 33 30 31 31 32 32 35 37 35 43 43 35 32 32 36 45 48 49 59 60 62 57
37 36 46 82 100 100 100 92 42 28 24 24 26 27 27 27 28 32 31 29 27 26 26 26 27 29 29 29 30 29 32 30 28 28 29 35 45 51 49 47 48 51 53
40 39 37 36 36 34 33 33 36 36 33 28 26 24 22 22 22 24 27 25 24 25 25 24 25 28 30 30 30 31 32 32 32 31 31 34 35 38 39 43 42 48 36
35 34 34 35 35 35 36 36 36 37 35 34 34 33 32 31 30 32 32 31 29 28 28 28 27 26 26 28 28 30 30 30 31 31 34 36 39 38 39 44 43 44 49
39 36 34 31 30 30 33 35 35 36 37 37 36 35 33 30 29 29 29 29 29 27 27 28 28 29 30 29 28 30 32 34 35 33 36 40 38 40 37 40 39 40 38
34 34 33 33 32 30 29 30 30 32 32 33 33 32 31 30 29 29 29 29 29 29 28 27 26 28 27 25 26 29 30 33 36 35 36 32 31 35 42 40 42 41 41
25 30 32 33 34 34 35 35 34 33 30 28 28 29 30 31 33 33 31 31 30 29 27 27 27 27 27 23 22 24 25 26 26 26 28 31 37 39 40 44 45 44 49
20 20 19 20 22 22 23 24 26 28 28 30 29 29 27 26 25 24 24 23 22 20 20 18 18 19 20 20 20 22 22 22 23 25 28 34 33 36 39 42 47 58 78
22 22 22 20 20 21 21 20 19 18 18 18 18 19 20 20 20 20 20 20 19 18 18 17 18 18 19 21 21 22 24 23 25 30 32 30 33 42 46 55 66 90 99
32 30 29 27 24 20 21 21 20 20 20 20 20 22 22 22 22 21 20 19 19 18 18 18 19 19 20 20 22 25 26 31 35 37 37 44 54 59 63 77 87 91 100
40 40 35 32 28 24 26 27 28 27 27 24 24 25 26 29 30 29 28 27 25 23 22 22 22 22 23 25 26 28 32 38 42 46 56 61 68 82 89 96 100 100 100
40 39 38 37 34 31 29 29 28 27 27 29 29 31 32 34 34 37 34 29 26 24 24 24 25 28 29 31 32 35 39 48 55 63 70 79 90 95 100 100 100 100 100
41 38 38 38 41 43 42 40 43 46 46 45 44 40 38 40 48 50 46 41 34 29 27 29 32 34 35 40 47 53 59 66 76 86 91 94 98 100 100 100 100 88 90
71 73 71 69 69 69 68 62 53 48 44 49 63 65 65 69 80 69 56 52 43 43 41 42 44 48 50 54 60 68 78 86 93 94 94 97 98 100 100 99 97 95 95
74 72 70 73 74 64 51 44 40 37 35 44 60 71 75 86 89 78 68 61 59 57 60 61 74 78 81 83 88 92 93 94 95 96 100 100 100 99 100 100 100 100 100
72 68 66 66 60 54 48 44 42 36 37 46 54 64 74 84 90 89 80 78 75 75 73 71 74 82 89 93 93 94 96 100 100 100 100 100 100 99 99 98 97 96 98
55 54 52 55 53 51 48 46 48 46 45 58 57 69 82 86 87 94 94 90 87 92 93 95 94 97 99 100 100 100 100 100 100 100 100 100 100 100 100 100 100 98 92
53 58 57 57 59 59 56 53 52 49 52 70 70 78 84 89 89 92 98 99 96 99 98 98 98 99 98 98 98 97 99 100 99 98 95 96 100 99 96 95 97 98 99
48 55 58 61 64 66 61 56 59 60 60 77 83 85 87 88 90 90 94 98 98 99 97 92 92 98 99 98 100 99 98 96 93 93 96 97 96 99 100 96 96 97 100
46 52 60 62 63 73 76 71 68 69 74 85 88 88 93 96 98 98 100 100 97 99 100 98 99 100 100 100 100 99 99 97 98 100 100 100 100 100 97 94 91 90 84
39 48 54 66 71 76 80 76 82 88 84 88 88 87 92 98 100 100 100 100 100 99 99 100 100 100 100 99 100 100 100 100 100 97 92 82 74 75 65 56 54 49 47
34 41 55 66 71 80 84 82 78 83 90 93 91 93 99 100 97 98 100 100 100 100 100 100 100 100 100 100 100 100 93 91 87 83 74 64 65 54 45 41 36 34 34
28 33 43 58 76 73 79 87 92 90 90 90 95 95 96 100 100 100 100 100 100 100 99 100 100 96 97 100 100 97 96 92 86 78 66 58 47 39 33 32 32 33 35
19 24 31 38 51 73 77 80 82 90 91 92 93 96 97 98 100 100 100 100 100 100 100 100 100 100 99 100 99 95 92 85 70 56 45 39 39 31 25 25 23 25 31
11 17 20 22 31 50 67 78 76 83 91 89 84 81 93 98 100 100 100 100 100 100 100 100 100 99 100 100 94 91 86 74 57 46 41 37 31 34 33 28 22 22 27
7 14 18 18 20 26 39 57 68 79 86 89 88 86 87 89 95 99 100 100 100 99 100 100 100 100 98 98 96 88 72 58 42 39 33 34 46 47 36 24 22 23 24

GFSGL_250_rhum_075.txt.gz
RH
100 100 100 100 100 100 100 100 100 100 100 100 100 100 100 100 100 100 100 100 100 100 100 100 86 66 44 39 32 31 32 31 28 28 29 28 30 33 34 35 34 37 36
100 100 100 100 100 89 77 92 100 100 100 100 100 100 100 100 100 100 91 87 80 81 67 49 36 30 29 28 25 25 26 28 26 27 28 28 29 31 33 34 35 36 40
41 39 44 61 96 100 100 100 92 72 59 62 47 49 50 50 39 31 30 34 42 39 28 24 24 24 27 24 24 26 27 27 27 27 28 30 33 33 35 37 38 39 41
49 48 45 43 42 41 51 59 60 68 73 79 75 77 84 85 76 54 42 37 36 37 34 35 35 33 32 31 29 28 29 29 30 29 30 32 33 34 36 38 37 38 39
41 43 45 45 42 40 40 41 41 40 41 43 44 43 42 43 43 42 40 39 39 37 33 34 33 32 29 27 25 24 24 26 27 28 28 24 24 27 28 27 29 34 36
27 30 34 39 43 44 44 43 43 42 41 40 38 38 38 37 36 34 32 32 32 30 29 28 28 27 26 25 27 28 26 24 21 24 23 19 20 20 22 25 27 26 26
21 22 24 26 29 33 36 38 41 42 42 43 44 44 42 40 37 35 34 33 32 31 30 29 29 29 27 23 20 19 19 18 18 18 19 18 20 22 23 24 24 27 32
20 19 18 19 20 22 26 30 33 35 37 39 40 39 38 36 35 34 32 29 26 23 21 21 20 19 19 18 17 17 16 16 17 18 20 20 22 24 27 28 35 36 44
24 22 21 19 19 20 20 19 19 21 22 21 21 20 19 19 19 18 18 17 18 19 19 19 19 19 18 17 18 16 17 18 20 23 23 26 29 35 35 39 48 55 56
24 26 26 25 25 25 24 22 21 20 19 18 18 18 18 18 17 17 17 18 22 23 24 23 22 23 23 20 22 23 23 24 26 27 29 33 41 44 44 56 62 68 74
46 46 46 47 44 38 32 29 24 24 25 23 24 27 28 26 26 28 27 28 29 31 30 30 28 28 25 24 24 24 25 26 28 31 33 36 43 51 70 82 86 89 95
54 50 45 42 44 41 38 36 33 31 31 29 29 29 30 30 31 31 29 31 34 35 32 36 36 29 26 26 26 28 30 32 34 37 42 52 62 69 74 82 89 91 99
50 46 42 40 43 38 37 36 36 35 35 32 31 31 33 38 41 44 43 45 44 47 49 46 41 39 35 32 33 36 41 48 54 64 67 77 84 89 95 100 100 100 100
54 49 44 42 41 43 42 41 39 39 37 36 41 49 56 53 48 45 56 67 66 77 67 63 60 60 49 50 52 58 59 62 76 90 93 99 100 100 100 100 100 100 100
63 61 62 64 62 62 64 65 64 66 64 61 62 53 37 30 29 34 50 67 80 81 72 72 78 75 72 73 74 76 80 83 86 89 94 96 98 99 100 100 100 100 99
59 59 58 59 65 64 64 68 64 57 53 56 53 46 35 33 32 35 53 68 80 85 78 77 79 86 87 88 93 95 94 99 100 100 100 100 100 100 100 100 100 100 98
41 52 61 60 61 62 63 65 66 64 61 61 62 52 43 38 39 45 56 72 89 86 78 88 90 88 86 92 96 99 100 100 99 98 98 100 100 100 100 99 100 100 100
34 36 42 52 57 59 60 59 63 60 56 56 62 58 54 46 45 57 66 83 87 88 92 97 99 94 90 92 92 89 94 100 98 95 92 94 97 97 92 90 92 91 90
31 34 36 41 47 50 53 54 59 58 58 61 70 67 61 60 55 70 76 82 86 96 97 96 99 100 100 97 94 98 98 97 99 100 98 99 99 93 93 98 97 95 94
26 30 36 40 43 44 53 58 61 62 66 70 85 83 73 68 64 74 79 89 96 98 96 97 100 100 100 100 100 100 98 98 97 97 97 98 98 100 100 97 93 86 84
17 24 28 36 41 47 49 54 60 66 74 78 88 91 83 73 75 85 87 87 93 96 97 100 100 100 100 100 100 99 98 93 95 100 100 100 100 95 85 76 72 72 70
9 15 21 31 37 45 55 59 62 68 78 87 89 93 97 100 95 91 89 92 98 100 100 100 100 100 100 100 100 100 98 96 100 100 99 93 87 80 73 69 64 59 48
6 9 13 21 32 37 44 59 69 77 83 85 90 94 96 98 96 100 98 96 99 100 100 100 100 100 100 100 100 98 99 100 97 96 97 91 84 73 66 60 50 38 32
4 5 8 12 23 33 38 45 63 74 82 80 78 88 94 100 100 100 100 100 100 100 100 100 100 100 100 100 98 97 100 99 99 95 94 90 80 65 55 39 30 29 31
4 4 6 9 15 26 32 41 48 60 75 83 86 88 91 96 100 100 100 100 100 100 100 100 100 100 100 100 97 100 100 99 98 98 93 81 68 52 41 36 41 37 36
3 4 4 6 10 16 27 34 39 49 60 77 80 85 89 96 98 95 95 93 97 100 100 100 100 100 97 94 100 100 96 97 98 97 91 75 58 46 42 46 45 42 35

GFSGL_250_rhum_078.txt.gz
RH
100 100 100 100 100 100 100 100 100 100 100 100 100 100 100 100 100 100 100 99 95 99 100 100 100 100 100 100 100 100 100 92 71 51 38 31 30 28 31 32 30 33 34
100 100 100 100 100 100 100 100 100 100 100 100 100 100 100 100 100 100 100 100 100 100 100 100 100 82 95 100 86 72 64 57 32 34 28 30 30 30 30 31 30 32 33
100 99 99 99 100 100 100 100 100 100 100 100 100 100 100 100 100 100 100 100 100 100 100 99 92 86 68 73 92 40 33 31 31 31 29 27 27 27 28 29 30 30 31
100 100 100 100 100 94 84 82 83 79 85 99 100 100 100 94 87 97 100 99 87 73 60 61 93 93 54 42 40 35 36 31 29 28 27 27 27 28 30 30 27 23 22
64 77 92 100 100 100 100 100 100 99 95 92 90 98 100 100 98 97 92 94 89 76 78 64 49 40 40 44 39 33 34 32 30 30 27 26 25 25 23 20 20 20 20
43 44 46 52 55 70 74 90 100 100 92 91 97 100 100 100 93 58 40 44 44 46 44 41 41 40 35 37 38 33 33 32 29 29 22 19 18 17 18 19 18 19 22
32 34 34 37 40 44 47 50 50 49 47 45 44 44 44 43 44 45 48 47 45 42 41 42 41 40 38 36 34 30 25 21 16 15 16 16 17 18 20 22 20 24 26
29 32 32 31 30 31 32 33 34 34 34 33 34 35 37 37 37 38 40 41 40 37 35 35 33 31 27 21 18 17 16 16 16 16 18 21 22 23 26 27 29 30 31
20 21 22 23 22 23 24 24 23 23 23 24 24 24 25 25 27 29 29 30 28 25 23 21 19 18 19 20 18 18 19 20 20 20 23 24 26 28 30 33 37 39 42
22 20 20 21 22 22 22 22 21 21 21 21 21 21 20 19 20 20 20 19 18 17 18 18 20 23 24 24 26 25 22 22 23 23 23 25 26 27 30 35 39 44 48
28 25 22 22 23 24 22 23 24 24 24 24 23 22 20 17 18 18 18 19 20 22 25 26 29 31 30 30 27 26 26 26 24 26 26 28 29 33 39 43 50 59 70
31 32 34 34 37 40 39 36 34 34 31 29 26 23 24 25 24 26 25 28 30 31 34 32 32 35 37 36 36 37 35 33 33 33 36 38 46 51 56 59 69 81 89
37 42 40 41 44 45 48 50 49 44 40 35 33 28 31 33 33 32 34 37 37 36 37 37 46 50 62 61 60 53 49 46 49 52 49 55 64 68 75 86 93 96 98
35 40 47 48 50 52 53 58 63 61 51 44 42 38 37 39 38 41 48 46 46 51 56 54 45 52 75 86 78 68 62 64 65 71 74 76 76 76 78 81 83 82 85
24 35 38 41 43 47 52 57 63 60 54 48 42 42 44 43 49 57 60 62 62 49 40 34 36 60 81 90 83 76 75 83 82 87 91 92 90 86 87 93 94 97 99
14 18 26 36 43 43 46 49 55 61 64 63 63 58 61 71 80 84 78 68 50 39 32 30 50 64 83 96 87 84 84 85 84 85 88 90 95 99 100 100 100 100 100
11 12 15 25 37 44 43 46 54 61 68 75 79 82 89 83 80 77 66 54 49 46 38 43 62 71 86 89 93 95 99 98 95 97 99 100 97 99 100 100 100 100 100
6 8 10 15 27 41 48 50 56 64 68 74 81 80 80 73 74 73 59 56 54 56 48 58 74 83 90 90 89 94 96 94 94 94 92 90 90 93 96 93 94 97 99
5 5 6 9 15 29 43 56 59 62 68 71 69 76 71 76 81 76 64 63 60 62 59 66 84 90 96 98 100 100 98 98 95 92 91 94 98 95 95 100 100 100 100
4 4 5 6 9 16 32 46 55 60 59 65 63 64 66 69 73 68 71 74 77 74 73 80 84 96 100 100 100 100 100 98 95 98 98 98 98 99 100 100 100 100 100
5 4 4 5 7 9 18 36 50 55 56 55 56 57 59 68 73 77 80 84 87 89 87 90 85 99 100 100 100 100 99 94 90 93 99 100 96 100 100 100 100 100 100
5 4 4 5 5 7 11 24 41 50 56 60 61 60 63 77 81 82 85 86 94 98 100 98 88 88 96 100 100 100 96 90 97 100 98 96 100 100 100 100 100 99 95
5 4 4 5 5 5 8 16 33 47 57 66 64 64 70 85 85 86 90 93 100 100 100 100 99 98 100 99 100 100 100 100 100 98 94 98 100 100 99 100 100 97 84
4 4 4 4 5 5 6 11 23 39 50 64 66 67 74 89 91 90 93 98 100 100 100 100 100 100 100 100 100 100 99 96 92 87 88 98 98 98 100 100 97 86 72
3 3 4 4 4 5 5 8 17 28 44 59 68 75 77 89 91 92 95 100 100 100 100 100 100 100 99 97 95 92 93 95 89 88 93 96 96 100 100 98 90 77 62
2 2 3 3 4 5 5 6 12 23 34 50 66 75 78 88 92 94 96 100 100 100 100 100 100 100 98 99 99 98 95 92 93 98 96 97 97 96 96 89 80 63 49

GFSGL_250_rhum_081.txt.gz
RH
67 85 98 91 89 100 99 100 100 100 94 100 100 100 100 100 100 100 100 100 99 78 64 63 83 100 82 86 100 97 100 99 75 98 100 100 100 76 75 59 39 40 41
100 100 100 91 100 100 100 100 100 100 100 100 100 100 100 100 100 100 100 100 74 71 95 94 99 97 100 77 92 99 100 100 100 95 58 66 61 45 36 36 42 38 40
100 100 100 77 100 100 98 90 96 100 99 100 100 100 100 89 78 80 100 100 100 100 100 100 100 100 100 99 97 88 99 88 79 54 66 81 37 40 41 36 36 38 37
100 100 100 100 100 98 98 100 100 82 88 99 100 100 100 100 100 100 100 100 100 100 100 100 95 87 87 93 87 76 62 45 50 76 58 38 38 37 36 32 28 28 24
95 100 100 100 100 100 100 100 100 100 100 100 100 100 100 100 97 95 94 92 91 100 98 97 99 86 74 67 50 47 70 72 51 39 39 37 32 25 27 25 18 18 19
100 100 100 100 100 100 100 100 100 100 100 100 100 100 96 100 100 100 88 78 80 78 78 74 82 76 52 60 86 61 41 39 39 30 27 25 26 20 16 17 18 17 20
100 100 100 100 100 100 100 100 100 98 100 100 100 100 100 98 94 79 70 74 69 66 61 66 74 98 90 63 44 38 30 26 25 26 23 18 16 17 18 19 22 22 26
60 90 100 100 100 100 100 100 97 95 95 85 90 82 81 83 91 97 100 98 95 93 88 83 74 52 41 35 27 25 24 23 21 19 18 17 19 21 24 21 22 24 27
22 31 47 70 82 93 97 93 88 87 94 98 99 98 95 89 84 70 53 46 44 44 44 43 38 31 26 22 22 21 20 19 18 18 19 22 25 24 22 21 24 25 28
16 16 16 17 22 26 26 28 31 33 34 35 35 36 35 36 36 35 34 32 33 32 29 26 24 21 22 20 18 19 18 21 24 24 25 26 27 28 28 26 26 27 31
18 18 17 15 14 16 19 24 26 26 27 30 31 32 32 31 29 29 28 26 25 24 23 22 20 19 19 21 21 24 25 30 29 30 31 39 41 38 32 32 35 34 38
18 19 20 17 18 18 19 19 20 21 22 23 23 23 24 24 24 25 26 25 24 21 21 22 22 22 24 26 28 31 34 42 43 52 56 59 51 42 40 44 49 59 70
17 18 17 20 21 19 18 21 23 25 25 25 24 24 26 26 27 29 29 28 25 26 30 30 30 30 32 37 39 43 52 62 53 62 71 65 57 50 51 56 62 68 64
13 12 13 16 17 19 22 23 22 25 31 34 33 31 33 34 36 38 38 38 34 34 36 37 37 40 48 57 55 56 55 52 56 71 80 69 67 69 73 81 89 91 94
10 9 9 11 13 16 18 24 28 32 36 38 41 43 46 45 43 49 48 45 47 44 42 46 48 57 65 68 55 42 38 50 66 80 82 78 79 85 90 93 95 98 99
6 7 6 7 9 13 16 20 26 36 40 42 46 52 53 54 55 62 64 56 53 51 56 53 64 80 76 59 44 35 43 68 79 85 80 81 87 84 86 87 92 96 99
4 5 5 5 6 8 11 15 21 29 36 50 58 63 65 65 66 76 74 74 68 70 78 81 85 85 69 54 40 40 60 71 83 86 85 92 94 93 93 95 99 100 100
4 4 4 4 4 6 7 10 14 19 24 41 55 68 71 71 79 88 86 92 91 90 95 94 86 84 65 58 48 52 77 89 95 96 94 97 96 97 100 100 100 99 98
3 3 4 4 4 4 5 7 9 14 19 25 39 59 73 85 88 92 93 96 95 95 96 92 83 89 78 70 62 63 86 93 96 97 97 97 100 99 91 90 91 92 92
4 5 4 4 4 4 5 5 7 10 14 18 24 41 64 82 94 96 99 98 95 97 98 93 87 91 89 85 85 85 89 92 91 85 88 93 96 94 93 90 87 91 96
5 5 5 6 6 5 4 5 6 7 11 16 22 36 52 79 95 95 97 99 100 100 100 97 90 92 96 92 93 95 86 85 89 86 89 89 91 89 88 85 87 94 92
6 6 6 6 6 6 6 5 5 6 8 14 20 32 52 79 91 95 93 91 95 97 97 94 93 96 98 98 99 100 100 100 100 100 95 86 87 93 91 90 94 96 95
4 5 5 6 6 6 6 6 6 6 7 11 19 37 61 83 90 94 91 92 95 96 97 97 99 100 97 100 100 100 100 100 98 96 92 93 95 98 96 100 100 97 92
4 4 5 5 5 6 6 6 6 6 6 10 21 39 65 84 89 94 93 93 95 96 100 100 100 100 100 100 100 100 97 97 97 94 97 97 96 92 93 95 94 96 99
4 4 4 4 5 5 5 6 6 6 6 8 19 39 65 84 92 94 93 94 96 98 100 100 100 100 100 100 100 100 100 100 96 94 93 90 88 92 92 92 95 91 92
4 4 4 4 4 4 4 5 6 6 6 8 18 36 61 82 91 95 94 95 97 98 98 100 100 100 100 100 100 100 100 100 100 99 96 97 96 94 91 90 92 91 92

GFSGL_250_rhum_084.txt.gz
RH
100 100 100 100 95 100 100 100 100 100 100 100 99 91 85 96 98 96 100 100 98 100 100 100 89 89 100 100 99 90 70 95 92 100 100 100 100 100 100 97 86 89 64
100 100 100 100 100 100 100 100 100 100 100 100 100 100 100 100 100 100 100 100 100 100 95 100 100 100 100 94 99 100 99 100 99 90 98 100 88 75 99 66 71 50 50
99 100 100 100 100 100 100 100 100 100 100 100 100 100 100 100 100 100 100 100 100 100 100 100 100 100 100 100 100 100 100 100 43 97 100 97 66 70 72 61 55 37 49
96 95 84 92 100 100 100 100 100 100 100 100 100 100 100 100 100 100 100 100 100 100 100 100 100 98 100 93 90 77 88 89 100 85 80 83 97 57 51 50 50 33 22
98 98 85 100 96 100 100 100 100 100 100 100 100 100 100 100 100 100 100 100 100 100 100 100 100 96 79 70 82 67 100 100 73 91 72 82 68 46 72 34 27 20 16
81 71 97 92 96 73 80 80 100 100 100 100 100 100 100 100 100 100 100 96 100 100 100 100 93 66 50 57 100 100 75 84 62 85 76 45 58 54 29 26 16 17 17
100 100 94 100 87 94 88 100 80 73 78 80 87 96 98 100 100 100 74 79 100 100 100 93 77 100 100 98 61 68 75 80 80 72 68 57 29 32 22 19 16 16 18
85 94 97 100 100 96 81 97 96 97 95 80 85 76 75 100 100 100 98 95 100 100 100 90 98 82 93 93 95 91 74 78 68 65 36 28 25 22 18 17 18 22 22
92 93 81 100 100 99 91 95 100 100 100 100 100 100 100 100 100 100 100 85 87 98 100 100 100 99 100 92 71 71 72 79 57 32 28 23 20 19 19 20 24 26 35
26 43 82 96 96 81 73 78 83 89 100 100 100 100 88 86 100 100 100 100 100 100 100 93 94 89 76 75 79 78 45 32 29 26 21 19 21 22 24 25 39 49 46
22 22 20 21 24 43 75 97 88 80 85 96 100 99 91 99 100 100 100 100 100 93 91 98 100 88 76 82 54 34 31 28 22 21 20 22 24 28 28 38 51 59 50
15 15 16 18 20 19 20 19 18 36 59 78 99 100 99 97 82 82 89 90 94 100 98 97 90 62 42 34 31 28 23 22 22 23 25 26 30 33 43 42 67 65 62
10 12 11 12 14 15 18 19 19 19 19 23 24 28 38 58 68 67 58 47 49 56 54 36 34 32 29 26 24 22 24 27 26 28 28 31 40 45 44 56 72 74 72
6 6 8 10 8 10 11 14 16 17 18 19 18 19 22 24 26 26 25 26 28 29 30 29 29 30 28 26 28 29 32 31 32 32 36 51 45 37 45 78 78 81 78
4 4 4 5 6 6 6 7 10 13 15 18 22 21 21 23 26 28 31 34 34 32 32 41 40 41 37 33 36 40 38 38 38 47 60 48 35 41 76 91 83 84 90
4 4 4 4 4 5 5 6 6 7 10 13 18 22 26 29 32 35 41 50 56 58 56 52 48 52 49 51 51 48 49 46 63 68 55 42 41 68 85 88 84 91 96
3 3 3 3 4 4 4 4 5 7 8 10 13 17 22 28 36 43 49 52 55 58 67 58 69 71 68 68 67 71 74 80 86 62 48 46 70 85 91 92 96 98 98
3 3 3 3 3 3 3 4 4 4 6 8 11 15 20 27 35 44 49 56 76 82 72 68 81 84 82 91 94 96 96 96 86 64 56 72 81 89 95 100 100 98 96
4 4 4 4 4 3 3 3 3 4 4 5 8 10 15 23 32 40 49 65 80 88 89 91 94 93 99 100 100 100 98 97 84 78 76 86 90 98 99 100 100 100 100
4 5 5 5 5 5 4 4 4 3 3 4 6 8 11 18 26 36 48 63 81 86 88 96 100 100 100 100 100 100 99 95 91 87 87 89 90 95 99 100 98 100 100
4 4 4 5 5 5 5 5 4 4 4 4 5 6 9 14 23 33 45 62 74 82 87 99 99 100 100 100 100 100 98 92 98 95 88 86 95 100 100 100 99 98 98
4 4 4 5 5 5 6 6 6 6 6 5 5 5 7 12 18 28 41 58 72 80 91 100 100 100 100 100 100 100 100 99 100 100 98 100 100 99 100 100 98 95 94
3 4 4 4 5 5 5 6 6 6 7 7 6 5 6 10 15 22 32 49 66 81 98 100 100 100 100 98 99 100 100 100 100 100 99 100 100 100 100 100 100 99 94
3 3 3 4 5 6 5 5 6 6 7 8 8 7 6 8 13 20 33 48 68 85 98 100 100 100 98 94 99 100 100 100 100 100 100 100 100 100 99 96 92 92 90
3 3 3 4 4 5 5 5 5 6 6 7 8 8 7 8 12 21 34 51 74 90 98 100 100 100 99 100 100 100 100 100 100 100 100 97 95 93 93 93 97 94 89
3 3 3 4 4 4 4 5 5 5 6 7 8 8 7 8 13 22 38 59 76 88 96 99 99 100 100 100 100 100 100 100 100 97 99 100 100 99 100 100 100 94 91

GFSGL_250_rhum_087.txt.gz
RH
100 100 97 100 100 87 100 100 100 100 100 100 100 100 98 100 100 100 100 100 100 100 100 86 100 100 100 100 98 100 100 100 92 100 100 66 62 100 99 100 100 100 75
100 100 100 100 100 100 99 91 98 100 100 100 100 100 100 88 100 100 100 100 100 100 100 100 100 100 100 100 100 100 100 100 84 100 53 96 100 100 100 100 90 75 80
100 100 100 100 100 100 100 100 100 100 100 100 100 100 100 100 100 100 100 100 100 100 100 100 98 100 100 100 99 100 100 97 84 84 100 100 97 100 100 67 87 100 51
100 100 100 100 100 100 100 100 100 100 100 100 100 100 100 100 100 100 100 100 100 100 100 100 100 100 100 100 100 98 80 83 98 100 99 75 97 79 78 98 83 77 65
100 100 100 100 100 100 100 100 100 100 100 100 100 100 100 100 100 100 100 100 100 100 100 100 100 100 100 94 93 100 100 76 100 99 100 88 75 62 41 75 79 93 57
100 100 100 100 100 100 100 100 100 100 100 100 100 100 100 100 100 100 100 100 100 100 100 100 100 100 100 100 100 100 100 100 100 90 100 78 47 46 71 78 60 67 66
100 100 100 98 100 82 99 100 100 100 100 100 100 100 100 100 100 100 100 100 100 100 100 100 100 100 100 100 95 98 100 100 98 100 100 59 50 88 70 68 73 67 67
100 100 100 100 92 78 75 77 90 100 100 100 100 100 100 100 100 100 100 100 100 100 100 100 100 100 100 97 100 100 100 96 100 88 90 59 99 96 86 67 64 70 43
100 100 100 100 98 96 100 99 76 73 78 87 82 80 89 96 94 100 100 100 100 100 100 100 100 100 98 100 100 98 98 95 94 78 61 97 98 70 75 70 65 66 24
100 98 88 84 90 96 92 97 97 95 85 80 84 76 91 81 80 62 70 55 76 90 96 100 100 98 71 57 84 80 94 97 97 100 84 93 78 66 64 54 35 22 19
77 74 79 84 80 82 81 99 97 88 87 95 96 91 82 85 99 90 94 98 97 76 79 79 72 69 66 83 90 96 98 100 100 85 99 100 86 61 50 29 22 21 24
32 32 28 32 44 68 82 75 66 60 52 68 81 71 79 96 99 98 92 100 100 100 100 99 98 100 100 100 100 95 93 97 98 93 86 80 77 34 25 21 23 26 31
14 19 21 25 24 26 26 23 25 28 18 13 19 49 63 63 65 71 74 78 88 92 95 95 100 100 100 100 99 91 94 97 94 80 71 36 26 25 22 23 27 32 44
5 5 6 7 10 14 15 16 16 16 15 18 19 17 14 14 15 21 29 42 67 80 86 86 88 83 88 95 88 86 76 67 52 37 29 26 28 28 28 29 31 53 48
3 3 3 3 3 4 4 6 7 8 9 10 12 13 16 18 19 18 17 17 20 22 24 29 32 30 34 38 40 42 41 47 41 36 39 36 34 35 38 36 55 59 42
2 2 2 3 3 3 3 3 4 4 5 7 9 9 11 12 14 17 20 22 25 27 28 26 31 36 39 45 48 57 65 63 60 60 51 43 46 46 50 65 64 46 46
3 3 3 3 3 3 3 3 3 4 4 4 5 6 8 9 12 13 14 18 23 28 33 36 42 53 60 64 75 76 75 73 84 68 59 60 61 64 82 79 58 54 82
4 4 4 4 4 3 3 3 3 3 3 4 4 5 5 6 8 10 13 16 20 32 44 47 46 55 66 84 92 96 90 88 88 81 76 78 84 85 95 85 74 78 88
4 4 5 5 4 4 4 4 4 4 4 4 4 4 5 5 6 6 8 10 17 37 55 60 58 66 80 88 93 98 93 100 96 97 93 94 100 99 97 90 91 91 93
4 4 4 4 4 4 5 5 5 6 6 5 4 4 4 4 5 5 6 9 17 35 51 56 62 73 86 92 98 95 95 100 99 100 100 100 100 99 97 99 97 97 92
3 3 4 4 4 4 4 5 5 5 6 6 6 5 4 4 4 5 6 8 15 29 39 50 58 76 88 94 100 99 98 100 100 100 100 100 100 100 100 100 100 100 100
3 3 3 4 4 4 4 4 5 5 5 6 6 5 5 5 4 5 6 9 16 26 34 42 58 75 89 96 100 100 95 100 100 100 100 100 100 100 100 100 100 100 100
2 3 3 3 3 3 4 4 5 5 5 6 7 6 6 7 6 6 7 10 15 26 36 45 61 78 85 93 100 100 100 100 99 100 100 100 100 100 100 100 100 100 100
2 3 3 3 4 4 4 4 4 5 5 6 7 7 7 8 8 7 7 8 15 24 36 49 57 75 86 94 99 100 100 100 100 100 100 100 99 99 100 100 100 100 100
3 3 3 3 3 4 4 4 5 5 5 6 7 7 8 9 9 8 7 8 12 20 33 45 56 76 84 91 98 100 100 100 100 100 100 100 100 100 100 100 100 100 100
3 3 3 3 3 3 4 4 4 4 5 6 6 7 8 9 10 9 9 8 9 17 32 45 61 78 85 92 99 100 100 100 100 100 100 100 100 100 100 100 100 100 100

GFSGL_250_rhum_090.txt.gz
RH
100 100 100 100 100 100 100 100 100 100 100 96 100 86 100 100 100 99 99 100 100 100 100 100 100 100 97 100 100 100 100 100 100 100 100 92 99 92 100 99 95 96 78
100 100 100 100 100 100 100 100 100 100 100 100 100 100 88 100 100 95 60 84 100 96 100 100 77 88 100 71 100 100 100 100 94 100 88 100 100 90 82 86 100 89 89
100 100 100 100 100 100 100 100 100 100 100 100 100 100 100 100 100 98 84 100 94 77 70 89 90 92 94 92 88 97 100 100 100 100 78 81 100 100 100 100 87 92 100
100 100 100 100 100 100 100 100 100 100 100 100 100 100 100 100 100 100 100 100 100 100 100 100 100 94 100 100 100 100 100 98 100 100 100 88 98 100 100 88 91 100 100
96 100 100 100 100 100 100 100 100 100 100 100 100 100 100 100 100 100 100 100 100 100 100 100 100 100 100 100 100 98 100 100 100 100 100 100 100 89 98 96 100 100 100
100 100 100 100 100 100 100 100 100 100 100 100 100 100 100 100 100 100 100 100 100 100 100 100 100 100 100 100 100 100 93 100 100 100 100 100 100 100 100 99 100 88 100
100 100 100 100 100 100 100 100 100 100 100 100 100 96 100 100 100 100 100 100 100 100 100 100 100 100 100 100 100 100 100 100 100 100 100 100 100 88 93 100 80 100 76
100 100 100 100 100 100 99 100 100 100 99 100 100 96 100 100 100 99 100 92 100 100 100 100 100 100 100 100 100 100 100 100 100 100 100 100 100 100 100 99 93 87 87
100 100 100 100 100 100 100 100 100 100 99 99 99 100 100 100 100 79 88 100 100 100 100 100 100 100 100 100 100 100 100 100 100 100 100 100 100 100 93 78 57 66 82
100 100 100 100 95 94 99 100 100 100 100 92 90 86 91 86 88 100 92 89 100 100 92 94 100 100 100 100 100 100 100 90 93 100 100 97 94 89 87 81 100 92 99
84 89 97 82 76 81 86 96 100 95 95 87 77 66 85 100 99 100 97 100 100 100 100 100 100 100 100 100 100 100 100 100 100 100 95 100 99 81 97 99 97 96 95
33 42 66 76 76 71 78 57 56 68 81 96 94 90 84 90 87 99 100 100 98 87 100 100 95 95 100 100 100 100 100 98 100 100 100 100 84 87 95 100 100 89 80
18 21 26 25 23 21 17 16 44 55 42 40 38 42 85 97 97 100 96 100 86 82 100 99 100 87 100 100 92 89 98 100 93 98 93 100 94 99 88 92 94 41 33
10 8 7 9 12 15 16 16 18 20 20 17 14 14 42 46 54 70 80 97 96 86 81 72 95 91 99 95 86 75 71 78 74 67 90 77 91 87 65 40 35 33 31
5 4 3 3 3 3 3 4 6 8 11 14 16 17 18 18 25 27 30 46 67 64 34 26 44 65 74 72 67 59 38 32 31 38 42 47 48 39 44 50 47 43 38
3 3 2 2 2 2 2 2 2 2 3 4 5 8 13 16 18 18 19 22 26 26 24 23 23 24 25 28 24 24 34 36 42 44 49 53 48 65 68 68 63 61 54
3 2 2 2 3 3 3 3 3 2 3 3 3 3 4 6 8 10 14 18 22 21 21 25 26 27 26 28 28 31 39 45 54 60 67 63 70 82 79 89 88 80 79
3 3 4 4 4 4 4 4 4 4 4 3 3 3 3 4 4 5 6 7 10 11 16 26 30 31 31 28 44 48 52 71 72 74 79 82 88 90 100 100 100 95 96
3 4 4 4 3 4 4 5 5 6 6 5 4 4 4 4 4 4 4 5 6 6 8 13 16 24 30 35 36 61 75 85 83 84 90 92 94 100 100 100 100 100 100
3 3 3 3 3 3 3 4 4 4 5 5 5 5 5 5 5 4 4 5 5 6 7 9 9 13 20 24 34 79 83 88 91 92 91 99 100 100 100 100 100 100 100
2 2 2 2 2 2 2 3 3 4 4 5 5 5 5 6 6 7 6 6 5 5 6 8 8 11 16 22 40 77 90 86 87 94 99 100 100 100 100 100 100 100 100
2 2 2 2 2 2 2 3 3 4 4 4 4 4 5 7 7 8 8 7 6 5 6 7 8 11 14 23 50 74 84 89 93 97 100 100 100 100 100 100 100 100 100
2 2 2 2 2 2 3 3 4 4 4 4 4 4 5 7 7 8 8 8 7 6 7 8 10 13 17 27 48 60 76 88 97 99 100 100 100 100 100 100 100 100 100
2 2 2 2 2 3 3 3 3 4 4 4 4 5 6 7 7 7 8 8 7 7 7 9 11 14 20 30 44 64 75 88 94 100 100 100 100 100 100 100 100 100 100
2 2 2 2 2 3 3 3 3 3 4 4 4 5 7 7 7 8 8 8 8 8 8 9 12 16 25 37 50 64 75 88 97 99 100 100 100 100 100 100 100 100 100
2 2 2 2 2 2 3 3 3 3 4 4 5 6 7 7 8 9 10 10 10 9 9 10 14 19 28 38 53 74 90 100 100 100 98 100 100 100 100 100 99 100 99

GFSGL_250_rhum_093.txt.gz
RH
87 100 100 100 100 100 100 100 100 100 100 100 100 100 100 100 100 100 100 100 100 100 100 100 100 100 98 100 100 100 100 99 100 100 100 99 100 93 70 63 70 74 82
100 100 100 100 100 100 100 100 100 100 100 100 100 100 100 100 100 98 96 99 100 100 100 100 96 86 95 72 82 86 87 86 100 100 99 91 96 77 49 72 69 91 100
100 100 100 100 100 100 100 100 100 100 100 100 100 100 100 100 100 97 100 87 81 88 99 81 93 77 74 100 75 84 76 66 77 98 85 76 92 94 72 91 90 90 76
100 100 100 100 100 100 100 100 100 100 100 100 99 94 100 100 100 100 97 100 100 85 78 96 99 87 97 100 86 64 54 88 91 100 74 93 100 96 96 100 86 98 96
100 100 100 100 100 100 100 100 100 100 100 100 100 100 100 89 92 100 100 99 100 98 96 82 99 94 89 98 99 78 78 100 91 100 100 100 100 100 100 89 100 76 99
100 100 100 100 100 100 100 100 100 100 100 100 100 100 100 100 100 100 98 100 100 100 100 100 100 100 100 98 100 100 100 93 100 100 100 100 100 100 100 100 100 100 100
100 100 100 100 100 100 100 100 100 100 100 100 100 100 100 100 100 100 100 100 100 100 100 100 100 100 100 100 100 100 100 100 100 100 90 100 95 100 99 100 100 100 100
100 100 100 100 100 100 100 100 98 97 100 100 100 100 100 100 100 100 100 100 100 100 100 100 100 100 100 100 100 100 100 100 100 100 100 100 100 100 100 100 100 97 100
100 100 100 100 100 100 100 100 100 100 99 100 100 100 100 100 100 100 100 100 100 93 99 100 100 100 100 100 100 100 100 100 100 100 100 100 100 100 100 100 98 99 100
76 98 100 100 100 99 99 99 100 100 100 100 100 100 100 100 100 100 99 98 81 98 94 94 100 92 92 99 100 100 91 100 87 100 99 97 100 100 100 100 100 100 100
46 41 43 56 74 85 91 89 80 80 72 85 81 76 58 69 62 84 89 90 87 94 100 100 100 100 100 100 100 100 100 100 100 100 100 100 100 100 100 100 100 100 99
37 29 24 23 24 27 34 47 62 64 58 49 53 67 75 72 75 84 79 100 100 100 100 100 100 100 100 100 100 100 100 100 100 100 100 100 100 100 100 100 100 100 100
38 33 26 20 15 13 14 17 19 20 23 22 18 24 34 34 43 47 75 98 100 92 99 100 100 100 100 100 100 100 100 100 100 100 100 100 100 100 100 100 100 100 100
35 24 16 10 7 6 5 6 8 9 11 13 13 15 17 18 34 43 39 45 54 57 62 62 62 82 76 94 89 95 100 100 100 100 98 100 100 100 100 86 82 78 64
24 12 6 4 3 3 2 2 2 3 3 3 4 5 6 12 17 18 19 21 22 27 26 28 38 47 56 41 47 61 71 74 54 48 64 64 79 80 63 41 44 56 50
11 4 3 2 3 3 2 2 2 2 2 2 2 2 3 3 4 5 9 16 20 18 18 21 26 25 25 26 31 27 24 26 42 62 70 73 50 35 36 47 56 67 61
5 3 3 3 3 4 3 3 3 3 3 3 3 3 3 3 3 3 3 3 4 5 8 14 20 22 24 25 23 23 28 33 38 41 55 50 41 47 55 62 81 72 82
3 3 3 3 3 3 3 3 3 3 3 4 4 4 4 4 4 4 3 3 3 4 4 5 7 11 13 18 24 29 32 36 41 48 54 59 66 72 78 82 85 95 99
4 3 3 2 2 2 2 2 2 3 3 3 3 4 4 4 4 5 5 5 4 4 4 5 5 7 10 14 19 24 32 36 36 49 74 78 69 87 90 97 100 100 100
3 2 2 2 2 2 2 2 2 2 2 2 2 3 4 4 5 5 5 6 6 6 5 5 6 6 8 10 14 17 23 30 46 57 61 74 81 94 98 100 100 100 100
2 2 2 2 2 2 2 2 2 2 2 2 2 2 3 4 4 5 5 6 7 7 6 6 6 6 7 8 9 11 14 27 43 44 53 79 88 100 98 100 100 100 100
2 2 2 2 2 2 2 2 2 2 2 2 2 2 3 3 4 5 5 6 7 8 8 8 8 7 7 8 9 11 16 24 34 53 72 82 93 91 97 100 100 100 100
2 2 2 2 2 2 2 2 2 2 2 2 3 3 4 4 4 5 6 6 6 7 8 9 9 9 9 8 9 12 17 25 37 50 71 84 88 92 100 100 100 100 100
2 2 2 2 2 2 2 3 3 3 3 3 3 4 4 5 5 5 6 6 7 7 8 9 10 10 10 9 10 13 19 26 37 54 69 80 84 95 100 100 100 100 100
2 2 3 3 2 2 2 2 3 3 3 3 3 4 4 5 4 5 6 6 7 8 9 10 12 12 10 10 11 14 19 27 31 41 61 72 80 91 98 100 100 100 98
3 3 3 3 2 2 2 2 2 3 3 3 4 4 5 5 5 5 6 7 7 9 10 12 12 10 9 10 11 14 18 24 34 54 66 73 82 90 89 100 100 100 100

GFSGL_250_rhum_096.txt.gz
RH
68 70 67 63 58 39 30 46 91 100 100 100 100 100 100 100 100 97 100 100 100 99 100 100 100 100 100 100 98 100 92 97 95 100 100 100 100 100 98 87 78 64 61
68 63 61 99 75 59 69 55 60 100 100 100 100 100 100 100 100 100 100 100 100 100 86 100 92 100 100 100 100 100 100 100 100 100 100 100 100 100 99 80 87 73 66
75 73 100 100 100 100 100 100 95 100 100 100 100 100 100 100 100 100 100 100 100 100 92 99 100 100 84 86 97 100 100 100 100 100 100 100 100 79 75 62 80 83 58
64 74 87 92 100 100 100 100 100 100 100 100 100 100 100 100 100 100 100 100 100 100 100 100 100 100 100 100 100 100 100 100 95 82 79 75 75 66 53 70 72 86 91
100 100 100 100 100 100 100 100 100 100 100 100 100 100 100 100 100 100 100 100 100 100 100 100 100 99 98 99 100 100 95 81 66 74 61 55 86 69 56 78 93 80 94
60 84 94 100 100 100 100 100 100 100 100 100 100 100 100 100 100 100 100 100 100 100 100 100 100 100 100 100 96 81 88 80 69 74 67 75 54 85 73 85 97 100 95
100 90 100 100 100 100 100 100 100 100 100 100 100 100 100 100 100 100 100 100 100 100 100 99 100 100 90 99 100 100 97 100 98 100 95 99 95 89 100 100 100 100 100
97 99 100 100 100 100 100 100 100 100 100 100 100 100 100 100 100 100 100 100 100 100 100 100 100 100 98 100 100 100 100 100 100 100 100 100 100 100 100 100 100 100 100
79 88 99 100 100 100 100 100 100 100 100 100 100 100 100 100 100 100 100 100 100 100 100 100 100 100 100 100 100 100 100 100 100 100 100 100 100 100 100 100 100 100 100
70 65 68 75 85 96 100 100 98 100 100 100 100 100 100 100 100 100 100 100 100 100 100 100 100 100 100 100 100 100 100 100 100 100 100 100 100 100 100 100 100 100 100
53 54 56 58 60 62 65 70 76 77 85 98 100 100 97 97 99 100 100 100 100 100 100 100 100 100 100 100 100 100 100 98 100 100 100 100 100 100 100 100 100 100 100
47 49 51 50 42 39 37 36 36 43 46 51 62 73 80 84 73 74 67 64 71 78 70 87 100 98 100 100 100 100 100 100 100 100 100 100 100 100 100 100 100 100 100
49 53 53 46 40 28 22 19 18 23 24 26 28 25 30 33 33 35 37 38 44 37 46 57 69 74 68 65 95 100 100 100 100 100 100 100 100 100 100 100 100 100 100
51 51 51 43 32 23 12 7 5 4 6 8 10 11 16 15 19 22 24 25 25 25 26 30 38 41 49 57 72 98 99 100 100 100 100 100 100 100 100 100 94 73 75
53 52 42 25 13 6 3 3 2 2 2 2 2 2 2 3 4 5 7 9 12 15 17 19 23 25 25 23 34 56 65 69 75 86 96 99 99 92 83 72 68 61 61
54 44 27 13 5 3 3 3 2 2 2 3 3 3 3 3 3 2 2 3 3 4 5 10 15 16 16 18 20 21 29 35 54 76 76 78 86 79 68 63 61 54 41
48 30 12 4 3 3 2 2 2 2 2 2 2 3 3 3 4 3 3 3 3 3 3 4 4 5 8 12 18 19 30 38 42 50 58 58 60 52 50 56 53 47 39
38 15 4 4 3 2 2 2 2 2 1 1 2 2 2 3 3 4 4 4 4 4 3 3 4 4 5 7 10 15 25 31 33 33 38 39 41 45 44 45 45 41 57
22 5 4 3 2 2 2 2 2 2 2 2 1 2 2 2 3 3 4 5 5 5 5 5 5 5 5 5 5 6 8 10 16 22 26 28 31 36 46 52 58 57 68
9 4 3 2 2 2 2 2 2 2 2 2 2 2 2 2 2 3 3 4 5 6 6 7 7 6 6 6 5 6 7 8 9 11 13 18 29 40 52 58 77 87 82
5 4 3 2 2 2 2 2 2 2 2 2 2 2 2 3 2 2 3 3 4 4 6 7 8 8 8 8 6 6 6 7 9 11 14 19 28 45 60 70 68 79 90
5 4 3 3 2 2 3 3 3 2 2 2 2 2 2 3 3 2 3 3 3 4 4 6 7 9 9 10 9 8 7 8 10 11 13 24 35 56 71 75 81 86 95
4 4 3 3 3 3 3 3 2 2 2 2 2 2 2 3 3 3 3 3 3 4 4 5 6 8 9 10 10 10 9 10 10 11 18 35 46 59 66 76 87 96 99
4 3 4 3 3 3 2 2 2 2 2 2 2 3 3 3 4 4 5 4 4 5 5 6 6 7 9 11 12 12 12 12 14 17 22 30 46 58 74 86 93 98 98
4 4 4 3 3 2 2 2 2 2 2 2 2 3 3 3 4 4 5 6 6 6 6 6 7 8 10 12 14 14 14 13 13 15 20 26 40 59 76 80 84 90 96
4 4 4 3 3 2 2 2 2 2 2 2 2 3 3 3 4 4 5 6 6 6 6 8 9 10 12 14 16 16 14 14 14 16 26 36 52 67 70 76 85 91 99

GFSGL_250_rhum_102.txt.gz
RH
7 7 8 9 10 12 16 19 20 22 23 23 23 20 18 20 39 90 100 100 100 100 100 99 100 100 100 100 100 100 100 100 100 92 90 85 100 100 100 96 94 91 72
8 8 10 10 10 11 11 11 12 13 14 14 15 20 26 66 92 100 100 100 100 100 100 100 100 100 100 100 100 100 100 100 100 100 79 84 90 78 76 72 87 100 100
16 14 14 14 14 15 14 14 14 17 26 38 50 75 51 76 78 99 100 100 100 100 100 100 99 100 100 100 99 100 100 100 100 100 100 100 100 100 100 100 100 82 98
41 54 56 49 54 49 55 52 53 53 67 76 100 100 100 100 100 97 98 97 96 96 97 100 100 100 100 100 100 100 100 100 100 100 100 100 100 100 100 100 100 94 100
31 50 76 93 100 100 96 96 88 94 96 100 100 100 100 100 100 100 100 100 100 100 100 100 100 100 100 100 100 100 100 100 100 99 100 100 100 100 100 100 100 99 100
54 66 56 60 82 100 100 100 100 100 100 100 100 100 100 100 100 100 100 100 100 100 100 100 100 100 100 100 100 100 100 100 100 100 100 100 100 100 100 100 100 96 94
48 66 78 80 86 80 76 86 77 96 97 98 99 100 100 100 100 100 100 100 100 100 100 100 100 100 100 100 100 100 100 100 99 97 98 100 100 100 100 96 88 98 100
59 60 60 60 69 71 75 78 77 95 96 100 96 91 88 96 96 100 100 100 99 100 100 100 100 100 100 100 100 100 100 100 100 100 100 94 85 81 68 85 94 92 76
69 69 70 69 69 71 70 69 71 70 69 68 72 84 91 92 99 95 81 89 100 97 100 100 100 100 100 100 100 100 100 100 100 100 100 100 100 100 100 100 100 100 100
72 74 77 76 72 73 70 70 72 71 75 77 79 80 80 76 88 95 97 96 99 100 100 100 100 100 100 100 100 100 100 100 100 100 100 100 100 100 100 100 100 100 100
69 67 67 62 59 55 56 63 65 63 71 70 62 55 65 70 71 59 55 57 54 51 50 73 70 68 75 95 98 93 98 100 100 100 100 100 100 100 100 100 100 100 100
58 54 51 46 46 47 48 46 44 44 42 42 42 41 43 48 51 48 49 52 49 41 41 41 36 31 31 40 52 79 99 89 72 92 100 100 93 96 100 100 100 100 100
48 46 49 52 51 52 47 43 43 43 41 44 40 33 31 29 25 22 20 14 10 11 16 22 29 34 31 31 32 30 34 42 51 71 88 97 100 100 100 100 100 99 100
51 51 51 58 63 66 60 53 50 52 47 45 40 34 28 22 17 7 4 3 3 3 3 3 4 4 7 10 13 21 28 40 47 51 56 64 88 91 86 97 100 100 100
61 66 68 68 70 72 64 53 48 45 40 33 26 19 16 9 4 3 3 2 2 2 2 2 2 2 3 4 4 4 7 16 32 48 54 56 63 74 78 84 97 97 100
79 75 72 71 68 67 63 60 46 36 26 20 14 10 4 3 3 3 2 2 2 2 2 2 2 2 2 2 3 3 4 4 6 17 34 38 44 54 50 63 74 83 82
84 75 76 76 75 72 57 46 42 37 26 16 8 4 3 3 3 2 2 2 2 2 2 2 2 2 2 2 2 2 3 4 5 5 7 12 36 40 40 49 55 53 54
94 84 84 78 68 56 45 35 30 24 18 10 4 3 3 3 3 2 2 2 2 2 2 2 2 2 2 2 2 2 3 3 4 5 6 8 14 24 23 27 46 48 56
86 82 78 66 56 44 34 31 24 17 6 4 3 4 3 3 2 2 2 2 2 2 3 3 2 2 2 2 2 2 2 3 4 6 6 7 8 7 9 20 24 24 40
84 78 73 59 52 41 33 27 19 7 4 4 4 3 2 2 2 2 2 2 2 2 3 3 3 2 2 2 2 2 3 4 5 6 7 7 8 8 9 9 12 15 20
77 78 60 49 46 33 30 20 7 4 4 4 3 2 2 2 2 2 2 2 2 2 3 3 3 2 2 2 2 3 3 4 5 7 8 8 9 9 10 11 12 14 14
74 67 59 46 36 34 25 9 4 4 4 4 3 2 2 2 2 2 2 2 2 2 3 3 3 2 2 2 3 3 4 4 6 7 8 9 9 9 9 8 11 11 17
57 70 52 41 34 30 12 5 4 5 4 3 2 2 2 2 2 2 2 2 2 3 3 3 3 3 3 3 3 3 4 6 7 8 9 10 10 9 8 10 10 12 16
60 50 41 37 33 17 6 5 6 5 3 2 2 2 2 2 2 2 2 3 3 4 4 3 3 3 3 3 4 4 5 6 7 8 10 11 12 12 11 11 13 14 18
46 46 38 35 26 8 6 6 6 4 3 2 2 2 3 3 3 3 3 3 4 4 4 4 4 4 4 4 4 4 5 6 8 9 11 12 13 12 12 12 12 13 16
46 41 38 32 12 7 7 7 6 4 3 2 2 3 3 3 4 4 4 4 4 5 5 5 5 5 5 4 5 5 6 7 8 10 12 13 12 12 12 12 15 20 26

GFSGL_250_rhum_105.txt.gz
RH
5 5 5 6 7 8 9 10 13 17 21 22 22 25 25 19 13 15 28 60 92 95 83 59 55 68 82 88 100 100 100 100 100 100 100 100 100 100 100 100 100 100 100
6 7 7 7 7 8 9 9 10 10 10 11 12 12 13 18 36 50 64 62 61 55 44 38 71 100 100 100 100 100 100 100 100 100 100 100 100 100 100 100 100 100 94
10 9 9 9 9 10 11 12 13 14 17 19 22 25 27 31 34 37 41 36 35 52 72 77 100 100 100 100 100 100 100 100 100 100 88 85 98 93 93 100 100 91 92
35 25 18 17 15 14 14 14 14 15 16 15 16 20 22 22 30 42 49 86 71 81 100 100 100 100 100 100 100 100 100 100 100 100 100 100 100 100 100 100 100 100 100
50 66 78 75 77 70 60 59 51 43 40 44 48 63 59 55 62 100 91 97 95 99 100 100 100 100 100 100 100 100 100 100 100 100 100 100 100 100 99 100 100 100 100
19 23 28 29 31 56 74 80 100 74 71 72 85 70 72 87 83 84 100 100 100 100 100 100 100 96 100 100 100 100 100 100 100 100 100 100 100 100 100 100 100 100 100
46 49 50 49 52 66 68 68 70 74 81 80 86 89 77 66 81 91 91 97 99 98 97 100 100 100 100 100 100 100 100 100 100 100 100 100 100 100 100 100 100 100 100
58 58 58 60 61 62 63 66 73 76 72 71 72 75 86 74 75 76 77 84 100 95 87 100 100 100 100 98 100 100 100 100 100 100 100 100 100 100 100 100 100 100 100
64 64 66 65 66 69 68 68 68 68 67 67 68 67 67 69 71 73 72 73 63 68 80 100 100 94 100 100 100 100 100 100 100 100 100 100 100 100 100 100 97 99 98
66 67 68 71 74 76 78 82 81 80 82 86 83 85 87 87 84 86 86 86 84 80 87 81 72 70 76 98 92 93 100 100 100 100 100 100 100 100 100 100 100 100 100
68 68 68 68 69 69 70 70 72 66 66 67 66 66 69 67 69 68 65 69 64 68 66 66 66 66 58 62 60 58 67 73 90 91 99 100 100 100 100 100 100 100 100
60 57 56 55 53 53 53 53 53 52 51 48 45 44 43 42 38 38 41 41 42 39 46 56 53 49 44 46 43 42 38 39 43 61 78 83 88 94 86 100 100 100 100
62 66 66 66 66 67 63 56 50 48 50 47 44 39 32 28 23 25 26 26 26 27 26 24 26 32 37 38 32 32 33 34 38 40 40 47 73 88 87 94 91 99 100
66 64 69 73 68 63 58 56 54 47 46 39 32 31 29 27 27 24 19 15 11 10 12 12 9 7 5 4 4 5 6 10 15 21 34 39 42 43 54 74 90 100 100
81 76 70 70 68 71 62 58 59 55 48 44 43 39 28 24 21 20 16 14 14 10 4 3 3 3 3 3 3 3 3 3 3 4 5 7 15 30 46 47 57 57 72
78 77 76 66 70 75 74 70 67 69 46 32 28 27 24 18 15 14 14 8 4 3 3 3 4 4 3 3 3 3 3 3 3 3 4 4 5 7 12 27 44 56 56
80 80 75 77 70 65 67 65 73 64 37 28 18 11 12 12 12 8 3 3 3 3 3 3 3 3 2 2 3 3 3 3 3 3 3 3 4 5 6 7 15 41 42
43 57 68 58 54 49 41 40 40 31 32 26 16 13 12 11 4 3 3 4 3 2 2 2 2 2 2 2 2 3 3 3 3 3 3 3 3 4 5 6 7 6 20
22 16 16 15 15 17 17 18 19 19 20 20 23 17 10 4 3 4 3 3 2 2 2 2 2 2 2 2 2 3 3 3 3 3 3 3 3 4 4 5 6 8 10
8 8 8 8 8 9 10 12 12 16 22 24 20 9 4 4 4 3 2 2 2 2 2 2 2 2 2 2 3 3 3 3 3 3 3 3 3 4 4 4 5 6 8
6 7 7 7 8 8 10 12 14 19 23 19 6 4 5 5 3 2 2 2 2 2 2 2 2 2 2 3 3 3 3 3 3 3 3 3 3 4 4 4 6 7 8
7 7 7 8 9 10 11 14 19 23 19 7 5 5 5 3 2 2 2 3 2 2 2 2 2 3 3 3 3 3 3 3 3 3 3 3 3 4 5 6 7 8 8
7 8 9 11 12 12 18 22 23 19 7 5 6 5 3 3 2 2 2 3 3 3 3 3 3 3 3 3 3 3 3 3 3 3 3 4 4 5 6 8 9 11 12
9 11 13 13 15 25 25 24 19 7 6 6 5 4 3 2 3 3 3 3 3 3 3 3 4 4 3 3 3 3 3 3 4 4 4 5 6 8 8 10 11 12 13
11 13 14 16 25 26 24 21 8 6 7 6 4 3 3 3 3 3 3 4 4 4 4 4 5 4 4 4 4 4 4 4 4 5 6 7 9 10 11 12 13 14 15
12 13 23 28 34 31 25 10 6 7 7 5 4 3 3 3 3 4 4 4 4 4 5 6 6 5 5 4 4 4 4 5 6 7 9 10 12 13 14 14 13 13 13

GFSGL_250_rhum_108.txt.gz
RH
4 4 4 4 5 5 5 5 6 8 9 9 8 9 10 11 13 18 29 43 51 46 42 39 41 45 47 42 35 35 81 100 96 100 100 100 100 100 100 100 100 100 100
6 6 6 6 6 7 7 7 8 8 9 10 10 10 11 11 12 12 14 17 21 24 31 37 39 33 38 42 66 99 100 100 100 100 100 100 100 100 100 100 100 100 100
9 8 8 8 8 9 10 10 10 11 12 13 13 14 16 19 20 21 22 25 28 30 28 29 30 41 74 89 90 95 100 100 97 100 100 100 100 100 100 100 100 100 100
26 21 15 13 11 10 11 12 12 12 13 13 14 14 15 15 15 16 17 18 21 32 40 53 57 58 69 85 72 66 73 73 92 100 100 100 100 100 100 100 100 100 100
33 44 46 42 34 29 22 19 16 15 16 16 16 16 17 19 21 22 22 21 23 23 25 40 33 38 66 62 66 65 80 90 100 100 100 99 100 100 100 100 100 100 100
39 42 49 53 51 53 56 63 63 60 62 53 43 51 52 50 48 57 59 59 74 82 73 65 81 81 94 100 88 100 100 100 100 100 100 100 100 96 100 100 100 100 87
45 43 41 38 40 45 49 50 61 73 78 77 58 51 52 54 64 76 79 86 92 92 82 79 87 100 100 100 100 100 100 100 100 100 100 100 100 100 100 100 100 100 100
51 54 56 56 54 56 58 58 60 63 66 64 65 62 64 59 59 65 79 88 84 79 84 88 87 90 89 87 86 96 96 100 96 94 100 100 100 100 100 100 100 100 100
46 49 50 53 55 57 57 57 57 59 60 63 65 66 67 69 65 65 65 65 66 68 72 77 82 84 77 77 87 100 100 100 100 100 99 98 98 100 100 100 100 100 100
69 69 66 62 58 57 59 61 64 69 72 75 75 80 80 80 80 78 82 85 81 78 74 76 75 69 69 71 67 63 66 75 80 95 100 100 100 100 100 100 100 100 100
66 68 67 67 68 69 69 69 70 70 72 72 71 71 71 72 72 73 68 66 70 73 74 70 75 76 78 83 80 73 72 66 67 67 68 82 98 100 100 100 100 100 100
79 71 65 62 62 63 66 70 72 73 72 70 68 68 66 64 65 63 59 58 56 54 54 50 50 52 53 56 61 66 66 70 73 76 74 74 67 60 72 85 94 100 100
83 84 84 81 76 68 62 62 61 57 58 57 54 52 54 53 50 49 46 44 42 38 34 32 30 30 30 29 28 30 37 48 46 49 58 59 68 62 57 51 56 72 97
74 75 78 72 68 66 65 62 60 59 48 38 37 39 39 33 31 32 26 20 18 12 12 13 12 13 12 12 13 14 13 13 14 15 18 24 35 41 43 52 49 52 53
54 56 58 61 64 65 66 70 65 48 40 46 59 45 37 25 21 15 11 10 10 10 11 11 10 8 11 12 12 11 10 8 6 6 6 8 11 15 19 24 28 46 54
11 15 14 15 24 36 38 29 27 44 42 23 12 9 9 8 8 8 8 9 9 8 9 11 12 10 5 4 3 3 3 3 4 4 4 4 5 5 6 6 7 11 22
7 8 8 8 8 8 10 11 10 9 7 6 6 6 6 6 7 8 8 8 9 12 12 7 4 4 5 4 4 3 3 2 2 2 3 3 3 3 4 5 6 7 8
6 6 6 6 6 6 6 6 6 7 7 6 6 6 6 7 7 7 8 9 10 6 4 4 4 4 3 2 2 2 2 2 2 2 2 2 2 3 3 4 4 6 8
5 5 5 5 5 6 6 6 6 6 6 6 7 8 8 8 8 8 8 4 3 4 4 3 3 2 2 2 2 2 2 2 2 2 2 3 3 3 3 4 4 5 6
5 5 5 5 5 6 6 6 6 7 7 8 9 8 10 11 8 5 3 4 4 4 3 2 2 2 2 2 2 2 2 2 2 2 3 3 3 3 4 4 5 5 6
5 5 5 5 6 6 7 7 8 9 10 9 9 12 12 6 4 4 4 4 3 2 2 2 2 3 3 2 2 2 2 3 3 3 3 3 4 4 4 4 5 5 5
5 6 6 7 8 8 9 10 11 10 9 12 15 9 4 4 4 4 3 3 2 2 2 3 3 3 3 3 3 3 3 3 3 3 4 4 4 4 4 4 4 4 4
7 7 8 9 10 10 11 11 11 13 18 16 6 5 5 5 4 3 3 3 3 3 3 4 4 3 3 3 3 4 4 4 4 4 4 3 3 3 3 3 3 4 4
8 8 9 10 12 13 14 18 19 22 14 6 6 6 6 4 4 3 3 3 3 4 4 4 4 4 4 4 4 4 3 3 3 3 3 3 3 3 3 4 4 4 5
8 9 11 13 15 23 24 24 26 15 6 7 7 6 5 4 3 3 3 4 4 4 4 4 4 5 5 5 4 4 4 3 3 3 3 3 4 4 4 5 6 6 7
9 11 14 18 30 30 30 31 20 8 7 8 7 5 4 4 3 4 4 4 5 5 5 5 6 6 6 5 5 4 4 4 4 4 4 4 5 6 6 6 8 9 9

GFSGL_250_rhum_111.txt.gz
RH
4 4 4 4 4 4 4 4 5 5 6 6 7 7 8 9 9 10 11 11 13 15 21 27 32 36 45 53 60 59 63 69 70 64 63 62 66 68 77 77 86 100 100
6 7 7 7 7 7 7 6 6 5 5 5 6 6 8 10 11 11 11 11 12 12 13 13 12 13 19 26 36 45 41 58 73 63 58 58 59 66 68 95 100 100 100
11 9 10 10 11 11 12 12 12 11 9 8 8 8 9 9 10 10 11 12 13 14 14 14 14 14 15 14 15 20 25 28 30 31 36 46 50 61 76 100 100 100 100
25 20 15 11 10 11 11 12 13 13 13 13 13 13 13 13 13 13 14 14 15 16 16 17 17 19 22 24 27 29 31 34 36 44 52 62 75 100 100 100 100 100 100
19 28 36 36 34 28 22 17 15 16 15 15 15 15 15 16 16 17 18 18 20 20 21 21 21 21 22 27 28 33 60 68 67 75 88 86 98 100 100 100 100 100 100
48 40 35 42 55 57 55 59 59 55 52 47 44 36 26 24 22 22 22 21 20 20 20 23 25 30 35 37 62 69 74 66 67 88 92 98 78 86 100 99 100 100 100
54 54 53 51 50 48 49 50 57 50 55 60 62 65 64 62 69 69 73 67 70 71 67 64 67 62 70 67 82 89 98 100 100 92 100 100 100 94 100 100 100 100 100
58 54 51 49 49 50 51 50 49 48 47 49 57 60 60 72 84 82 72 74 69 73 79 93 99 96 98 100 100 100 98 97 100 100 100 100 99 100 98 98 100 100 100
60 57 61 61 56 51 48 49 50 51 51 52 56 59 61 61 62 63 64 66 68 71 71 67 64 68 72 71 76 75 80 86 83 80 98 100 100 100 100 100 100 100 94
69 76 77 74 72 68 66 68 67 66 64 64 62 60 58 58 58 58 57 59 62 63 66 63 62 60 58 57 60 60 58 61 60 58 60 73 92 99 100 91 99 97 98
67 68 68 68 68 73 74 76 76 73 70 71 70 72 79 85 83 81 84 82 76 76 73 68 64 60 58 58 57 57 61 68 65 59 56 57 58 58 62 75 80 83 97
22 38 50 59 61 63 62 64 63 63 65 70 74 77 77 75 73 77 75 71 69 69 71 70 70 71 70 70 69 65 60 59 57 58 59 61 62 59 57 56 56 60 61
18 14 12 13 19 34 39 44 51 51 48 48 51 54 56 56 55 53 54 53 51 50 51 52 51 50 49 47 46 47 49 46 45 43 44 48 51 56 62 74 80 83 82
23 13 12 12 11 9 9 9 10 16 28 38 46 56 58 53 47 43 38 32 35 36 31 32 34 34 34 29 22 18 16 13 13 12 14 15 21 29 35 39 44 51 58
16 14 11 10 9 9 8 7 6 6 7 8 10 12 16 21 21 20 19 17 11 9 9 9 7 6 6 6 6 6 6 7 7 7 8 8 10 13 16 16 15 16 18
11 10 9 9 8 7 6 6 6 6 6 6 6 7 6 7 7 7 6 6 6 6 5 5 5 5 5 6 6 6 6 6 6 8 9 10 9 10 11 12 12 12 16
10 9 8 6 6 5 5 5 5 4 5 5 5 6 6 6 5 5 5 5 5 5 5 5 6 6 6 6 6 6 5 4 3 3 3 4 4 5 5 5 5 5 6
9 8 6 5 5 5 5 5 5 5 5 5 5 5 5 5 5 5 5 5 6 6 5 6 7 7 4 3 3 3 3 4 3 3 3 3 2 2 2 3 3 3 3
8 6 5 5 4 5 5 5 5 6 6 6 6 6 6 6 6 6 5 5 5 7 6 4 3 3 4 4 3 3 2 2 2 2 2 2 2 2 2 2 2 2 2
7 6 5 6 6 6 6 6 7 7 8 8 8 8 8 8 7 6 7 6 4 3 4 4 4 3 3 2 2 2 2 2 2 3 3 2 2 2 2 2 2 3 3
8 6 6 6 6 7 7 7 8 8 9 9 9 8 10 12 11 5 4 3 4 4 4 3 3 2 2 2 3 3 3 3 3 3 2 2 2 2 2 2 3 3 3
8 7 7 7 7 7 8 8 10 10 11 14 15 15 10 5 4 4 4 4 4 3 3 3 3 3 3 3 3 3 4 3 3 3 3 3 3 3 3 3 3 3 3
9 8 8 8 9 9 9 10 14 18 17 17 16 7 4 4 4 5 4 3 3 3 3 3 4 4 4 4 4 4 4 4 4 4 4 4 4 4 4 4 4 4 4
11 10 10 10 11 11 12 13 18 18 20 18 6 5 5 6 6 4 4 4 3 3 3 4 4 4 4 4 4 4 4 4 4 4 3 4 4 4 4 5 5 5 5
12 11 10 11 12 15 15 25 25 23 21 8 6 7 7 6 5 4 4 3 4 4 5 5 5 5 5 6 5 5 4 4 4 3 3 3 3 3 3 4 4 4 5
14 12 11 11 12 20 21 30 30 27 15 8 9 9 8 6 5 4 4 4 4 5 6 6 6 6 6 6 6 5 5 4 4 4 4 4 4 4 4 4 4 4 5

GFSGL_250_rhum_114.txt.gz
RH
7 7 6 6 7 7 6 7 7 8 10 13 12 11 9 9 9 8 8 8 8 8 8 9 10 12 14 16 21 28 37 46 45 45 54 65 67 62 61 62 65 76 74
16 13 9 7 6 6 8 8 7 7 8 7 7 7 6 6 6 7 8 8 9 9 10 12 12 12 13 14 15 18 15 16 19 24 29 33 38 39 38 47 64 80 77
18 20 28 19 11 8 8 8 10 12 12 13 14 12 10 9 8 8 9 9 10 11 12 12 12 11 11 11 12 13 14 14 15 15 14 15 17 18 20 24 29 36 50
38 36 24 21 32 37 20 12 10 10 10 11 11 10 10 10 10 8 8 9 10 11 12 12 13 13 14 15 15 16 16 17 17 16 15 17 18 18 21 25 32 51 58
49 47 46 46 42 32 28 37 45 44 34 18 13 12 11 10 10 12 12 12 10 10 11 12 13 13 14 15 16 17 17 16 16 17 18 22 29 39 50 51 59 61 70
64 60 58 53 49 49 48 48 43 38 34 38 46 49 53 46 22 16 14 14 15 16 17 17 18 19 19 20 22 25 25 25 26 29 34 28 43 58 59 73 84 87 98
62 64 64 67 65 62 57 52 49 52 53 48 48 47 42 49 49 55 59 51 34 30 29 28 28 27 28 32 30 30 33 30 28 31 45 52 81 100 80 78 94 87 100
21 22 32 46 56 59 60 62 63 59 56 56 56 55 54 52 53 57 52 55 61 62 70 75 76 68 65 71 71 71 69 66 70 58 65 75 70 95 92 95 94 87 100
40 37 28 18 16 22 35 48 53 53 52 51 52 51 53 54 54 53 54 55 56 60 67 72 64 60 56 60 66 74 72 74 82 93 93 86 100 87 91 93 100 100 100
30 32 40 44 39 28 19 16 17 28 36 44 46 49 51 49 49 52 55 56 56 55 55 57 57 57 63 65 58 60 59 62 73 79 74 81 87 92 94 85 77 79 93
24 21 22 25 29 33 32 23 16 14 13 13 21 31 36 43 46 46 46 48 47 50 53 55 54 53 53 56 56 55 54 55 60 66 66 66 73 76 73 67 67 68 67
28 23 18 15 13 11 11 12 16 16 11 10 11 10 11 15 26 36 41 46 49 51 54 52 53 53 50 49 50 50 50 48 50 54 53 55 59 57 56 62 64 67 66
24 25 23 17 14 12 10 8 8 9 9 10 9 10 10 10 9 10 14 23 35 48 52 55 60 58 56 56 56 57 58 57 63 67 69 70 69 68 66 58 57 60 60
22 21 20 16 12 10 9 8 7 7 7 8 8 8 8 9 8 8 8 9 11 14 16 21 26 30 31 33 34 32 30 33 37 42 44 46 48 50 54 53 50 47 47
20 19 17 13 10 8 7 6 5 5 5 5 5 6 6 6 6 6 6 6 6 6 6 7 7 7 7 7 7 8 9 9 8 8 8 9 9 12 16 18 29 37 36
19 17 16 12 8 7 5 4 4 4 4 4 4 5 4 5 6 6 6 5 5 4 5 4 4 4 4 4 4 4 4 4 4 5 5 5 5 5 5 5 6 6 7
19 16 14 11 9 7 6 5 5 5 5 6 5 5 5 5 5 6 6 5 5 4 4 4 4 4 4 4 4 4 5 5 5 5 5 5 5 5 6 6 7 7 7
20 17 14 10 8 7 7 7 6 6 6 6 7 8 8 7 7 7 6 6 6 5 5 6 5 5 5 5 4 4 4 4 4 4 4 4 4 4 4 5 5 5 5
21 19 15 12 10 8 8 8 7 6 6 7 7 7 7 7 7 6 6 6 6 6 6 6 6 5 4 3 3 3 3 3 3 3 3 4 4 4 4 4 4 4 4
24 20 18 14 12 10 9 9 9 8 9 9 9 11 12 10 7 7 8 7 5 4 3 3 4 4 4 4 3 3 3 3 3 2 2 2 2 2 2 2 2 2 2
26 22 19 16 13 11 11 10 9 9 8 9 16 17 18 18 15 7 4 4 4 4 4 4 4 3 3 3 2 2 2 2 3 3 3 3 3 3 3 3 3 3 3
30 23 19 17 14 12 12 11 10 11 14 17 18 22 20 10 5 5 5 6 5 4 4 3 3 3 2 2 3 3 4 4 4 4 4 4 3 3 3 3 3 3 2
34 23 20 18 15 13 13 12 10 12 20 20 24 24 12 7 6 6 6 5 4 4 3 3 3 3 4 4 4 4 4 4 4 4 4 4 4 4 4 3 3 3 3
31 23 22 18 16 14 14 13 11 12 22 21 24 18 10 8 8 7 6 5 4 4 4 4 4 5 5 5 5 5 5 5 5 4 4 4 4 3 4 4 4 4 4
28 22 23 20 17 14 14 14 11 11 20 23 24 14 10 11 10 7 6 6 5 4 4 5 6 6 6 6 6 6 6 5 4 4 4 3 3 3 3 3 4 4 4
26 23 23 22 16 14 14 14 11 12 22 25 24 12 12 12 10 7 7 6 5 5 6 6 7 7 7 6 6 6 5 5 4 4 4 4 3 3 3 3 3 4 4

GFSGL_250_rhum_117.txt.gz
RH
27 21 17 18 16 12 9 7 8 8 8 10 9 8 8 6 6 6 8 16 25 28 34 36 24 14 11 9 9 9 10 14 18 32 35 41 49 50 48 47 35 39 54
29 28 28 26 26 28 27 19 12 9 20 17 12 18 12 16 20 16 35 28 22 20 15 11 9 11 10 9 9 8 9 9 10 14 20 33 37 35 34 25 21 20 24
32 32 30 28 29 31 31 34 36 23 17 18 18 16 19 38 48 45 36 22 13 12 10 10 12 10 9 9 8 9 9 9 9 11 14 17 19 17 15 14 16 19 17
17 19 30 36 35 32 31 31 32 33 42 35 29 23 17 17 17 15 15 14 12 9 8 7 8 9 9 9 10 10 11 11 12 11 13 14 14 15 16 16 17 16 18
43 42 33 19 17 24 35 37 36 34 33 33 32 36 45 49 36 29 19 17 17 16 15 12 8 8 9 10 12 13 13 13 14 14 14 14 14 15 16 16 18 19 20
37 32 32 41 46 44 28 16 19 32 38 39 37 37 41 36 31 37 46 41 37 31 16 14 16 17 14 11 10 10 12 13 14 15 16 17 16 18 19 19 19 20 22
40 32 26 25 26 28 38 47 47 35 21 17 24 34 37 36 36 36 34 29 31 35 41 43 35 22 18 18 20 18 18 17 15 14 15 17 18 19 21 21 26 32 47
39 34 30 24 21 19 18 19 23 30 36 39 32 22 18 24 34 35 35 36 38 41 43 45 44 37 40 42 31 21 19 19 21 25 25 25 25 28 30 36 33 39 38
43 39 34 31 30 29 26 20 17 14 14 14 16 21 27 22 19 21 33 39 38 35 36 35 34 38 39 41 50 52 51 47 46 45 43 39 42 38 37 39 44 41 47
61 38 31 25 25 22 21 21 21 18 14 12 10 10 9 10 17 19 16 20 26 35 40 44 47 49 45 40 39 46 50 53 60 69 70 71 74 75 71 65 73 71 81
62 53 40 22 20 19 17 16 15 14 12 10 9 8 8 8 8 9 13 14 14 17 22 26 33 39 44 45 44 46 48 52 58 61 57 56 60 66 70 70 69 78 86
62 52 45 27 18 15 14 13 11 10 8 8 7 6 6 6 7 8 8 9 10 11 12 13 15 17 24 32 40 47 48 48 49 49 49 50 50 52 54 63 74 76 84
68 59 48 35 23 16 14 13 10 9 7 6 5 4 4 4 5 5 6 7 8 9 10 11 11 11 12 12 13 17 24 31 35 40 46 50 48 46 46 45 47 54 63
74 63 58 41 31 18 13 12 10 8 6 5 4 5 5 5 4 4 5 5 5 6 7 8 8 8 8 7 7 7 7 7 8 11 26 38 40 39 44 48 49 46 49
72 69 66 59 35 19 13 12 10 7 7 6 6 6 6 5 6 6 5 5 5 4 5 4 4 4 4 4 5 5 5 4 4 5 6 7 9 13 22 25 32 39 40
78 72 63 64 44 25 15 13 11 8 7 7 6 6 6 6 6 6 7 7 6 6 6 5 5 5 4 4 4 4 4 5 5 5 4 5 5 5 6 6 6 7 10
82 72 68 62 47 34 18 15 13 10 8 8 7 6 7 7 8 7 7 6 6 6 5 4 4 4 4 4 4 4 4 4 4 4 5 5 5 5 5 4 4 4 5
90 70 69 58 44 35 20 16 14 12 10 8 7 7 7 8 9 10 11 11 10 7 7 8 7 7 6 6 5 5 5 5 4 5 4 4 5 5 5 5 5 5 6
91 74 73 62 42 37 23 17 14 12 11 10 9 7 7 10 11 13 14 14 12 8 6 4 4 3 3 3 3 3 3 3 3 3 3 3 3 3 3 3 4 4 4
92 75 74 66 42 38 23 18 15 13 12 10 9 7 7 11 14 15 13 7 4 4 4 4 4 4 4 4 4 4 4 3 3 3 3 3 3 3 3 3 3 3 3
93 76 78 65 48 41 22 19 16 13 12 10 9 7 8 13 18 16 7 5 6 6 5 5 4 4 4 3 3 3 3 3 3 3 3 3 3 3 3 3 3 3 3
84 77 76 63 44 39 22 20 17 13 12 11 9 7 9 16 19 11 6 7 7 6 5 5 4 4 3 3 3 4 4 4 4 4 4 4 4 4 4 4 4 4 4
81 77 79 58 45 38 23 21 18 13 12 11 9 8 9 18 15 7 8 8 7 6 6 5 4 4 4 5 5 5 5 5 5 5 5 4 4 4 4 4 4 4 3
72 69 76 51 48 31 23 21 18 13 13 12 9 8 12 19 10 8 9 9 6 6 6 5 4 5 6 6 6 6 6 5 5 5 5 4 4 4 4 4 4 4 4
60 65 74 48 44 26 23 22 17 14 14 12 9 8 16 17 9 11 11 8 6 7 6 5 5 6 7 7 7 6 6 6 5 5 5 4 4 4 3 3 3 4 4
52 60 64 42 36 26 23 22 18 15 14 12 9 8 18 14 10 13 13 8 7 8 6 5 6 8 8 8 8 7 6 6 6 5 5 4 4 4 3 3 3 3 4

GFSGL_250_rhum_120.txt.gz
RH
30 24 20 20 22 26 25 22 15 11 10 10 16 16 17 11 9 9 11 11 9 12 27 30 24 24 17 13 11 16 15 18 9 16 24 21 18 18 23 23 30 46 35
32 28 26 21 16 17 20 25 29 30 24 20 19 21 34 46 24 34 20 15 14 16 17 17 24 34 42 34 39 33 26 26 35 45 38 32 27 18 18 20 25 32 33
30 33 33 30 25 23 21 18 17 22 32 36 38 39 48 65 86 70 64 63 52 58 45 48 46 53 44 41 42 45 25 16 17 19 34 35 26 20 16 16 20 24 18
33 30 28 26 24 22 21 21 25 27 21 20 28 38 42 48 40 35 51 71 81 100 85 75 76 55 62 49 30 24 20 14 12 15 19 20 20 18 16 13 14 16 21
59 52 36 25 24 23 22 21 20 18 18 27 30 21 19 28 38 41 38 32 22 17 20 23 21 19 19 17 15 13 11 10 9 8 10 13 16 15 13 14 14 16 18
69 66 59 54 38 30 25 22 20 20 20 18 16 16 22 29 20 15 19 28 35 33 28 24 24 22 15 13 12 11 12 10 9 11 9 9 10 11 12 13 14 16 16
62 59 63 58 56 57 50 31 23 21 20 19 19 18 16 14 13 15 20 19 13 12 19 28 30 24 22 23 27 26 18 12 12 13 13 12 14 14 14 15 16 17 18
62 65 60 57 56 54 51 41 27 21 18 18 17 16 15 13 13 12 11 11 11 13 15 11 11 19 31 32 29 25 23 26 24 20 18 17 17 17 19 20 20 22 25
64 63 63 64 55 55 49 39 30 24 18 15 14 12 11 11 11 10 10 9 9 9 8 9 14 16 13 15 30 36 33 28 28 28 28 28 22 22 23 26 28 33 33
71 64 64 61 62 55 48 42 37 27 20 13 12 11 10 8 8 8 8 7 7 8 9 8 8 9 14 14 12 16 31 34 35 35 36 36 38 37 33 33 29 30 37
76 74 68 67 64 57 52 46 41 32 23 15 11 10 10 8 6 5 5 5 5 6 7 7 7 8 8 10 14 14 16 19 20 30 37 40 41 42 47 49 53 59 65
81 74 68 68 69 59 52 54 38 31 26 18 12 10 9 7 6 5 5 5 5 5 5 5 6 7 8 8 9 10 14 15 16 20 25 32 40 44 45 46 52 57 62
80 80 70 66 72 69 54 57 47 31 27 18 13 11 9 8 7 6 6 6 6 6 6 6 6 6 6 6 7 8 8 9 11 14 15 18 23 31 38 45 52 53 61
84 86 80 62 66 72 61 52 55 38 28 19 14 13 11 9 7 7 6 6 6 6 6 6 7 6 6 5 5 4 5 5 6 6 7 8 10 12 14 17 27 36 52
80 86 84 69 63 65 70 50 57 47 30 21 14 14 12 10 8 8 6 5 5 5 6 6 6 6 6 6 5 4 4 3 4 4 5 5 6 7 8 8 10 11 14
83 86 88 79 66 61 66 51 57 50 30 21 15 14 13 11 9 9 7 5 5 6 6 6 4 4 4 4 4 4 4 4 4 4 4 4 4 4 5 5 6 6 7
80 80 81 84 77 66 68 58 57 49 30 20 15 14 13 11 10 9 7 6 7 10 10 10 11 11 10 8 7 6 6 5 4 4 3 4 4 4 4 4 4 4 5
74 75 72 82 80 68 66 59 62 58 29 18 14 13 12 11 10 10 8 7 9 12 14 13 8 4 4 3 3 3 3 3 3 3 3 4 5 5 4 4 4 4 4
79 76 78 85 80 74 64 58 60 62 30 19 14 13 12 10 10 9 8 11 16 14 10 6 5 5 5 5 4 4 4 4 4 4 3 4 4 3 3 3 4 4 5
74 74 89 88 84 74 66 60 61 60 30 19 15 15 12 10 10 9 8 15 14 8 6 6 6 5 5 5 4 4 4 3 3 3 3 3 3 3 3 3 3 4 4
69 68 89 88 83 69 57 60 59 56 30 19 16 15 12 12 11 8 11 15 11 7 8 8 6 5 5 5 4 4 3 3 3 3 3 3 3 3 2 2 2 2 2
64 64 78 81 80 67 56 57 55 54 29 19 15 14 13 12 11 9 15 15 8 9 9 7 6 5 5 4 4 4 4 4 4 4 4 4 4 4 4 4 4 3 3
62 63 64 65 72 64 57 55 59 49 26 18 16 15 13 12 9 10 16 11 10 10 8 6 6 6 5 4 5 6 5 5 5 5 5 5 5 5 5 4 4 4 4
55 56 54 58 68 59 56 52 58 36 23 16 15 15 13 11 9 12 16 11 12 10 7 7 7 6 6 6 7 7 6 6 6 5 5 5 4 4 4 4 4 4 4
50 42 42 49 60 56 50 53 52 30 22 16 16 14 13 11 9 16 16 12 14 9 7 8 8 6 6 7 8 8 8 7 7 6 5 5 4 4 4 4 3 3 3
44 39 35 47 50 44 44 53 39 27 19 17 16 14 13 10 9 20 15 14 15 9 8 9 8 7 7 8 9 9 9 8 7 6 6 6 5 4 4 4 3 3 3